[[{"header":{"parameterUnit":"m.s-1","parameterCategory":1,"la1":31.0,"la2":29.5877,"lo1":-88.7671,"lo2":-86.6584,"dy":0.0162,"dx":0.0185,"nx":115,"ny":88,"refTime":"2023-06-24T12:00:00:Z","depth":0,"parameterNumber":2,"parameterNumberName":"U-component_of_WINDS"},"data":[0.0,0.0,0.0,0.0,0.0,0.0,0.0,0.0,0.0,0.0,0.0,0.0,0.0,0.0,0.0,0.0,0.0,0.0,0.0,0.0,0.0,0.0,0.0,0.0,0.0,0.0,0.0,0.0,0.0,0.0,0.0,0.0,0.0,0.0,0.0,0.0,0.0,0.0,0.0,0.0,0.0,0.0,0.0,0.0,0.0,0.0,0.0,0.0,0.0,0.0,0.0,0.0,0.0,0.0,0.0,0.0,0.0,0.0,0.0,0.0,0.0,0.0,0.0,0.0,0.0,0.0,0.0,0.0,0.0,0.0,0.0,0.0,0.0,0.0,0.0,0.0,0.0,0.0,0.0,0.0,0.0,0.0,0.0,0.0,0.0,0.0,0.0,0.0,0.0,0.0,0.0,0.0,0.0,0.0,0.0,0.0,0.0,0.0,0.0,0.0,0.0,0.0,0.0,0.0,0.0,0.0,0.0,0.0,0.0,0.0,0.0,0.0,0.0,0.0,0.0,0.0,0.0,0.0,0.0,0.0,0.0,0.0,0.0,0.0,0.0,0.0,0.0,0.0,0.0,0.0,0.0,0.0,0.0,0.0,0.0,0.0,0.0,0.0,0.0,0.0,0.0,0.0,0.0,0.0,0.0,0.0,0.0,0.0,0.0,0.0,0.0,0.0,0.0,0.0,0.0,0.0,0.0,0.0,0.0,0.0,0.0,0.0,0.0,0.0,0.0,0.0,0.0,0.0,0.0,0.0,0.0,0.0,0.0,0.0,0.0,0.0,0.0,0.0,0.0,0.0,0.0,0.0,0.0,0.0,0.0,0.0,0.0,0.0,0.0,0.0,0.0,0.0,0.0,0.0,0.0,0.0,0.0,0.0,0.0,0.0,0.0,0.0,0.0,0.0,0.0,0.0,0.0,0.0,0.0,0.0,0.0,0.0,0.0,0.0,0.0,0.0,0.0,0.0,0.0,0.0,0.0,0.0,0.0,0.0,0.0,0.0,0.0,0.0,0.0,0.0,0.0,0.0,0.0,0.0,0.0,0.0,0.0,0.0,0.0,0.0,0.0,0.0,0.0,0.0,0.0,0.0,0.0,0.0,0.0,0.0,0.0,0.0,0.0,0.0,0.0,0.0,0.0,0.0,0.0,0.0,0.0,0.0,0.0,0.0,0.0,0.0,0.0,0.0,0.0,0.0,0.0,0.0,0.0,0.0,0.0,0.0,0.0,0.0,0.0,0.0,0.0,0.0,0.0,0.0,0.0,0.0,0.0,0.0,0.0,0.0,0.0,0.0,0.0,0.0,0.0,0.0,0.0,0.0,0.0,0.0,0.0,0.0,0.0,0.0,0.0,0.0,0.0,0.0,0.0,0.0,0.0,0.0,0.0,0.0,0.0,0.0,0.0,0.0,0.0,0.0,0.0,0.0,0.0,0.0,0.0,0.0,0.0,0.0,0.0,0.0,0.0,0.0,0.0,0.0,0.0,0.0,0.0,0.0,0.0,0.0,0.0,0.0,0.0,0.0,0.0,0.0,0.0,0.0,0.0,0.0,0.0,0.0,0.0,0.0,0.0,0.0,0.0,0.0,0.0,0.0,0.0,0.0,0.0,0.0,0.0,0.0,0.0,0.0,0.0,0.0,0.0,0.0,0.0,0.0,0.0,0.0,0.0,0.0,0.0,0.0,0.0,0.0,0.0,0.0,0.0,0.0,0.0,0.0,0.0,0.0,0.0,0.0,0.0,0.0,0.0,0.0,0.0,0.0,0.0,0.0,0.0,0.0,0.0,0.0,0.0,0.0,0.0,0.0,0.0,0.0,0.0,0.0,0.0,0.0,0.0,0.0,0.0,0.0,0.0,0.0,0.0,0.0,0.0,0.0,0.0,0.0,0.0,0.0,0.0,0.0,0.0,0.0,0.0,0.0,0.0,0.0,0.0,0.0,0.0,0.0,0.0,0.0,0.0,0.0,0.0,0.0,0.0,0.0,0.0,0.0,0.0,0.0,0.0,0.0,0.0,0.0,0.0,0.0,0.0,0.0,0.0,0.0,0.0,0.0,0.0,0.0,0.0,0.0,0.0,0.0,0.0,0.0,0.0,0.0,0.0,0.0,0.0,0.0,0.0,0.0,0.0,0.0,0.0,0.0,0.0,0.0,0.0,0.0,0.0,0.0,0.0,0.0,0.0,0.0,0.0,0.0,0.0,0.0,0.0,0.0,0.0,0.0,0.0,0.0,0.0,0.0,0.0,0.0,0.0,0.0,0.0,0.0,0.0,0.0,0.0,0.0,0.0,0.0,0.0,0.0,0.0,0.0,0.0,0.0,0.0,0.0,0.0,0.0,0.0,0.0,0.0,0.0,0.0,0.0,0.0,0.0,0.0,0.0,0.0,0.0,0.0,0.0,0.0,0.0,0.0,0.0,0.0,0.0,0.0,0.0,0.0,0.0,0.0,0.0,0.0,0.0,0.0,0.0,0.0,0.0,0.0,0.0,0.0,0.0,0.0,0.0,0.0,0.0,0.0,0.0,0.0,0.0,0.0,0.0,0.0,0.0,0.0,0.0,0.0,0.0,0.0,0.0,0.0,0.0,0.0,0.0,0.0,0.0,0.0,0.0,0.0,0.0,0.0,0.0,0.0,0.0,0.0,0.0,0.0,0.0,0.0,0.0,0.0,0.0,0.0,0.0,0.0,0.0,0.0,0.0,0.0,0.0,0.0,0.0,0.0,0.0,0.0,0.0,0.0,0.0,0.0,0.0,0.0,0.0,0.0,0.0,0.0,0.0,0.0,0.0,0.0,0.0,0.0,0.0,0.0,0.0,0.0,0.0,0.0,0.0,0.0,0.0,0.0,0.0,0.0,0.0,0.0,0.0,0.0,0.0,0.0,0.0,0.0,0.0,0.0,0.0,0.0,0.0,0.0,0.0,0.0,0.0,0.0,0.0,0.0,0.0,0.0,0.0,0.0,0.0,0.0,0.0,0.0,0.0,0.0,0.0,0.0,0.0,0.0,0.0,0.0,0.0,0.0,0.0,0.0,0.0,0.0,0.0,0.0,0.0,0.0,0.0,0.0,0.0,0.0,0.0,0.0,0.0,0.0,0.0,0.0,0.0,0.0,0.0,0.0,0.0,0.0,0.0,0.0,0.0,0.0,0.0,0.0,0.0,0.0,0.0,0.0,0.0,0.0,0.0,0.0,0.0,0.0,0.0,0.0,0.0,0.0,0.0,0.0,0.0,0.0,0.0,0.0,0.0,0.0,0.0,0.0,0.0,0.0,0.0,0.0,0.0,0.0,0.0,0.0,0.0,0.0,0.0,0.0,0.0,0.0,0.0,0.0,0.0,0.0,0.0,0.0,0.0,0.0,0.0,0.0,0.0,0.0,0.0,0.0,0.0,0.0,0.0,0.0,0.0,0.0,0.0,0.0,0.0,0.0,0.0,0.0,0.0,0.0,0.0,0.0,0.0,0.0,0.0,0.0,0.0,0.0,0.0,0.0,0.0,0.0,0.0,0.0,0.0,0.0,0.0,0.0,0.0,0.0,0.0,0.0,0.0,0.0,0.0,0.0,0.0,0.0,0.0,0.0,0.0,0.0,0.0,0.0,0.0,0.0,0.0,0.0,0.0,0.0,0.0,0.0,0.0,0.0,0.0,0.0,0.0,0.0,0.0,0.0,0.0,0.0,0.0,0.0,0.0,0.0,0.0,0.0,0.0,0.0,0.0,0.0,0.0,0.0,0.0,0.0,0.0,0.0,0.0,0.0,0.0,0.0,0.0,0.0,0.0,0.0,0.0,0.0,0.0,0.0,0.0,0.0,0.0,0.0,0.0,0.0,0.0,0.0,0.0,0.0,0.0,0.0,0.0,0.0,0.0,0.0,0.0,0.0,0.0,0.0,0.0,0.0,0.0,0.0,0.0,0.0,0.0,0.0,0.0,0.0,0.0,0.0,0.0,0.0,0.0,0.0,0.0,0.0,0.0,0.0,0.0,0.0,0.0,0.0,0.0,0.0,0.0,0.0,0.0,0.0,0.0,0.0,0.0,0.0,0.0,0.0,0.0,0.0,0.0,0.0,0.0,0.0,0.0,0.0,0.0,0.0,0.0,0.0,0.0,0.0,0.0,0.0,0.0,0.0,0.0,0.0,0.0,0.0,0.0,0.0,0.0,0.0,0.0,0.0,0.0,0.0,0.0,0.0,0.0,0.0,0.0,0.0,0.0,0.0,0.0,0.0,0.0,0.0,0.0,0.0,0.0,0.0,0.0,0.0,0.0,0.0,0.0,-4.3989,0.0,0.0,0.0,0.0,0.0,0.0,0.0,0.0,0.0,0.0,0.0,0.0,0.0,0.0,0.0,0.0,0.0,0.0,0.0,0.0,0.0,0.0,0.0,0.0,0.0,0.0,0.0,0.0,0.0,0.0,0.0,0.0,0.0,0.0,0.0,0.0,0.0,0.0,0.0,0.0,0.0,0.0,0.0,0.0,0.0,0.0,0.0,0.0,0.0,0.0,0.0,0.0,0.0,0.0,0.0,0.0,0.0,0.0,0.0,0.0,0.0,0.0,0.0,0.0,0.0,0.0,0.0,0.0,0.0,0.0,0.0,0.0,0.0,0.0,0.0,0.0,0.0,0.0,0.0,0.0,0.0,0.0,0.0,0.0,0.0,0.0,0.0,0.0,0.0,0.0,0.0,0.0,0.0,0.0,0.0,0.0,0.0,0.0,0.0,0.0,0.0,0.0,0.0,0.0,0.0,0.0,0.0,0.0,0.0,0.0,-4.692,-4.5359,-4.7747,-4.761,-4.4605,0.0,0.0,0.0,0.0,0.0,0.0,0.0,0.0,0.0,0.0,0.0,0.0,0.0,0.0,0.0,0.0,0.0,0.0,0.0,0.0,0.0,0.0,0.0,0.0,0.0,0.0,0.0,0.0,0.0,0.0,0.0,0.0,0.0,0.0,0.0,0.0,0.0,0.0,0.0,0.0,0.0,0.0,0.0,0.0,0.0,0.0,0.0,0.0,0.0,0.0,0.0,0.0,0.0,0.0,0.0,0.0,0.0,0.0,0.0,0.0,0.0,0.0,0.0,0.0,0.0,0.0,0.0,0.0,0.0,0.0,0.0,0.0,0.0,0.0,0.0,0.0,0.0,0.0,0.0,0.0,0.0,0.0,0.0,0.0,0.0,0.0,0.0,0.0,0.0,0.0,0.0,0.0,0.0,0.0,0.0,0.0,0.0,0.0,0.0,0.0,0.0,0.0,0.0,0.0,0.0,0.0,0.0,0.0,0.0,0.0,0.0,0.0,-4.9288,-4.923,-4.6202,0.0,0.0,0.0,0.0,0.0,0.0,0.0,0.0,0.0,0.0,0.0,0.0,0.0,0.0,0.0,0.0,0.0,0.0,0.0,0.0,0.0,0.0,0.0,0.0,0.0,0.0,0.0,0.0,0.0,0.0,0.0,0.0,0.0,0.0,0.0,0.0,0.0,0.0,0.0,0.0,0.0,0.0,0.0,0.0,0.0,0.0,0.0,0.0,0.0,0.0,0.0,0.0,0.0,0.0,0.0,0.0,0.0,0.0,0.0,0.0,0.0,0.0,0.0,0.0,0.0,0.0,0.0,0.0,0.0,0.0,0.0,0.0,0.0,0.0,0.0,0.0,0.0,0.0,0.0,0.0,0.0,0.0,0.0,0.0,0.0,0.0,0.0,0.0,0.0,0.0,0.0,0.0,0.0,0.0,0.0,0.0,0.0,0.0,0.0,0.0,0.0,0.0,0.0,0.0,0.0,0.0,0.0,0.0,0.0,0.0,-4.6391,-4.9258,-4.9926,0.0,-4.8849,0.0,0.0,0.0,0.0,0.0,0.0,0.0,0.0,0.0,0.0,0.0,0.0,0.0,0.0,0.0,0.0,0.0,0.0,0.0,0.0,0.0,0.0,0.0,0.0,0.0,0.0,0.0,0.0,0.0,0.0,0.0,0.0,0.0,0.0,0.0,0.0,0.0,0.0,0.0,0.0,0.0,0.0,0.0,0.0,0.0,0.0,0.0,0.0,0.0,0.0,0.0,0.0,0.0,0.0,0.0,0.0,0.0,0.0,0.0,0.0,0.0,0.0,0.0,0.0,0.0,0.0,0.0,0.0,0.0,0.0,0.0,0.0,0.0,0.0,0.0,0.0,0.0,0.0,0.0,0.0,0.0,0.0,0.0,0.0,0.0,0.0,0.0,0.0,0.0,0.0,0.0,0.0,0.0,0.0,0.0,0.0,0.0,0.0,0.0,0.0,0.0,0.0,0.0,0.0,0.0,0.0,0.0,0.0,0.0,0.0,-4.7624,-5.0459,-5.0319,-4.925,0.0,0.0,0.0,0.0,0.0,0.0,0.0,0.0,0.0,0.0,0.0,0.0,0.0,0.0,0.0,0.0,0.0,0.0,0.0,0.0,0.0,0.0,0.0,0.0,0.0,0.0,0.0,0.0,0.0,0.0,0.0,0.0,0.0,0.0,0.0,0.0,0.0,0.0,0.0,0.0,0.0,0.0,0.0,0.0,0.0,0.0,0.0,0.0,0.0,0.0,0.0,0.0,0.0,0.0,0.0,0.0,0.0,0.0,0.0,0.0,0.0,0.0,0.0,0.0,0.0,0.0,0.0,0.0,0.0,0.0,0.0,0.0,0.0,0.0,0.0,0.0,0.0,0.0,0.0,0.0,0.0,0.0,0.0,0.0,0.0,0.0,0.0,0.0,0.0,0.0,0.0,0.0,0.0,0.0,0.0,0.0,0.0,0.0,0.0,0.0,0.0,0.0,0.0,0.0,0.0,0.0,0.0,0.0,0.0,0.0,-4.7776,-4.9703,-5.2371,-5.0983,-4.9046,-4.6817,0.0,0.0,0.0,0.0,0.0,0.0,0.0,0.0,0.0,0.0,0.0,0.0,0.0,0.0,0.0,0.0,0.0,0.0,0.0,0.0,0.0,0.0,0.0,0.0,0.0,0.0,0.0,0.0,0.0,0.0,0.0,0.0,0.0,0.0,0.0,0.0,0.0,0.0,0.0,0.0,0.0,0.0,0.0,0.0,0.0,0.0,0.0,0.0,0.0,0.0,0.0,0.0,0.0,0.0,0.0,0.0,0.0,0.0,0.0,0.0,0.0,0.0,0.0,0.0,0.0,0.0,0.0,0.0,0.0,0.0,0.0,0.0,0.0,0.0,0.0,0.0,0.0,0.0,0.0,0.0,0.0,0.0,0.0,0.0,0.0,0.0,0.0,0.0,0.0,0.0,0.0,0.0,0.0,0.0,0.0,0.0,0.0,0.0,0.0,0.0,0.0,0.0,0.0,0.0,0.0,0.0,0.0,0.0,-5.2919,-5.1782,-5.2704,-5.6011,-5.2194,-4.9695,0.0,0.0,0.0,0.0,0.0,0.0,0.0,0.0,0.0,0.0,0.0,0.0,0.0,0.0,0.0,0.0,0.0,0.0,0.0,0.0,0.0,0.0,0.0,0.0,0.0,0.0,0.0,0.0,0.0,0.0,0.0,0.0,0.0,0.0,0.0,0.0,0.0,0.0,0.0,0.0,0.0,0.0,0.0,0.0,0.0,0.0,0.0,0.0,0.0,0.0,0.0,0.0,0.0,0.0,0.0,0.0,0.0,0.0,0.0,0.0,0.0,0.0,0.0,0.0,0.0,0.0,0.0,0.0,0.0,0.0,0.0,0.0,0.0,0.0,0.0,0.0,0.0,0.0,0.0,0.0,0.0,0.0,0.0,0.0,0.0,0.0,0.0,0.0,0.0,0.0,0.0,0.0,0.0,0.0,0.0,0.0,0.0,0.0,0.0,0.0,0.0,0.0,0.0,0.0,0.0,0.0,0.0,0.0,0.0,-4.8248,-5.0689,-5.3082,-5.5248,-5.2475,-5.0526,0.0,0.0,0.0,0.0,0.0,0.0,0.0,0.0,0.0,0.0,0.0,0.0,0.0,0.0,0.0,0.0,0.0,0.0,0.0,0.0,0.0,0.0,0.0,0.0,0.0,0.0,0.0,0.0,0.0,0.0,0.0,0.0,0.0,0.0,0.0,0.0,0.0,0.0,0.0,0.0,0.0,0.0,0.0,0.0,0.0,0.0,0.0,0.0,0.0,0.0,0.0,0.0,0.0,0.0,0.0,0.0,0.0,0.0,0.0,0.0,0.0,0.0,0.0,0.0,0.0,0.0,0.0,0.0,0.0,0.0,0.0,0.0,0.0,0.0,0.0,0.0,0.0,0.0,0.0,0.0,0.0,0.0,0.0,0.0,0.0,0.0,0.0,0.0,0.0,0.0,0.0,0.0,0.0,0.0,0.0,0.0,0.0,0.0,0.0,0.0,0.0,0.0,0.0,0.0,0.0,0.0,0.0,0.0,0.0,-4.8334,0.0,-5.4975,-5.5154,-5.2994,-5.0768,0.0,0.0,0.0,0.0,0.0,0.0,0.0,0.0,0.0,0.0,0.0,0.0,0.0,0.0,0.0,0.0,0.0,0.0,0.0,0.0,0.0,0.0,0.0,0.0,0.0,0.0,0.0,0.0,0.0,0.0,0.0,0.0,0.0,0.0,0.0,0.0,0.0,0.0,0.0,0.0,0.0,0.0,0.0,0.0,0.0,0.0,0.0,0.0,0.0,0.0,0.0,0.0,0.0,0.0,0.0,0.0,0.0,0.0,0.0,0.0,0.0,0.0,0.0,0.0,0.0,0.0,0.0,0.0,0.0,0.0,0.0,0.0,0.0,0.0,0.0,0.0,0.0,0.0,0.0,0.0,0.0,0.0,0.0,0.0,0.0,0.0,0.0,0.0,0.0,0.0,0.0,0.0,0.0,0.0,0.0,0.0,0.0,0.0,0.0,0.0,0.0,0.0,0.0,0.0,0.0,0.0,0.0,0.0,-4.7461,-5.4417,-5.7858,-5.8394,-5.6273,-5.3821,-5.03,0.0,0.0,0.0,0.0,0.0,0.0,0.0,0.0,0.0,0.0,0.0,0.0,0.0,0.0,0.0,0.0,0.0,0.0,0.0,0.0,0.0,0.0,0.0,0.0,0.0,0.0,0.0,0.0,0.0,0.0,0.0,0.0,0.0,0.0,0.0,0.0,0.0,0.0,0.0,0.0,0.0,0.0,0.0,0.0,0.0,0.0,0.0,0.0,0.0,0.0,0.0,0.0,0.0,0.0,0.0,0.0,0.0,0.0,0.0,0.0,0.0,0.0,0.0,0.0,0.0,0.0,0.0,0.0,0.0,0.0,0.0,0.0,0.0,0.0,0.0,0.0,0.0,0.0,0.0,0.0,0.0,0.0,0.0,0.0,0.0,0.0,0.0,0.0,0.0,0.0,0.0,0.0,0.0,0.0,0.0,0.0,0.0,0.0,0.0,0.0,0.0,0.0,0.0,0.0,0.0,0.0,0.0,0.0,0.0,-5.0647,-5.5015,-5.7484,-5.7584,-5.387,-5.1564,0.0,0.0,0.0,0.0,0.0,0.0,0.0,0.0,0.0,0.0,0.0,0.0,0.0,0.0,0.0,0.0,0.0,0.0,0.0,0.0,0.0,0.0,0.0,0.0,0.0,0.0,0.0,0.0,0.0,0.0,0.0,0.0,0.0,0.0,0.0,0.0,0.0,0.0,0.0,0.0,0.0,0.0,0.0,0.0,0.0,0.0,0.0,0.0,0.0,0.0,0.0,0.0,0.0,0.0,0.0,0.0,0.0,0.0,0.0,0.0,0.0,0.0,0.0,0.0,0.0,0.0,0.0,0.0,0.0,0.0,0.0,0.0,0.0,0.0,0.0,0.0,0.0,0.0,0.0,0.0,0.0,0.0,0.0,0.0,0.0,0.0,0.0,0.0,0.0,0.0,0.0,0.0,0.0,0.0,0.0,0.0,0.0,0.0,0.0,0.0,0.0,0.0,0.0,0.0,0.0,0.0,0.0,0.0,0.0,-4.9895,-5.4591,-5.7064,-5.6909,-5.3347,-5.1528,-5.1533,0.0,0.0,0.0,0.0,0.0,0.0,0.0,0.0,0.0,0.0,0.0,0.0,0.0,0.0,0.0,0.0,0.0,0.0,0.0,0.0,0.0,0.0,0.0,0.0,0.0,0.0,0.0,0.0,0.0,0.0,0.0,0.0,0.0,0.0,0.0,0.0,0.0,0.0,0.0,0.0,0.0,0.0,0.0,0.0,0.0,0.0,0.0,0.0,0.0,0.0,0.0,0.0,0.0,0.0,0.0,0.0,0.0,0.0,0.0,0.0,0.0,0.0,0.0,0.0,0.0,0.0,0.0,0.0,0.0,0.0,0.0,0.0,0.0,0.0,0.0,0.0,0.0,0.0,0.0,0.0,0.0,0.0,0.0,0.0,0.0,0.0,0.0,0.0,0.0,0.0,0.0,0.0,0.0,0.0,0.0,0.0,0.0,0.0,0.0,0.0,0.0,0.0,0.0,0.0,0.0,0.0,0.0,0.0,-5.1383,-5.6026,-5.7161,-5.4595,-5.2559,-5.0522,0.0,0.0,0.0,0.0,0.0,0.0,0.0,0.0,0.0,0.0,0.0,0.0,0.0,0.0,0.0,0.0,0.0,0.0,0.0,0.0,0.0,0.0,0.0,0.0,0.0,0.0,0.0,0.0,0.0,0.0,0.0,0.0,0.0,0.0,0.0,0.0,0.0,0.0,0.0,0.0,0.0,0.0,0.0,0.0,0.0,0.0,0.0,0.0,0.0,0.0,0.0,0.0,0.0,0.0,0.0,0.0,0.0,0.0,0.0,0.0,0.0,0.0,0.0,0.0,0.0,0.0,0.0,0.0,0.0,0.0,0.0,0.0,0.0,0.0,0.0,0.0,0.0,0.0,0.0,0.0,0.0,0.0,0.0,0.0,0.0,0.0,0.0,0.0,0.0,0.0,0.0,0.0,0.0,0.0,0.0,0.0,0.0,0.0,0.0,0.0,0.0,0.0,0.0,0.0,0.0,0.0,0.0,0.0,0.0,-5.1472,-5.3442,-5.4695,-5.5115,-5.2806,-5.0988,0.0,0.0,0.0,0.0,0.0,0.0,0.0,0.0,0.0,0.0,0.0,0.0,0.0,0.0,0.0,0.0,0.0,0.0,0.0,0.0,0.0,0.0,0.0,0.0,0.0,0.0,0.0,0.0,0.0,0.0,0.0,0.0,0.0,0.0,0.0,0.0,0.0,0.0,0.0,0.0,0.0,0.0,0.0,0.0,0.0,0.0,0.0,0.0,0.0,0.0,0.0,0.0,0.0,0.0,0.0,0.0,0.0,0.0,0.0,0.0,0.0,0.0,0.0,0.0,0.0,0.0,0.0,0.0,0.0,0.0,0.0,0.0,0.0,0.0,0.0,0.0,0.0,0.0,0.0,0.0,0.0,0.0,0.0,0.0,0.0,0.0,0.0,0.0,0.0,0.0,0.0,0.0,0.0,0.0,0.0,0.0,0.0,0.0,0.0,0.0,0.0,0.0,0.0,0.0,0.0,0.0,0.0,0.0,-4.9361,-5.1936,-5.2231,-5.2608,-5.3164,-5.3118,-5.177,0.0,0.0,0.0,0.0,0.0,0.0,0.0,0.0,0.0,0.0,0.0,0.0,0.0,0.0,0.0,0.0,0.0,0.0,0.0,0.0,0.0,0.0,0.0,0.0,0.0,0.0,0.0,0.0,0.0,0.0,0.0,0.0,0.0,0.0,0.0,0.0,0.0,0.0,0.0,0.0,0.0,0.0,0.0,0.0,0.0,0.0,0.0,0.0,0.0,0.0,0.0,0.0,0.0,0.0,0.0,0.0,0.0,0.0,0.0,0.0,0.0,0.0,0.0,0.0,0.0,0.0,0.0,0.0,0.0,0.0,0.0,0.0,0.0,0.0,0.0,0.0,0.0,0.0,0.0,0.0,0.0,0.0,0.0,0.0,0.0,0.0,0.0,0.0,0.0,0.0,0.0,0.0,0.0,0.0,0.0,0.0,0.0,0.0,0.0,0.0,0.0,0.0,0.0,0.0,0.0,0.0,0.0,0.0,-4.8541,-5.2336,-5.1744,-5.0964,-5.0244,-5.3264,-5.2545,0.0,0.0,0.0,0.0,0.0,0.0,0.0,0.0,0.0,0.0,0.0,0.0,0.0,0.0,0.0,0.0,0.0,0.0,0.0,0.0,0.0,0.0,0.0,0.0,0.0,0.0,0.0,0.0,0.0,0.0,0.0,0.0,0.0,0.0,0.0,0.0,0.0,0.0,0.0,0.0,0.0,0.0,0.0,0.0,0.0,0.0,0.0,0.0,0.0,0.0,0.0,0.0,0.0,0.0,0.0,0.0,0.0,0.0,0.0,0.0,0.0,0.0,0.0,0.0,0.0,0.0,0.0,0.0,0.0,0.0,0.0,0.0,0.0,0.0,0.0,0.0,0.0,0.0,0.0,0.0,0.0,0.0,0.0,0.0,0.0,0.0,0.0,0.0,0.0,0.0,0.0,0.0,0.0,0.0,0.0,0.0,0.0,0.0,0.0,0.0,0.0,0.0,0.0,0.0,0.0,0.0,0.0,0.0,-4.7994,-5.064,-5.0574,-5.0583,-5.0818,-5.2866,-5.1731,0.0,0.0,0.0,0.0,0.0,0.0,0.0,0.0,0.0,0.0,0.0,0.0,0.0,0.0,0.0,0.0,0.0,0.0,0.0,0.0,0.0,0.0,0.0,0.0,0.0,0.0,0.0,0.0,0.0,0.0,0.0,0.0,0.0,0.0,0.0,0.0,0.0,0.0,0.0,0.0,0.0,0.0,0.0,0.0,0.0,0.0,0.0,0.0,-4.8105,0.0,0.0,0.0,0.0,0.0,0.0,0.0,0.0,0.0,0.0,0.0,0.0,0.0,0.0,0.0,0.0,0.0,0.0,0.0,0.0,0.0,0.0,0.0,0.0,0.0,0.0,0.0,0.0,0.0,0.0,0.0,0.0,0.0,0.0,0.0,0.0,0.0,0.0,0.0,0.0,0.0,0.0,0.0,0.0,0.0,0.0,0.0,0.0,0.0,0.0,0.0,0.0,0.0,0.0,0.0,0.0,0.0,0.0,0.0,-4.7749,-4.991,-5.0057,-5.0142,-5.0363,-5.213,-5.0968,0.0,0.0,0.0,0.0,0.0,0.0,0.0,0.0,0.0,0.0,0.0,0.0,0.0,0.0,0.0,0.0,0.0,0.0,0.0,0.0,0.0,0.0,0.0,0.0,0.0,0.0,0.0,0.0,0.0,0.0,0.0,0.0,0.0,0.0,0.0,0.0,0.0,0.0,0.0,0.0,0.0,0.0,0.0,0.0,0.0,0.0,0.0,0.0,0.0,0.0,0.0,0.0,0.0,0.0,0.0,0.0,0.0,0.0,0.0,0.0,0.0,0.0,0.0,0.0,0.0,0.0,0.0,0.0,0.0,0.0,0.0,0.0,0.0,0.0,0.0,0.0,0.0,0.0,0.0,0.0,0.0,0.0,0.0,0.0,0.0,0.0,0.0,0.0,0.0,0.0,0.0,0.0,0.0,0.0,0.0,0.0,0.0,0.0,0.0,0.0,0.0,0.0,0.0,0.0,0.0,0.0,0.0,-4.6126,-4.762,-4.9362,-4.9692,-4.9741,-4.9506,-5.1208,-5.0175,-4.6155,0.0,0.0,0.0,0.0,0.0,0.0,0.0,0.0,0.0,0.0,0.0,0.0,0.0,0.0,0.0,0.0,0.0,0.0,0.0,0.0,0.0,0.0,0.0,0.0,0.0,0.0,0.0,0.0,0.0,0.0,0.0,0.0,0.0,0.0,0.0,0.0,0.0,0.0,-4.5685,-5.023,0.0,0.0,0.0,0.0,0.0,0.0,0.0,0.0,-4.8732,0.0,0.0,0.0,0.0,0.0,0.0,0.0,0.0,0.0,0.0,0.0,0.0,0.0,0.0,0.0,0.0,0.0,0.0,0.0,0.0,0.0,0.0,0.0,0.0,0.0,0.0,0.0,0.0,0.0,0.0,0.0,0.0,0.0,0.0,0.0,0.0,0.0,0.0,0.0,0.0,0.0,0.0,0.0,0.0,0.0,0.0,0.0,0.0,0.0,0.0,0.0,0.0,0.0,0.0,0.0,0.0,-4.4736,-4.6505,-4.7554,-4.7806,-4.8947,-4.9518,-4.9434,-5.0119,-4.9191,-4.6595,0.0,0.0,0.0,0.0,0.0,0.0,0.0,0.0,0.0,0.0,0.0,0.0,0.0,0.0,0.0,0.0,0.0,0.0,0.0,0.0,0.0,0.0,0.0,0.0,0.0,0.0,0.0,0.0,0.0,0.0,0.0,0.0,0.0,0.0,0.0,0.0,0.0,0.0,0.0,-5.284,-5.5515,0.0,0.0,0.0,0.0,0.0,0.0,0.0,0.0,-4.7038,0.0,0.0,0.0,0.0,0.0,0.0,0.0,0.0,0.0,0.0,0.0,0.0,0.0,0.0,0.0,0.0,0.0,0.0,0.0,0.0,0.0,0.0,0.0,0.0,0.0,0.0,0.0,0.0,0.0,0.0,0.0,0.0,0.0,0.0,0.0,0.0,0.0,0.0,0.0,0.0,0.0,0.0,0.0,0.0,0.0,0.0,0.0,0.0,0.0,0.0,0.0,0.0,0.0,0.0,0.0,-4.2946,-4.5315,-4.6791,-4.7193,-4.8286,-4.8807,-4.869,-4.8458,-4.721,0.0,0.0,0.0,0.0,0.0,0.0,0.0,0.0,0.0,0.0,0.0,0.0,0.0,0.0,0.0,0.0,0.0,0.0,0.0,0.0,0.0,0.0,0.0,0.0,0.0,0.0,0.0,0.0,0.0,0.0,0.0,0.0,0.0,0.0,0.0,0.0,0.0,0.0,0.0,0.0,-5.2242,-5.3818,-5.3115,0.0,0.0,0.0,0.0,0.0,0.0,-4.7682,-4.7072,0.0,0.0,0.0,0.0,0.0,0.0,0.0,0.0,0.0,0.0,0.0,0.0,0.0,0.0,0.0,0.0,0.0,0.0,0.0,0.0,0.0,0.0,0.0,0.0,0.0,0.0,0.0,0.0,0.0,0.0,0.0,0.0,0.0,0.0,0.0,0.0,0.0,0.0,0.0,0.0,0.0,0.0,0.0,0.0,0.0,0.0,0.0,0.0,0.0,0.0,0.0,0.0,0.0,0.0,0.0,-4.1481,-4.4323,-4.6079,-4.6768,-4.7856,-4.8321,-4.7951,-4.77,-4.6308,0.0,0.0,0.0,0.0,0.0,0.0,0.0,0.0,0.0,0.0,0.0,0.0,0.0,0.0,0.0,0.0,0.0,0.0,0.0,0.0,0.0,0.0,0.0,0.0,0.0,0.0,0.0,0.0,0.0,0.0,0.0,0.0,0.0,0.0,0.0,0.0,0.0,0.0,0.0,0.0,0.0,-5.2258,-5.1419,-5.21,0.0,0.0,0.0,0.0,-4.9463,-4.8422,0.0,0.0,0.0,0.0,0.0,0.0,0.0,0.0,0.0,0.0,0.0,0.0,0.0,0.0,0.0,0.0,0.0,0.0,0.0,0.0,0.0,0.0,0.0,0.0,0.0,0.0,0.0,0.0,0.0,0.0,0.0,0.0,0.0,0.0,0.0,0.0,0.0,0.0,0.0,0.0,0.0,0.0,0.0,0.0,0.0,0.0,0.0,0.0,0.0,0.0,0.0,0.0,0.0,0.0,0.0,0.0,-4.2217,-4.5023,-4.627,-4.5979,-4.7997,-4.8642,-4.7683,-4.9611,-4.8791,0.0,0.0,0.0,0.0,0.0,0.0,0.0,0.0,0.0,0.0,0.0,0.0,0.0,0.0,0.0,0.0,0.0,0.0,0.0,0.0,0.0,0.0,0.0,0.0,0.0,0.0,0.0,0.0,0.0,0.0,0.0,0.0,0.0,0.0,0.0,0.0,0.0,0.0,0.0,0.0,0.0,-5.4125,-5.1638,-5.2412,-5.2873,0.0,0.0,-4.8675,-4.9602,-4.8466,0.0,0.0,0.0,0.0,0.0,0.0,0.0,0.0,0.0,0.0,0.0,0.0,0.0,0.0,0.0,0.0,0.0,0.0,0.0,0.0,0.0,0.0,0.0,0.0,0.0,0.0,0.0,0.0,0.0,0.0,0.0,0.0,0.0,0.0,0.0,0.0,0.0,0.0,0.0,0.0,0.0,0.0,0.0,0.0,0.0,0.0,0.0,0.0,0.0,0.0,0.0,0.0,0.0,0.0,0.0,-3.9427,-4.1068,-4.3553,-4.5077,-4.5619,-4.6975,-4.7225,-4.6157,-4.727,-4.6324,0.0,0.0,0.0,0.0,0.0,0.0,0.0,0.0,0.0,0.0,0.0,0.0,0.0,0.0,0.0,0.0,0.0,0.0,0.0,0.0,0.0,0.0,0.0,0.0,0.0,0.0,0.0,0.0,0.0,0.0,0.0,0.0,0.0,0.0,0.0,0.0,0.0,0.0,0.0,0.0,0.0,0.0,-5.2107,-5.2446,0.0,0.0,0.0,-5.0812,-5.1346,0.0,0.0,0.0,0.0,0.0,0.0,0.0,0.0,0.0,0.0,0.0,0.0,0.0,0.0,0.0,0.0,0.0,0.0,0.0,0.0,0.0,0.0,0.0,0.0,0.0,0.0,0.0,0.0,0.0,0.0,0.0,0.0,0.0,0.0,0.0,0.0,0.0,0.0,0.0,0.0,0.0,0.0,0.0,0.0,0.0,0.0,0.0,0.0,0.0,0.0,0.0,0.0,0.0,0.0,0.0,0.0,0.0,-4.0347,-4.2567,-4.4223,-4.5193,-4.6078,-4.6034,-4.5004,-4.5369,0.0,0.0,0.0,0.0,0.0,0.0,0.0,0.0,0.0,0.0,0.0,0.0,0.0,0.0,0.0,0.0,0.0,0.0,0.0,0.0,0.0,0.0,0.0,0.0,0.0,0.0,0.0,-3.5166,0.0,0.0,0.0,0.0,0.0,0.0,0.0,0.0,0.0,0.0,0.0,0.0,0.0,0.0,-5.0014,-5.2003,-5.2199,-5.2067,0.0,0.0,-5.2174,-5.1993,-5.0514,-4.8582,0.0,0.0,0.0,0.0,0.0,0.0,0.0,0.0,0.0,0.0,0.0,0.0,0.0,0.0,0.0,0.0,0.0,0.0,0.0,0.0,0.0,0.0,0.0,0.0,0.0,0.0,0.0,0.0,0.0,0.0,0.0,0.0,0.0,0.0,0.0,0.0,0.0,0.0,0.0,0.0,0.0,0.0,0.0,0.0,0.0,0.0,0.0,0.0,0.0,0.0,0.0,0.0,0.0,0.0,0.0,-4.1122,-4.3249,-4.4364,-4.4514,-4.5667,-4.5879,-4.4967,-4.5649,-4.4864,0.0,0.0,0.0,0.0,0.0,0.0,0.0,0.0,0.0,0.0,0.0,0.0,0.0,0.0,0.0,0.0,0.0,0.0,0.0,0.0,0.0,0.0,0.0,0.0,0.0,0.0,0.0,0.0,0.0,0.0,0.0,0.0,0.0,0.0,0.0,0.0,0.0,0.0,0.0,0.0,0.0,-4.8777,-5.0593,-5.1483,-5.1949,0.0,0.0,-5.0951,-5.0069,-4.9203,-4.7792,-4.5156,0.0,0.0,0.0,0.0,0.0,0.0,0.0,0.0,0.0,0.0,0.0,0.0,0.0,0.0,0.0,0.0,0.0,0.0,0.0,0.0,0.0,0.0,0.0,0.0,0.0,0.0,0.0,0.0,0.0,0.0,0.0,0.0,0.0,0.0,0.0,0.0,0.0,0.0,0.0,0.0,0.0,0.0,0.0,0.0,0.0,0.0,0.0,0.0,0.0,0.0,0.0,0.0,0.0,-3.9392,-4.0452,-4.2506,-4.3714,-4.4067,-4.4541,-4.4509,-4.4009,-4.4427,-4.3781,0.0,0.0,0.0,0.0,0.0,0.0,0.0,0.0,0.0,0.0,0.0,0.0,0.0,0.0,0.0,0.0,0.0,0.0,0.0,0.0,0.0,0.0,0.0,0.0,0.0,0.0,0.0,0.0,-3.8322,-3.8836,-3.8819,0.0,0.0,0.0,0.0,0.0,0.0,0.0,0.0,0.0,0.0,-4.9448,-5.0788,-5.1018,0.0,0.0,-5.0652,-5.0322,-5.0555,-4.9273,-4.7648,-4.5816,-4.4315,0.0,0.0,0.0,0.0,0.0,0.0,0.0,0.0,0.0,0.0,0.0,0.0,0.0,0.0,0.0,0.0,0.0,0.0,0.0,0.0,0.0,0.0,0.0,0.0,0.0,0.0,0.0,0.0,0.0,0.0,0.0,0.0,0.0,0.0,0.0,0.0,0.0,0.0,0.0,0.0,0.0,0.0,0.0,0.0,0.0,0.0,0.0,0.0,0.0,0.0,0.0,0.0,-3.9516,-4.0342,-4.2267,-4.349,-4.391,-4.3767,-4.3637,-4.3446,-4.3577,-4.2911,0.0,0.0,0.0,0.0,0.0,0.0,0.0,0.0,0.0,0.0,0.0,0.0,0.0,0.0,0.0,0.0,0.0,0.0,0.0,0.0,0.0,0.0,0.0,0.0,0.0,0.0,0.0,0.0,-3.8628,-3.8904,-3.9125,0.0,0.0,0.0,0.0,0.0,0.0,0.0,0.0,0.0,0.0,-4.9205,-5.069,-5.0711,-5.0599,-5.0798,-5.0308,-5.0011,-5.0198,-4.8989,-4.7445,-4.5805,0.0,0.0,0.0,0.0,0.0,0.0,0.0,0.0,0.0,0.0,0.0,0.0,0.0,0.0,0.0,0.0,0.0,0.0,0.0,0.0,0.0,0.0,0.0,0.0,0.0,0.0,0.0,0.0,0.0,0.0,-4.0138,0.0,0.0,0.0,0.0,0.0,0.0,0.0,0.0,0.0,0.0,0.0,0.0,0.0,0.0,0.0,0.0,0.0,0.0,0.0,0.0,0.0,0.0,-4.0305,-4.1094,-4.2876,-4.3892,-4.3974,-4.3682,-4.3548,-4.3582,-4.3376,-4.2557,-4.1139,0.0,0.0,0.0,0.0,0.0,0.0,0.0,0.0,0.0,0.0,0.0,0.0,0.0,0.0,0.0,0.0,0.0,0.0,0.0,0.0,0.0,0.0,0.0,0.0,0.0,0.0,-3.8282,-3.9244,-3.9918,0.0,0.0,0.0,0.0,0.0,0.0,0.0,0.0,0.0,0.0,-4.629,-4.7456,-5.0103,-5.0468,-5.0444,-5.0478,-5.0544,-5.0068,-4.8489,-4.7945,-4.7031,0.0,0.0,0.0,0.0,0.0,0.0,0.0,0.0,0.0,0.0,0.0,0.0,0.0,0.0,0.0,0.0,0.0,0.0,0.0,0.0,0.0,0.0,0.0,0.0,0.0,0.0,0.0,-4.387,-4.3509,0.0,0.0,0.0,0.0,0.0,0.0,0.0,0.0,0.0,0.0,0.0,-4.232,-4.2663,0.0,0.0,0.0,0.0,0.0,0.0,0.0,0.0,0.0,0.0,0.0,0.0,-4.0265,-4.1071,-4.2915,-4.3865,-4.3851,-4.3667,-4.3548,-4.3513,-4.3411,-4.2613,-4.106,0.0,0.0,0.0,0.0,0.0,0.0,0.0,0.0,0.0,0.0,0.0,0.0,0.0,0.0,0.0,0.0,0.0,0.0,0.0,0.0,0.0,0.0,0.0,0.0,0.0,-3.948,0.0,0.0,0.0,0.0,0.0,0.0,0.0,0.0,0.0,0.0,0.0,-4.5231,-4.5248,-4.7233,-4.8753,-4.8984,-4.9018,-4.8907,0.0,0.0,0.0,0.0,0.0,0.0,0.0,0.0,0.0,0.0,0.0,0.0,0.0,0.0,-4.1016,-3.958,-3.8622,-3.7811,-3.7201,0.0,0.0,0.0,0.0,0.0,0.0,0.0,0.0,0.0,0.0,0.0,0.0,0.0,0.0,-4.4871,0.0,-4.4201,0.0,0.0,0.0,0.0,0.0,0.0,0.0,0.0,-4.2758,-4.2941,-4.3369,-4.3556,-4.3271,0.0,-4.3286,-4.2158,0.0,0.0,0.0,0.0,0.0,0.0,0.0,0.0,-4.0599,-4.1364,-4.2992,-4.3818,-4.3719,-4.3634,-4.3566,-4.3479,-4.3171,-4.2287,-4.0897,-3.9257,-3.822,0.0,0.0,0.0,0.0,0.0,0.0,0.0,0.0,0.0,0.0,0.0,0.0,0.0,0.0,0.0,0.0,0.0,0.0,0.0,0.0,0.0,0.0,0.0,-3.9575,0.0,0.0,0.0,0.0,0.0,0.0,0.0,0.0,0.0,-4.225,-4.4805,-4.6385,-4.5836,-4.7715,-4.8974,-4.8455,0.0,0.0,0.0,0.0,0.0,0.0,0.0,-4.7112,-4.7638,-4.5939,-4.4322,-4.3881,-4.2916,-4.2163,-4.2291,0.0,0.0,-3.9877,-3.8942,-3.8068,-3.7434,-3.7798,-3.7886,-3.6851,-3.7012,-3.711,0.0,0.0,0.0,0.0,0.0,0.0,0.0,0.0,-4.5644,-4.5549,0.0,-4.5362,0.0,0.0,0.0,0.0,0.0,-4.1943,0.0,0.0,-4.3974,-4.4277,-4.4042,-4.426,-4.3978,-4.3394,-4.5318,-4.4848,-4.2101,-4.0542,0.0,0.0,0.0,0.0,0.0,0.0,-4.1306,-4.1937,-4.3177,-4.3753,-4.3615,-4.3532,-4.3479,-4.3461,-4.2677,-4.1718,-4.06,-4.0034,-3.9035,-3.7367,-3.7611,0.0,0.0,0.0,0.0,0.0,0.0,0.0,0.0,0.0,0.0,0.0,0.0,0.0,0.0,0.0,0.0,0.0,0.0,0.0,0.0,-3.9279,0.0,0.0,0.0,0.0,0.0,0.0,0.0,0.0,0.0,0.0,-4.4631,-4.5751,-4.6711,-4.7322,0.0,0.0,0.0,0.0,-4.7844,-4.9743,-4.9458,-4.9045,-4.8962,-4.8495,-4.7725,-4.6564,0.0,0.0,-4.2382,-4.2084,-4.1866,-4.124,-4.0918,-4.0943,-4.187,-4.0813,-3.9891,-3.9637,-3.8837,-3.8292,-3.8352,-3.791,-3.7512,-5.1687,0.0,0.0,0.0,0.0,-4.6997,-4.7437,-4.8824,-4.8094,-4.7834,-4.7861,-4.6856,0.0,0.0,0.0,0.0,0.0,0.0,-4.2796,-4.3259,-4.3564,-4.3893,-4.4296,-4.4259,-4.4128,-4.3929,-4.4462,-4.3991,-4.2677,-4.2165,-4.1288,-4.0105,0.0,0.0,0.0,0.0,-4.1522,-4.2607,-4.3458,-4.3767,-4.36,-4.3582,-4.3532,-4.3411,-4.2624,-4.2008,-4.1488,-4.0221,-3.9299,-3.8837,-3.786,0.0,0.0,0.0,0.0,0.0,0.0,0.0,0.0,0.0,0.0,0.0,0.0,0.0,0.0,0.0,0.0,0.0,0.0,0.0,-3.9069,-3.9123,-3.9035,0.0,0.0,0.0,0.0,0.0,0.0,0.0,0.0,0.0,-4.6525,-4.751,-4.7954,0.0,0.0,-4.8664,-4.8261,-4.7788,-4.7545,-4.7698,-4.8063,0.0,-4.709,-4.6952,-4.6977,-4.6891,-4.5838,-4.4511,-4.3251,-4.2471,-4.1909,-4.1261,-4.1009,-4.0893,-4.0624,-3.9974,-3.9401,-3.9062,-3.8707,-3.8292,-3.7886,-3.7149,-3.6445,-5.4834,-5.3518,-5.0722,-4.9802,-5.0155,-4.9294,-4.9467,-5.0281,-4.9538,-4.9246,-4.9177,-4.8267,-4.7166,-4.5871,-4.4156,0.0,0.0,0.0,-4.3269,-4.3844,-4.3844,-4.4023,-4.4314,-4.4244,-4.4184,-4.4116,-4.4036,-4.3776,-4.3323,-4.3019,-4.254,-4.1837,0.0,0.0,-4.1464,-4.1667,-4.2116,-4.2868,-4.3477,-4.3682,-4.3548,-4.3548,-4.3516,-4.3394,-4.2919,-4.2428,-4.1905,-4.0634,-3.9752,-3.9337,-3.85,-3.7609,0.0,0.0,0.0,0.0,0.0,0.0,0.0,0.0,0.0,0.0,0.0,-3.6627,-3.6318,0.0,0.0,0.0,-3.8824,-3.8797,-3.8625,-3.8704,0.0,0.0,0.0,0.0,0.0,0.0,0.0,-4.2302,-4.4598,-4.652,-4.7356,-4.8463,-4.9035,-4.8762,-4.8877,-4.8786,-4.8224,0.0,-4.7199,-4.7234,-4.764,-4.7623,-4.6918,-4.6667,-4.6455,-4.5985,-4.5111,-4.4229,-4.3457,-4.275,-4.2125,-4.162,-4.137,-4.1018,-4.0555,-3.991,-3.9337,-3.909,-3.859,-3.8062,-3.769,-3.6734,-3.5798,-5.7313,-5.7035,-5.419,-5.2949,-5.2837,-5.2847,-5.2196,-5.1055,-5.0325,-4.9993,-4.9947,-4.9472,-4.8844,-4.8029,-4.5694,0.0,-4.5064,-4.4207,-4.4172,-4.4702,-4.4646,-4.4495,-4.4307,-4.4202,-4.4116,-4.4005,-4.4005,-4.4005,-4.3955,-4.3367,-4.3068,-4.3069,-4.234,-4.2048,-4.2226,-4.2657,-4.2884,-4.29,-4.3376,-4.3569,-4.3479,-4.3479,-4.3463,-4.3429,-4.3376,-4.2958,-4.2032,-4.116,-4.0255,-3.9265,-3.9352,-3.9022,-3.8063,0.0,0.0,0.0,0.0,0.0,0.0,0.0,0.0,0.0,0.0,0.0,0.0,0.0,0.0,0.0,-3.9055,0.0,-3.8678,-3.8446,0.0,0.0,0.0,-4.0404,-4.1385,-4.3379,-4.4754,-4.4995,0.0,0.0,-4.755,-4.8684,-4.9769,-5.0293,-4.9517,-4.8712,-4.8309,-4.7249,-4.6824,-4.7614,-4.7657,-4.7581,-4.7302,-4.6819,-4.59,-4.4516,-4.3805,-4.3498,-4.3162,-4.2759,-4.2429,-4.2045,-4.1638,-4.1189,-4.1117,-4.037,-3.9793,-3.9376,-3.8614,-3.7942,-3.7696,-3.6896,-3.5899,-5.7608,-5.7045,-5.5638,-5.4368,-5.3128,-5.2649,-5.2281,-5.1924,-5.1216,-5.0884,-5.0808,-4.9492,-4.8477,-4.7713,-4.7057,-4.6787,-4.6787,-4.6625,-4.6523,-4.6422,-4.5745,-4.5348,-4.5151,-4.4395,-4.4036,-4.4005,-4.4005,-4.4005,-4.4005,-4.3841,-4.3802,-4.3889,-4.3724,-4.3423,-4.2965,-4.3066,-4.3288,-4.364,-4.3774,-4.3743,-4.3497,-4.3479,-4.3497,-4.3463,-4.3411,-4.3249,-4.2887,-4.145,-4.0526,-4.0113,-3.9552,-3.8627,-3.7394,-3.6783,0.0,0.0,0.0,0.0,0.0,0.0,0.0,0.0,0.0,-3.5698,-3.4192,0.0,-3.663,0.0,-3.8841,-4.0491,-4.0807,-4.0895,0.0,0.0,-4.0998,-4.1383,-4.2255,-4.4006,-4.5115,-4.5017,-4.6607,-4.7782,-4.7775,-4.8571,-4.9309,-4.9782,-4.9059,-4.8367,-4.8158,-4.7215,-4.6484,-4.6532,-4.6319,-4.6055,-4.5887,-4.5405,-4.4862,-4.4222,-4.373,-4.3328,-4.3007,-4.2555,-4.2109,-4.1801,-4.1421,-4.1034,-4.0715,-3.9849,-3.9252,-3.8973,-3.8916,-3.8809,-3.8208,-3.7447,-3.6606,-5.8121,-5.7659,-5.6838,-5.5992,-5.5197,-5.3937,-5.3013,-5.2323,-5.1897,-5.1319,-5.0561,-4.9686,-4.9029,-4.858,-4.8188,-4.7991,-4.7946,-4.7612,-4.7292,-4.7024,-4.6139,-4.56,-4.5357,-4.4457,-4.4005,-4.4005,-4.4005,-4.4005,-4.4005,-4.4005,-4.3999,-4.4066,-4.4085,-4.3889,-4.3517,-4.3607,-4.3743,-4.4014,-4.3913,-4.3719,-4.3465,-4.3481,-4.3339,-4.3069,-4.2976,-4.2788,-4.2537,-4.1235,-4.0435,-4.0317,-3.9864,-3.9204,-3.8362,-3.7652,-3.6874,0.0,0.0,0.0,0.0,0.0,0.0,0.0,0.0,0.0,0.0,0.0,-3.7253,-3.7559,-3.9732,-4.105,-4.0983,-4.137,-4.1717,-4.2038,-4.2706,-4.3488,-4.4365,-4.6011,-4.697,-4.6627,-4.7758,-4.8327,-4.7876,-4.8417,-4.8942,-4.9048,-4.8601,-4.8269,-4.8075,-4.703,-4.6151,-4.592,-4.5699,-4.5423,-4.514,-4.4869,-4.4418,-4.3736,-4.3307,-4.293,-4.2201,-4.1723,-4.1337,-4.0992,-4.0876,-4.0657,-3.9962,-3.9533,-3.9093,-3.8645,-3.8467,-3.8165,-3.7272,-3.6864,-3.6285,-5.8678,-5.854,-5.7648,-5.7416,-5.7453,-5.5616,-5.4137,-5.301,-5.2802,-5.1735,-5.0127,-4.9993,-4.9879,-4.986,-4.9105,-4.8783,-4.878,-4.8007,-4.755,-4.7314,-4.6346,-4.5739,-4.5481,-4.4482,-4.4005,-4.4005,-4.4005,-4.4005,-4.4005,-4.4005,-4.3998,-4.3911,-4.3896,-4.3976,-4.4083,-4.4224,-4.4263,-4.4156,-4.3942,-4.3643,-4.3323,-4.3269,-4.2939,-4.2444,-4.236,-4.2133,-4.1674,-4.0822,-4.0289,-4.022,-4.0202,-4.0132,-3.9901,-3.8826,-3.8495,0.0,-3.733,0.0,0.0,0.0,0.0,0.0,0.0,0.0,0.0,-3.8238,-3.8669,-4.0188,-4.1198,-4.1442,-4.0857,-4.1428,-4.231,-4.3312,-4.4649,-4.5925,-4.6999,-4.8429,-4.9203,-4.8802,-4.9205,-4.9029,-4.7829,-4.8197,-4.8518,-4.8365,-4.8242,-4.812,-4.8085,-4.6952,-4.591,-4.5615,-4.5476,-4.5318,-4.5032,-4.4886,-4.4461,-4.3423,-4.313,-4.2526,-4.1566,-4.1183,-4.0848,-4.0347,-4.0452,-4.0243,-3.92,-3.9203,-3.8949,-3.8198,-3.7721,-3.7073,-3.6182,-3.5941,-3.5394,-5.9129,-5.8616,-5.7667,-5.6992,-5.6406,-5.5333,-5.5446,-5.6292,-5.4932,-5.3248,-5.1318,-5.0336,-4.9879,-4.9879,-4.9728,-4.9652,-4.9652,-4.95,-4.9362,-4.924,-4.7513,-4.6671,-4.6494,-4.4805,-4.4005,-4.4005,-4.4005,-4.4005,-4.4005,-4.4005,-4.3974,-4.3962,-4.3962,-4.4325,-4.4929,0.0,0.0,0.0,-4.396,-4.3544,-4.2842,-4.2324,-4.2062,-4.1937,-4.1864,0.0,-4.1674,-4.0822,-4.0297,-4.0289,-4.0202,0.0,0.0,0.0,0.0,0.0,0.0,0.0,0.0,0.0,0.0,0.0,-3.7738,-3.7262,-3.7326,-3.818,-3.9612,-4.1615,-4.2129,-4.2779,-4.3844,-4.4275,-4.4889,-4.5812,-4.6284,-4.7101,-4.8603,-4.9218,-4.9414,-4.9362,-4.896,-4.8398,-4.7606,-4.7588,-4.7854,-4.8138,-4.7788,-4.7579,-4.7906,-4.7124,-4.629,-4.5631,-4.5371,-4.5194,-4.5049,-4.4886,-4.4614,-4.4011,-4.3747,-4.3339,-4.2676,-4.2313,-4.1843,-4.0956,-4.0737,-4.0276,-3.9408,-3.8508,-3.7843,-3.7434,-3.7076,-3.6761,-3.6461,-3.6168,-3.5583,-5.9346,0.0,-5.8186,-5.7635,0.0,-5.613,-5.6348,-5.7153,-5.4669,-5.2545,-5.0775,-5.0156,-4.9879,-4.9917,-5.0128,-5.0258,-5.0277,-5.0454,-5.0322,-4.9909,-4.8646,-4.7847,-4.7404,-4.5979,-4.5134,-4.4699,-4.4668,-4.4636,-4.4618,-4.4209,-4.4354,-4.5059,-4.4693,-4.4854,-4.5521,-4.5954,-4.5809,-4.5114,-4.4641,-4.4144,-4.3556,-4.2835,-4.2342,-4.1997,-4.1973,0.0,0.0,0.0,0.0,0.0,0.0,0.0,0.0,0.0,0.0,-4.0446,-3.9684,-3.9382,-3.9708,-3.9312,-3.914,-3.9473,-3.9873,-3.9775,-3.9119,-4.0713,-4.2228,-4.3337,-4.3574,-4.3968,-4.4725,-4.4978,-4.5277,-4.5851,-4.6756,-4.7713,-4.8588,-4.9256,-4.9415,-4.9013,-4.8399,-4.7678,-4.6823,-4.675,-4.7,-4.7474,-4.7317,-4.7126,-4.7155,-4.6653,-4.5996,-4.5492,-4.5371,-4.5247,-4.514,-4.4995,-4.4606,-4.3889,-4.3545,-4.2866,-4.174,-4.1347,-4.082,-3.9831,-3.9606,-3.9313,-3.8419,-3.7919,-3.759,-3.695,-3.6394,-3.6013,-3.5961,-3.6117,-3.5854,-5.9507,-5.8798,-5.8584,-5.815,-5.7559,-5.6732,-5.6423,-5.6236,0.0,0.0,0.0,-4.9984,-4.9879,-4.9936,-5.0293,-5.0472,-5.0529,-5.0804,-5.0664,-5.0094,-4.9323,-4.8595,-4.7959,-4.6937,-4.6147,-4.5587,-4.5393,-4.5361,-4.5421,-4.4605,-4.4767,-4.5798,-4.5266,-4.5363,-4.6104,-4.6892,-4.7028,-4.6535,-4.5549,-4.4762,-4.4269,-4.3394,-4.2673,-4.2074,-4.2074,-4.1888,-4.1525,-4.1481,-4.1472,-4.1436,-4.1391,-4.1328,-4.1111,-4.099,-4.0879,-4.0849,-4.0642,-4.0631,-4.0754,-4.0624,-4.0661,-4.0815,-4.1848,-4.2257,-4.1727,-4.3463,-4.457,-4.457,-4.4682,-4.4776,-4.4776,-4.4923,-4.5083,-4.5365,-4.6771,-4.7765,-4.8118,-4.8854,-4.91,-4.8364,-4.7732,-4.6998,-4.618,-4.6108,-4.6269,-4.6691,-4.6777,-4.6655,-4.6374,-4.5925,-4.5598,-4.5371,-4.53,-4.53,-4.514,-4.5032,-4.4541,-4.3659,-4.3239,-4.2355,-4.0852,-4.0124,-3.9462,-3.8579,-3.8547,-3.8296,-3.74,-3.7513,-3.753,-3.6708,-3.6006,-3.5415,-3.5273,-3.5917,-3.5846,-5.9581,-5.8741,-5.8041,-5.7229,-5.6393,-5.5583,-5.4436,-5.3112,-5.2962,-5.2357,-5.1381,-5.0374,-4.9879,-4.9898,-4.992,-4.9958,-5.0014,-5.0014,-4.9956,-4.9805,-4.887,-4.8288,-4.7997,-4.6365,-4.5829,-4.6267,-4.5639,-4.5607,-4.6023,-4.5338,-4.4979,-4.5013,-4.4867,-4.555,-4.6893,-4.7697,-4.8004,-4.7889,-4.6059,-4.466,-4.3808,-4.2567,-4.1821,-4.163,-4.1613,-4.1569,-4.1481,-4.1525,-4.1455,-4.1436,-4.1391,-4.1463,-4.1561,-4.1418,-4.1436,-4.1754,-4.1471,-4.1476,-4.1881,-4.1739,-4.2006,-4.2864,-4.3149,-4.3196,-4.3175,-4.4007,-4.457,-4.457,-4.4643,-4.4643,-4.4626,-4.4831,-4.5272,-4.6,-4.6598,-4.7228,-4.7961,-4.833,-4.826,-4.756,-4.7315,-4.693,-4.613,-4.5922,-4.6099,-4.6551,-4.6273,-4.5788,-4.57,-4.551,-4.5388,-4.5247,-4.5247,-4.514,-4.4923,-4.4831,-4.4584,-4.4232,-4.344,-4.2662,-4.1865,-4.1083,-4.0237,-3.9172,-3.8873,-3.846,-3.7622,-3.7228,-3.7063,-3.6739,-3.6226,-3.5703,-3.5198,-3.5472,-3.5325,-5.9395,-5.8253,-5.7777,-5.6835,-5.5531,-5.4696,-5.3594,-5.239,-5.2062,-5.1443,-5.0711,-5.0146,-4.9879,-4.9909,-5.0059,-5.0146,-5.0176,-5.0361,-5.0291,-4.9971,-4.9565,-4.9152,-4.8709,-4.7916,-4.7396,-4.7192,-4.6806,-4.6758,-4.686,-4.5712,-4.5445,-4.6083,-4.6066,-4.6434,-4.7075,-4.7842,-4.8187,-4.8151,-4.6309,-4.5152,-4.4672,-4.3242,-4.2396,-4.2279,-4.2262,-4.2262,-4.2279,-4.2216,-4.2133,-4.2044,-4.2019,-4.2019,-4.2002,-4.1805,-4.1815,-4.1962,-4.1728,-4.1538,-4.1596,-4.1572,-4.192,-4.2709,-4.3254,-4.3749,-4.4028,-4.4384,-4.4643,-4.4682,-4.4626,-4.457,-4.457,-4.4776,-4.5077,-4.5549,-4.6232,-4.6861,-4.7316,-4.7596,-4.7543,-4.7211,-4.6792,-4.6374,-4.5974,-4.5821,-4.5822,-4.5995,-4.5649,-4.5476,-4.5423,-4.5441,-4.5371,-4.523,-4.5177,-4.514,-4.4906,-4.4473,-4.416,-4.3872,-4.306,-4.2161,-4.1515,-4.0769,-4.0018,-3.9039,-3.8647,-3.8286,-3.7583,-3.7314,-3.7074,-3.6723,-3.6352,-3.5846,-3.5439,-3.5185,-3.4698,-5.9283,-5.7796,-5.7701,-5.6664,-5.5037,-5.4154,-5.3253,-5.2362,-5.1471,-5.0601,-4.9928,-4.9871,-4.9871,-4.99,-5.0146,-5.0252,-5.0282,-5.054,-5.0395,-5.0045,-5.0056,-4.9791,-4.9262,-4.9108,-4.8688,-4.8062,-4.7809,-4.7726,-4.7622,-4.6292,-4.6039,-4.6893,-4.6709,-4.6673,-4.6874,-4.7366,-4.7657,-4.7508,-4.6116,-4.5362,-4.5449,-4.3922,-4.3049,-4.2938,-4.29,-4.29,-4.29,-4.286,-4.2745,-4.2609,-4.2526,-4.2463,-4.2287,-4.2115,-4.2005,-4.1962,-4.1754,-4.1513,-4.1388,-4.1812,-4.221,-4.2543,-4.343,-4.4126,-4.4597,-4.4643,-4.4626,-4.4737,-4.4682,-4.457,-4.4626,-4.4737,-4.4831,-4.5012,-4.5763,-4.6251,-4.6463,-4.6673,-4.6812,-4.6742,-4.6288,-4.5906,-4.577,-4.5718,-4.565,-4.5511,-4.5441,-4.5441,-4.5441,-4.5441,-4.5336,-4.5005,-4.5056,-4.4966,-4.4773,-4.415,-4.3562,-4.3179,-4.2303,-4.141,-4.0586,-4.0061,-3.938,-3.861,-3.8327,-3.8024,-3.7626,-3.7417,-3.7254,-3.6846,-3.6414,-3.5897,-3.5319,-3.4669,-3.4332,-5.945,-5.7938,-5.7813,-5.6813,-5.5075,-5.4154,-5.3281,-5.2362,-5.1519,-5.0657,-4.9872,-4.9807,-4.9807,-4.9825,-4.9787,-4.9766,-4.9766,-4.9621,-4.9527,-4.9502,-4.9496,-4.9332,-4.9094,-4.8533,-4.8399,-4.8542,-4.8039,-4.7972,-4.8274,-4.7463,-4.6727,-4.603,-4.5296,-4.5351,-4.5957,-4.6029,-4.6009,-4.5804,-4.4907,-4.4796,-4.5358,-4.394,-4.3031,-4.29,-4.29,-4.29,-4.2955,-4.286,-4.2745,-4.2609,-4.2544,-4.2445,-4.2287,-4.2115,-4.2005,-4.2005,-4.1754,-4.1723,-4.2146,-4.3318,-4.3734,-4.3605,-4.4147,-4.464,-4.4759,-4.4682,-4.457,-4.4626,-4.4643,-4.4626,-4.4626,-4.472,-4.4886,-4.4978,-4.5243,-4.5404,-4.5579,-4.5684,-4.5719,-4.5736,-4.5754,-4.5615,-4.5615,-4.5528,-4.5476,-4.5441,-4.5441,-4.5371,-4.5371,-4.5371,-4.506,-4.4436,-4.457,-4.4602,-4.3997,-4.363,-4.3031,-4.2311,-4.1476,-4.0775,-4.0275,-3.955,-3.8815,-3.8641,-3.8278,-3.8107,-3.7817,-3.7508,-3.7314,-3.7013,-3.6461,-3.5793,-3.4678,-3.4015,-3.3833,-5.901,-5.7894,-5.7332,-5.6382,-5.5111,-5.4237,-5.3337,-5.2399,-5.1481,-5.0638,-4.99,-4.9778,-4.9769,-4.975,-4.9721,-4.9663,-4.9634,-4.9532,-4.9402,-4.9352,-4.9352,-4.9262,-4.9098,-4.8747,-4.868,-4.875,-4.8398,-4.8328,-4.8292,-4.7592,-4.6526,-4.5369,-4.5296,-4.5333,-4.5169,-4.5497,-4.5603,-4.5526,-4.4629,-4.4354,-4.4499,-4.3574,-4.2938,-4.2936,-4.3335,-4.3607,-4.3607,-4.3469,-4.335,-4.3274,-4.2718,-4.2364,-4.2287,-4.2115,-4.2005,-4.1945,-4.1604,-4.1411,-4.1561,-4.2272,-4.2775,-4.2923,-4.3795,-4.4354,-4.4686,-4.4831,-4.4886,-4.4626,-4.4682,-4.4737,-4.4737,-4.494,-4.5086,-4.5123,-4.5247,-4.5353,-4.5371,-4.5511,-4.5563,-4.5563,-4.5563,-4.5581,-4.5563,-4.5476,-4.5423,-4.5441,-4.5441,-4.5371,-4.5283,-4.53,-4.4868,-4.4107,-4.4051,-4.3827,-4.3037,-4.2407,-4.198,-4.1555,-4.0791,-4.011,-3.9884,-3.9358,-3.8766,-3.8655,-3.8448,-3.8221,-3.8065,-3.7817,-3.7626,-3.71,-3.6182,-3.5216,-3.4023,-3.3809,-3.3971,-5.8585,-5.759,-5.6652,-5.5873,-5.5145,-5.4264,-5.3373,-5.2455,-5.1481,-5.0619,-4.9909,-4.9788,-4.9721,-4.9663,-4.9663,-4.9634,-4.9582,-4.9471,-4.939,-4.9289,-4.9276,-4.9216,-4.9083,-4.8978,-4.8874,-4.8732,-4.8623,-4.8514,-4.8346,-4.7554,-4.6507,-4.5553,-4.5516,-4.526,-4.4693,-4.493,-4.4965,-4.4776,-4.4155,-4.3808,-4.3715,-4.3407,-4.3226,-4.3281,-4.3731,-4.4038,-4.4095,-4.3876,-4.3665,-4.3472,-4.2655,-4.2246,-4.2246,-4.2072,-4.1902,-4.1815,-4.1471,-4.1198,-4.1111,-4.1498,-4.1988,-4.2637,-4.344,-4.4156,-4.4606,-4.494,-4.494,-4.472,-4.4737,-4.4776,-4.4831,-4.5032,-4.5123,-4.5177,-4.53,-4.5353,-4.5406,-4.5476,-4.5528,-4.5528,-4.5528,-4.5528,-4.5511,-4.5476,-4.5441,-4.5441,-4.5423,-4.5233,-4.4989,-4.4816,-4.4418,-4.3265,-4.3025,-4.2768,-4.2102,-4.1677,-4.1204,-4.0676,-4.01,-3.9761,-3.9556,-3.9077,-3.8805,-3.8655,-3.8544,-3.8359,-3.81,-3.7927,-3.7387,-3.6711,-3.5742,-3.4606,-3.3563,-3.3649,-3.3627,-5.8457,-5.6822,-5.5855,-5.537,-5.5126,-5.4329,-5.3373,-5.2436,-5.1594,-5.0676,-4.9891,-4.989,-4.9788,-4.9623,-4.9604,-4.9563,-4.949,-4.939,-4.9308,-4.9289,-4.9244,-4.9164,-4.9101,-4.9012,-4.8837,-4.866,-4.8587,-4.8495,-4.8251,-4.7553,-4.7095,-4.6874,-4.5608,-4.4784,-4.4583,-4.4017,-4.3451,-4.3432,-4.3285,-4.3102,-4.3101,-4.3643,-4.3932,-4.3987,-4.3999,-4.4053,-4.4056,-4.376,-4.335,-4.2699,-4.2323,-4.2103,-4.2103,-4.1909,-4.1692,-4.1471,-4.1426,-4.1307,-4.1227,-4.1756,-4.2319,-4.2877,-4.358,-4.4351,-4.4838,-4.4923,-4.4886,-4.4776,-4.4831,-4.4831,-4.4831,-4.4978,-4.5086,-4.5194,-4.523,-4.53,-4.5371,-4.5423,-4.5441,-4.5423,-4.5423,-4.5441,-4.5423,-4.5423,-4.5337,-4.5337,-4.5372,-4.5043,-4.4319,-4.406,-4.3304,-4.2159,-4.1545,-4.134,-4.1273,-4.1085,-4.0695,-4.0305,-3.9897,-3.9573,-3.9239,-3.8969,-3.8821,-3.8711,-3.8672,-3.8455,-3.8149,-3.7536,-3.6685,-3.5868,-3.4847,-3.3844,-3.3076,-3.2765,-3.2796,-5.7561,-5.5892,-5.5524,-5.5377,-5.5275,-5.4897,-5.3903,-5.2574,-5.2208,-5.1214,-5.0022,-4.9843,-4.9778,-4.9663,-4.9604,-4.9563,-4.9509,-4.9459,-4.939,-4.9308,-4.9211,-4.9113,-4.8962,-4.882,-4.8697,-4.855,-4.8476,-4.8382,-4.8288,-4.7994,-4.7589,-4.7036,-4.6487,-4.5845,-4.5165,-4.4362,-4.3887,-4.3701,-4.3284,-4.2938,-4.2938,-4.3172,-4.3552,-4.4095,-4.4545,-4.4542,-4.4072,-4.3836,-4.3571,-4.3266,-4.2495,-4.2086,-4.2061,-4.1909,-4.1692,-4.1426,-4.1426,-4.129,-4.1209,-4.1674,-4.2253,-4.2757,-4.3545,-4.4228,-4.477,-4.4978,-4.5032,-4.4978,-4.5121,-4.5157,-4.5086,-4.5086,-4.5194,-4.53,-4.5318,-4.5353,-4.5371,-4.5441,-4.5441,-4.5441,-4.5441,-4.5441,-4.5337,-4.501,-4.4716,-4.4647,-4.4302,-4.3855,-4.3443,-4.322,-4.2619,-4.156,-4.1118,-4.0845,-4.0271,-4.0425,-4.0324,-4.0035,-3.9729,-3.9642,-3.9362,-3.9077,-3.8914,-3.886,-3.8766,-3.859,-3.827,-3.7729,-3.6662,-3.4951,-3.3979,-3.3434,-3.2528,-3.2475,-3.248,-5.6597,-5.5528,-5.539,-5.5377,-5.5275,-5.4917,-5.3949,-5.2593,-5.2227,-5.1261,-5.005,-4.9843,-4.9778,-4.9692,-4.9653,-4.9563,-4.9509,-4.9509,-4.9459,-4.9308,-4.9244,-4.9113,-4.8909,-4.875,-4.8624,-4.8494,-4.8344,-4.8324,-4.8324,-4.8324,-4.8011,-4.7457,-4.7145,-4.6684,-4.5893,-4.4869,-4.4247,-4.4064,-4.359,-4.319,-4.2991,-4.3425,-4.3625,-4.3785,-4.4455,-4.4614,-4.401,-4.3814,-4.353,-4.3202,-4.2489,-4.2037,-4.1934,-4.1823,-4.1771,-4.174,-4.1747,-4.1795,-4.1886,-4.221,-4.2599,-4.3117,-4.3665,-4.4245,-4.4821,-4.5032,-4.5086,-4.5086,-4.5157,-4.5247,-4.5247,-4.5177,-4.5247,-4.5371,-4.5441,-4.5441,-4.5441,-4.5441,-4.5441,-4.5389,-4.5165,-4.5165,-4.5285,-4.4716,-4.4389,-4.4285,-4.3647,-4.3029,-4.2518,-4.2227,-4.1834,-4.0914,-4.0591,-4.0372,-4.0086,-4.0138,-4.0189,-3.9918,-3.9729,-3.9642,-3.9484,-3.9239,-3.9077,-3.9023,-3.8865,-3.8635,-3.8251,-3.7762,-3.6334,-3.4486,-3.3748,-3.3277,-3.2691,-3.2319,-3.2282,-5.5608,-5.5499,-5.5415,-5.5281,-5.5012,-5.4329,-5.3411,-5.2406,-5.164,-5.0816,-4.9982,-4.9898,-4.9816,-4.9721,-4.9711,-4.9623,-4.9539,-4.9509,-4.944,-4.9308,-4.9257,-4.9146,-4.8909,-4.8787,-4.8624,-4.8457,-4.8363,-4.8324,-4.8324,-4.8267,-4.8231,-4.8102,-4.7419,-4.7031,-4.698,-4.5308,-4.4376,-4.4356,-4.4116,-4.3625,-4.319,-4.4313,-4.4364,-4.331,-4.3722,-4.4047,-4.3992,-4.3655,-4.3173,-4.2583,-4.221,-4.1902,-4.1692,-4.1648,-4.1876,-4.2265,-4.2399,-4.2675,-4.3152,-4.316,-4.3424,-4.3838,-4.4095,-4.449,-4.4986,-4.5086,-4.5069,-4.5194,-4.514,-4.5069,-4.5108,-4.5127,-4.518,-4.5353,-4.5285,-4.5285,-4.5251,-4.5372,-4.5406,-4.5268,-4.4872,-4.4699,-4.501,-4.463,-4.4113,-4.382,-4.3236,-4.2364,-4.1597,-4.1239,-4.071,-4.0187,-3.9966,-3.9897,-3.9951,-3.9986,-3.9918,-3.985,-3.9729,-3.9642,-3.9484,-3.9255,-3.9148,-3.9094,-3.9023,-3.8745,-3.7622,-3.7019,-3.6053,-3.4517,-3.3904,-3.317,-3.2675,-3.222,-3.2019,-5.5551,-5.5504,-5.5427,-5.4982,-5.439,-5.4123,-5.3194,-5.1775,-5.1425,-5.0829,-5.0073,-4.9925,-4.9816,-4.9721,-4.9692,-4.9623,-4.949,-4.9509,-4.9478,-4.9409,-4.9211,-4.9027,-4.8909,-4.8679,-4.8513,-4.8401,-4.8306,-4.8324,-4.8286,-4.8247,-4.8226,-4.8017,-4.7791,-4.7561,-4.7375,-4.5878,-4.5204,-4.5566,-4.4116,-4.3625,-4.4367,-4.4476,-4.4476,-4.4527,-4.4115,-4.3854,-4.3836,-4.3189,-4.2673,-4.2405,-4.2181,-4.1952,-4.178,-4.1648,-4.1638,-4.1684,-4.2114,-4.2302,-4.2521,-4.3404,-4.3941,-4.4165,-4.4507,-4.4902,-4.5142,-4.5142,-4.5125,-4.5266,-4.53,-4.5146,-4.4699,-4.4578,-4.4561,-4.463,-4.463,-4.444,-4.4199,-4.4371,-4.4596,-4.4682,-4.4872,-4.4958,-4.4578,-4.3941,-4.3253,-4.2687,-4.1884,-4.1052,-4.0747,-4.0408,-4.0152,-3.9815,-3.9677,-3.9493,-3.9496,-3.943,-3.9362,-3.9462,-3.951,-3.9406,-3.9282,-3.9325,-3.9272,-3.9164,-3.9077,-3.8466,-3.7346,-3.6427,-3.5588,-3.4555,-3.374,-3.3029,-3.2435,-3.2135,-3.1996,-5.5551,-5.5466,-5.5107,-5.4606,-5.3932,-5.3417,-5.2469,-5.1376,-5.0995,-5.0525,-5.0035,-4.9952,-4.9871,-4.975,-4.9721,-4.9653,-4.9551,-4.9521,-4.9509,-4.9478,-4.9313,-4.9079,-4.8909,-4.8642,-4.8419,-4.8324,-4.8324,-4.8324,-4.8324,-4.8247,-4.8169,-4.809,-4.7988,-4.7888,-4.7715,-4.6509,-4.6033,-4.6255,-4.5095,-4.444,-4.4784,-4.4947,-4.4947,-4.4795,-4.4435,-4.4101,-4.3773,-4.3166,-4.2691,-4.2358,-4.2181,-4.1952,-4.1736,-4.1648,-4.162,-4.1852,-4.2143,-4.2402,-4.2604,-4.337,-4.3993,-4.413,-4.425,-4.4473,-4.461,-4.4576,-4.4405,-4.4527,-4.4544,-4.4389,-4.3924,-4.3871,-4.3768,-4.339,-4.3716,-4.3751,-4.3646,-4.3784,-4.4199,-4.4509,-4.4647,-4.4492,-4.4148,-4.3201,-4.243,-4.1746,-4.0964,-4.0288,-4.017,-3.98,-3.9564,-3.921,-3.884,-3.8791,-3.8959,-3.8875,-3.874,-3.894,-3.9172,-3.9087,-3.8966,-3.9193,-3.9272,-3.9218,-3.9148,-3.8499,-3.7405,-3.6734,-3.5947,-3.4777,-3.3505,-3.3006,-3.2468,-3.2247,-3.2094,-5.5535,-5.5331,-5.4551,-5.4052,-5.3582,-5.2177,-5.144,-5.1095,-5.0404,-5.0035,-4.9933,-4.9933,-4.9822,-4.9712,-4.9514,-4.9389,-4.9424,-4.9333,-4.9302,-4.9309,-4.9352,-4.923,-4.8855,-4.8642,-4.8438,-4.8324,-4.8324,-4.8306,-4.8286,-4.8229,-4.8247,-4.8148,-4.8028,-4.797,-4.7725,-4.6966,-4.6545,-4.6731,-4.64,-4.549,-4.4584,-4.5635,-4.5793,-4.4426,-4.4772,-4.4707,-4.4103,-4.3638,-4.3054,-4.2371,-4.2115,-4.1937,-4.1763,-4.1639,-4.1938,-4.2559,-4.2486,-4.2723,-4.3148,-4.3229,-4.3459,-4.3838,-4.3512,-4.3186,-4.389,-4.3597,-4.3288,-4.344,-4.3406,-4.3217,-4.3064,-4.3183,-4.2856,-4.2154,-4.2684,-4.3268,-4.3974,-4.356,-4.3785,-4.4475,-4.4096,-4.3321,-4.3735,-4.2534,-4.1884,-4.1322,-4.0743,-4.0136,-3.9901,-3.9446,-3.8891,-3.8539,-3.8305,-3.8154,-3.8287,-3.8187,-3.8121,-3.8202,-3.8567,-3.8764,-3.8662,-3.8907,-3.897,-3.895,-3.8747,-3.815,-3.7373,-3.6476,-3.554,-3.4311,-3.3419,-3.2921,-3.2594,-3.2373,-3.215,-5.525,-5.4603,-5.4392,-5.347,-5.2234,-5.1612,-5.1047,-5.0444,-5.0145,-5.0005,-4.9978,-4.9933,-4.953,-4.8834,-4.8806,-4.8361,-4.8085,-4.8375,-4.8521,-4.8571,-4.9115,-4.9075,-4.8731,-4.8605,-4.8458,-4.8306,-4.8324,-4.8286,-4.8226,-4.8111,-4.805,-4.7984,-4.7866,-4.7783,-4.7614,-4.6962,-4.6866,-4.7161,-4.6182,-4.5798,-4.587,-4.6042,-4.6181,-4.5833,-4.5702,-4.5556,-4.5208,-4.4132,-4.3084,-4.2252,-4.2055,-4.2184,-4.237,-4.193,-4.1893,-4.2415,-4.2422,-4.2302,-4.2531,-4.2768,-4.3081,-4.3355,-4.3131,-4.3183,-4.3373,-4.3184,-4.3064,-4.3131,-4.3114,-4.2788,-4.2494,-4.2785,-4.2681,-4.2181,-4.2216,-4.2457,-4.2681,-4.2975,-4.3371,-4.3528,-4.3305,-4.2877,-4.2364,-4.1886,-4.1222,-4.0544,-3.9884,-3.9278,-3.9261,-3.8539,-3.7769,-3.8187,-3.8087,-3.7769,-3.7568,-3.7519,-3.7453,-3.7468,-3.7845,-3.8454,-3.8438,-3.85,-3.8364,-3.8196,-3.7781,-3.7241,-3.6344,-3.5421,-3.4505,-3.3862,-3.3347,-3.2881,-3.2648,-3.2373,-3.2206,-5.5222,-5.4303,-5.3916,-5.2924,-5.1577,-5.1103,-5.059,-5.0139,-5.0031,-4.9978,-4.9959,-4.9952,-4.9614,-4.9069,-4.8985,-4.8428,-4.772,-4.7999,-4.7977,-4.7777,-4.839,-4.8688,-4.8639,-4.8623,-4.8495,-4.8286,-4.8247,-4.8208,-4.813,-4.8032,-4.797,-4.7902,-4.7801,-4.7759,-4.7681,-4.7301,-4.7011,-4.7029,-4.6214,-4.5816,-4.5526,-4.573,-4.5562,-4.5467,-4.539,-4.5387,-4.4818,-4.3668,-4.2668,-4.2186,-4.2048,-4.2114,-4.2282,-4.1912,-4.1788,-4.2181,-4.1952,-4.1747,-4.1834,-4.2006,-4.227,-4.2509,-4.2457,-4.2423,-4.246,-4.2291,-4.2068,-4.1999,-4.2018,-4.1827,-4.157,-4.1793,-4.1859,-4.163,-4.1753,-4.1926,-4.1974,-4.2388,-4.2802,-4.2875,-4.2721,-4.2294,-4.1646,-4.1239,-4.0544,-3.98,-3.9244,-3.8891,-3.8573,-3.7519,-3.6953,-3.7386,-3.7219,-3.6651,-3.6482,-3.6451,-3.6622,-3.6687,-3.6979,-3.7597,-3.783,-3.7847,-3.7617,-3.7232,-3.6836,-3.6323,-3.5513,-3.4852,-3.4377,-3.3805,-3.3307,-3.2951,-3.2773,-3.2468,-3.2302,-5.5054,-5.4038,-5.3226,-5.2353,-5.1419,-5.0525,-5.0165,-5.0082,-5.0012,-4.9952,-4.9925,-4.9978,-4.9754,-4.9738,-4.9278,-4.8994,-4.8145,-4.8141,-4.78,-4.759,-4.7741,-4.8017,-4.8266,-4.8567,-4.8476,-4.8304,-4.8226,-4.802,-4.7886,-4.7864,-4.7856,-4.7738,-4.7733,-4.7819,-4.7645,-4.7536,-4.7156,-4.6667,-4.6305,-4.549,-4.4744,-4.4917,-4.4926,-4.4381,-4.4719,-4.4443,-4.3775,-4.2888,-4.2323,-4.2048,-4.1987,-4.2017,-4.1877,-4.1885,-4.1885,-4.1946,-4.1817,-4.1459,-4.1233,-4.1155,-4.1233,-4.1681,-4.1302,-4.1099,-4.1501,-4.1246,-4.0906,-4.0874,-4.0634,-4.0822,-4.0959,-4.084,-4.104,-4.1288,-4.1619,-4.1825,-4.1857,-4.194,-4.2268,-4.2804,-4.2188,-4.1662,-4.1305,-4.0746,-3.9934,-3.9244,-3.869,-3.8304,-3.7752,-3.6802,-3.6469,-3.6664,-3.6181,-3.5368,-3.5349,-3.5365,-3.5643,-3.5844,-3.61,-3.6551,-3.6885,-3.6885,-3.664,-3.6362,-3.5899,-3.5519,-3.5056,-3.4507,-3.417,-3.38,-3.3303,-3.315,-3.2989,-3.2703,-3.2413,-5.32,-5.2324,-5.2152,-5.151,-5.0608,-5.0234,-5.0108,-5.0082,-4.9959,-4.9925,-4.9925,-4.9925,-4.9484,-4.8805,-4.8806,-4.8183,-4.7578,-4.7867,-4.8033,-4.7847,-4.7124,-4.6959,-4.7296,-4.8046,-4.855,-4.8309,-4.8229,-4.7801,-4.7317,-4.7415,-4.7497,-4.6925,-4.7306,-4.7681,-4.7554,-4.6975,-4.6703,-4.6395,-4.5888,-4.5034,-4.4321,-4.4529,-4.4497,-4.3786,-4.4192,-4.4185,-4.3643,-4.3237,-4.2743,-4.2257,-4.2065,-4.2282,-4.2808,-4.2675,-4.2622,-4.2724,-4.2393,-4.1789,-4.1261,-4.0982,-4.0892,-4.1016,-4.1013,-4.0892,-4.0868,-4.0737,-4.0534,-4.0485,-4.0453,-4.0724,-4.1248,-4.1535,-4.1449,-4.1467,-4.1636,-4.1535,-4.1111,-4.1418,-4.1812,-4.1663,-4.1187,-4.0593,-4.0476,-4.0324,-3.9614,-3.8774,-3.8204,-3.7702,-3.6901,-3.6037,-3.5985,-3.6047,-3.5652,-3.5011,-3.4994,-3.5011,-3.5053,-3.5185,-3.5393,-3.5516,-3.5864,-3.5912,-3.5736,-3.5375,-3.4915,-3.4568,-3.4433,-3.4201,-3.385,-3.3566,-3.3346,-3.315,-3.2989,-3.2757,-3.2523,-5.2743,-5.1912,-5.1828,-5.1264,-5.0447,-5.0231,-5.0133,-5.0082,-5.0005,-4.9925,-4.9906,-4.9879,-4.9559,-4.9089,-4.8975,-4.8541,-4.7615,-4.7087,-4.6952,-4.6719,-4.6309,-4.622,-4.6465,-4.7048,-4.7462,-4.7279,-4.7073,-4.6645,-4.6418,-4.6521,-4.6345,-4.5997,-4.6432,-4.645,-4.6576,-4.6142,-4.5725,-4.5327,-4.4983,-4.4328,-4.365,-4.3656,-4.3678,-4.3143,-4.3328,-4.3286,-4.2947,-4.2852,-4.2596,-4.2228,-4.2048,-4.2176,-4.2633,-4.2437,-4.2426,-4.2485,-4.2195,-4.1685,-4.1192,-4.0918,-4.081,-4.0697,-4.0793,-4.0697,-4.06,-4.0485,-4.0436,-4.0337,-4.0372,-4.0591,-4.118,-4.1165,-4.1182,-4.128,-4.1231,-4.0808,-4.0297,-4.0737,-4.1231,-4.0965,-4.061,-4.039,-4.0171,-3.9749,-3.9042,-3.8103,-3.7318,-3.6801,-3.6121,-3.5376,-3.5359,-3.5357,-3.5129,-3.4868,-3.4804,-3.474,-3.466,-3.4693,-3.4689,-3.4718,-3.4816,-3.485,-3.4769,-3.4556,-3.4408,-3.421,-3.4043,-3.3761,-3.3607,-3.345,-3.324,-3.3096,-3.2935,-3.2757,-3.2539,-5.2607,-5.1761,-5.1659,-5.1173,-5.0514,-5.0278,-5.0158,-5.0108,-5.0012,-4.9933,-4.9925,-4.9898,-4.9778,-4.9703,-4.9409,-4.8918,-4.7832,-4.659,-4.594,-4.5814,-4.5492,-4.5488,-4.5793,-4.5959,-4.5932,-4.5645,-4.6065,-4.595,-4.5906,-4.5715,-4.6146,-4.5653,-4.5562,-4.587,-4.5635,-4.5146,-4.4874,-4.4403,-4.4038,-4.3638,-4.3,-4.2811,-4.2651,-4.2471,-4.2448,-4.2501,-4.243,-4.2311,-4.2181,-4.2061,-4.197,-4.1754,-4.1639,-4.1628,-4.1572,-4.1642,-4.1598,-4.1383,-4.1128,-4.0871,-4.0745,-4.0648,-4.0648,-4.0534,-4.0387,-4.0387,-4.0337,-4.0288,-4.0238,-4.0421,-4.06,-4.0637,-4.0571,-4.0603,-4.047,-3.9997,-3.9523,-3.9973,-4.0229,-3.9944,-3.961,-3.9393,-3.9276,-3.8957,-3.8202,-3.7451,-3.6668,-3.5954,-3.5309,-3.4916,-3.503,-3.5046,-3.4932,-3.4804,-3.4691,-3.4497,-3.4431,-3.4414,-3.4264,-3.4264,-3.4214,-3.4279,-3.4394,-3.4246,-3.4099,-3.3965,-3.3797,-3.3694,-3.3539,-3.3346,-3.3187,-3.315,-3.2989,-3.2827,-3.2539,-5.1721,-5.0815,-5.0797,-5.06,-5.0348,-5.0236,-5.0182,-5.0082,-4.9978,-4.9906,-4.9898,-4.9843,-4.9807,-4.957,-4.8842,-4.8039,-4.7135,-4.6129,-4.5631,-4.5442,-4.4998,-4.4773,-4.4692,-4.5146,-4.4881,-4.4724,-4.5462,-4.6355,-4.6458,-4.7102,-4.62,-4.6196,-4.6033,-4.5997,-4.5526,-4.5073,-4.424,-4.3876,-4.3439,-4.3021,-4.2817,-4.2606,-4.2445,-4.2328,-4.2287,-4.2287,-4.2205,-4.2037,-4.1892,-4.1892,-4.1525,-4.1346,-4.1405,-4.1887,-4.2131,-4.2056,-4.1928,-4.1544,-4.0974,-4.084,-4.0648,-4.0485,-4.0485,-4.0485,-4.0337,-4.0288,-4.0288,-4.0238,-4.0271,-4.0436,-4.0404,-4.0453,-4.0502,-4.0453,-4.0336,-4.0048,-3.9389,-3.927,-3.9166,-3.8563,-3.8348,-3.8333,-3.8334,-3.8167,-3.7532,-3.69,-3.6285,-3.5673,-3.5129,-3.4899,-3.4932,-3.4916,-3.4899,-3.4739,-3.4594,-3.4349,-3.4183,-3.4183,-3.4149,-3.4149,-3.4133,-3.4117,-3.4101,-3.405,-3.4,-3.3899,-3.3797,-3.3642,-3.3487,-3.3346,-3.3256,-3.315,-3.2935,-3.2718,-3.2539,-5.1159,-5.0759,-5.0644,-5.0544,-5.0416,-5.0259,-5.0182,-5.0108,-4.9986,-4.9925,-4.9871,-4.9843,-4.9778,-4.9437,-4.8729,-4.7625,-4.64,-4.5921,-4.5405,-4.4961,-4.4834,-4.4439,-4.4072,-4.4631,-4.4554,-4.4471,-4.5224,-4.5496,-4.5001,-4.5049,-4.5258,-4.4708,-4.4617,-4.4639,-4.4491,-4.386,-4.3496,-4.3312,-4.3039,-4.2763,-4.2645,-4.2486,-4.2387,-4.2328,-4.2287,-4.2269,-4.2145,-4.2079,-4.1892,-4.1805,-4.1569,-4.1346,-4.1377,-4.154,-4.1789,-4.1759,-4.1695,-4.1462,-4.0862,-4.0793,-4.0551,-4.0355,-4.0337,-4.0337,-4.0238,-4.0238,-4.0238,-4.0188,-4.0171,-4.032,-4.0387,-4.0387,-4.0387,-4.0404,-4.0337,-3.9881,-3.9323,-3.9137,-3.8379,-3.7492,-3.7691,-3.7826,-3.7795,-3.7494,-3.6863,-3.63,-3.5837,-3.5393,-3.4932,-3.4899,-3.4851,-3.4804,-3.4739,-3.4594,-3.4448,-3.4234,-3.4101,-3.4101,-3.4101,-3.4101,-3.4101,-3.405,-3.405,-3.4,-3.3899,-3.3735,-3.371,-3.3555,-3.345,-3.3293,-3.3102,-3.2926,-3.2796,-3.2609,-3.2275,-5.1018,-5.0866,-5.0702,-5.0603,-5.0519,-5.0325,-5.0182,-5.0082,-4.9959,-4.9898,-4.9788,-4.9797,-4.9618,-4.9106,-4.8144,-4.6901,-4.5413,-4.5338,-4.4894,-4.4573,-4.4755,-4.4512,-4.4202,-4.4402,-4.4702,-4.4125,-4.451,-4.4254,-4.4271,-4.4102,-4.3607,-4.3728,-4.3441,-4.3116,-4.3219,-4.3186,-4.2915,-4.2765,-4.2745,-4.2685,-4.2486,-4.2387,-4.2328,-4.2287,-4.2287,-4.2246,-4.2103,-4.2019,-4.1909,-4.1736,-4.156,-4.1363,-4.1198,-4.1076,-4.1047,-4.1047,-4.1,-4.0935,-4.0776,-4.068,-4.0502,-4.0288,-4.0238,-4.0188,-4.0188,-4.0188,-4.0205,-4.0138,-4.0138,-4.0238,-4.0337,-4.0288,-4.0288,-4.0288,-4.0187,-3.9867,-3.9191,-3.8684,-3.8041,-3.7537,-3.7452,-3.7185,-3.6891,-3.6563,-3.5935,-3.5804,-3.5359,-3.5309,-3.4899,-3.4851,-3.4804,-3.4707,-3.4594,-3.4399,-3.43,-3.4184,-3.4101,-3.4101,-3.4101,-3.4101,-3.405,-3.405,-3.3853,-3.3574,-3.3444,-3.3278,-3.3383,-3.3435,-3.3361,-3.3171,-3.2949,-3.2647,-3.233,-3.1959,-3.1567,-5.1583,-5.072,-5.0757,-5.0625,-5.0371,-5.0302,-5.0163,-5.0005,-4.9898,-4.9835,-4.9684,-4.9598,-4.9163,-4.8219,-4.6749,-4.5546,-4.4813,-4.4587,-4.4472,-4.43,-4.4475,-4.4371,-4.409,-4.4665,-4.4423,-4.3958,-4.4163,-4.4745,-4.4634,-4.4685,-4.4844,-4.4527,-4.3833,-4.3758,-4.3412,-4.3,-4.2745,-4.2649,-4.2609,-4.253,-4.2369,-4.2351,-4.2315,-4.2274,-4.2198,-4.2121,-4.1979,-4.1888,-4.1823,-4.1604,-4.1353,-4.1186,-4.1093,-4.0888,-4.084,-4.0888,-4.0982,-4.0935,-4.0614,-4.0583,-4.0485,-4.0238,-4.0188,-4.0121,-4.0121,-4.0138,-4.0138,-4.0138,-4.0188,-4.0255,-4.0238,-4.0238,-4.0238,-4.0188,-4.0171,-3.9698,-3.9157,-3.8702,-3.7993,-3.7067,-3.6865,-3.6155,-3.5663,-3.5355,-3.5063,-3.503,-3.5013,-3.4916,-3.4851,-3.4756,-3.4659,-3.4546,-3.4448,-3.43,-3.4201,-3.4151,-3.4084,-3.4084,-3.3955,-3.3889,-3.3725,-3.3546,-3.3219,-3.2958,-3.2828,-3.2793,-3.2867,-3.2986,-3.313,-3.2914,-3.2426,-3.2048,-3.1734,-3.1334,-3.0936,-5.127,-5.0808,-5.0756,-5.0625,-5.0399,-5.0283,-5.0158,-5.0005,-4.9879,-4.9532,-4.9089,-4.9023,-4.8268,-4.6996,-4.5941,-4.5198,-4.4504,-4.4314,-4.4226,-4.4314,-4.4457,-4.4451,-4.4175,-4.4572,-4.4509,-4.3789,-4.365,-4.3743,-4.4143,-4.412,-4.3951,-4.3794,-4.3523,-4.3156,-4.3278,-4.2865,-4.2663,-4.2548,-4.2468,-4.2427,-4.2221,-4.1935,-4.1685,-4.1627,-4.1645,-4.1563,-4.1564,-4.1842,-4.1727,-4.1498,-4.1318,-4.1018,-4.0602,-4.0337,-4.0233,-3.9703,-4.0118,-4.0311,-4.0497,-4.0468,-4.0387,-4.0288,-4.0205,-4.0238,-4.0188,-4.0138,-4.0138,-4.0087,-4.0121,-4.0188,-4.0188,-4.0188,-4.0188,-4.0171,-4.0087,-3.9681,-3.9191,-3.8754,-3.8132,-3.7172,-3.6266,-3.571,-3.5298,-3.5168,-3.5091,-3.5027,-3.498,-3.4868,-3.4756,-3.4562,-3.4464,-3.43,-3.425,-3.4184,-3.4151,-3.4101,-3.4052,-3.3971,-3.3518,-3.342,-3.3176,-3.2932,-3.2542,-3.2203,-3.1962,-3.2056,-3.2257,-3.2218,-3.2163,-3.1961,-3.1779,-3.1374,-3.1,-3.0819,-3.0431,-5.0921,-5.0893,-5.0793,-5.0645,-5.0425,-5.0077,-4.979,-4.9637,-4.9292,-4.8785,-4.8211,-4.7881,-4.7033,-4.598,-4.5452,-4.4849,-4.4274,-4.4244,-4.4135,-4.4265,-4.4493,-4.4429,-4.4179,-4.4424,-4.4288,-4.3513,-4.3448,-4.3433,-4.3233,-4.3104,-4.2987,-4.2649,-4.2847,-4.2717,-4.2602,-4.2584,-4.2566,-4.2503,-4.2369,-4.2328,-4.2162,-4.1479,-4.1395,-4.1283,-4.1172,-4.1037,-4.1215,-4.1623,-4.1683,-4.1436,-4.1084,-4.0707,-4.0179,-3.9794,-3.95,-3.9126,-3.9295,-3.9581,-4.0004,-4.028,-4.0286,-4.0337,-4.0303,-4.0252,-4.0031,-4.0051,-4.0138,-4.0188,-4.0138,-4.0188,-4.0188,-4.0138,-3.9968,-4.0001,-3.9968,-3.9579,-3.914,-3.8719,-3.8216,-3.7509,-3.6606,-3.586,-3.5482,-3.5265,-3.5152,-3.5058,-3.4947,-3.4851,-3.4691,-3.4513,-3.4349,-3.425,-3.425,-3.4184,-3.4151,-3.4084,-3.4052,-3.3761,-3.3307,-3.2837,-3.2563,-3.2192,-3.1757,-3.1437,-3.1165,-3.1116,-3.1257,-3.1205,-3.1102,-3.1158,-3.1103,-3.0556,-3.0202,-3.0053,-2.9797,-5.0893,-5.0899,-5.081,-5.0625,-5.0301,-4.9427,-4.8996,-4.8712,-4.7931,-4.7529,-4.7155,-4.6327,-4.5846,-4.5431,-4.4838,-4.4393,-4.4195,-4.4011,-4.3961,-4.3947,-4.3971,-4.4045,-4.3925,-4.3929,-4.39,-4.3634,-4.3444,-4.3286,-4.3123,-4.2994,-4.288,-4.2802,-4.2645,-4.2544,-4.2503,-4.2486,-4.2486,-4.2445,-4.2346,-4.2269,-4.2032,-4.1581,-4.135,-4.1688,-4.1375,-4.112,-4.1828,-4.1697,-4.1648,-4.1258,-4.0849,-4.0446,-4.0078,-3.9606,-3.9242,-3.8972,-3.8825,-3.9157,-3.9624,-3.9922,-4.0266,-4.0336,-4.0268,-4.0109,-3.9734,-4.0048,-4.022,-4.0238,-4.0188,-4.0138,-4.0138,-4.002,-3.9714,-3.9545,-3.9427,-3.9039,-3.8734,-3.8567,-3.8113,-3.7643,-3.6827,-3.5816,-3.5404,-3.5155,-3.5105,-3.4994,-3.4899,-3.4787,-3.4643,-3.4497,-3.4399,-3.43,-3.43,-3.4201,-3.4101,-3.4003,-3.3695,-3.3274,-3.2789,-3.2289,-3.1807,-3.1374,-3.0879,-3.0641,-3.0339,-3.0291,-3.0291,-3.04,-3.0508,-3.0595,-3.0398,-2.9794,-2.9316,-2.9007,-2.8693,-5.0893,-5.0899,-5.0829,-5.0394,-4.9697,-4.9223,-4.8624,-4.8017,-4.7548,-4.6944,-4.6271,-4.5302,-4.4793,-4.4688,-4.4547,-4.4244,-4.4184,-4.4023,-4.3929,-4.3915,-4.3883,-4.3851,-4.3818,-4.3786,-4.3789,-4.3667,-4.3532,-4.3428,-4.3358,-4.3031,-4.286,-4.2763,-4.2566,-4.2445,-4.2405,-4.2351,-4.2351,-4.2351,-4.2292,-4.2251,-4.2026,-4.1451,-4.1126,-4.1245,-4.0547,-4.0477,-4.0912,-4.0594,-4.0866,-4.1007,-4.0639,-4.0272,-4.001,-3.9634,-3.9225,-3.8903,-3.8767,-3.9032,-3.9166,-3.9225,-3.8911,-3.9174,-3.9443,-3.973,-3.947,-4.0041,-4.0319,-4.0305,-4.0204,-4.0086,-4.007,-3.9665,-3.9242,-3.9022,-3.8768,-3.8432,-3.8179,-3.7995,-3.7545,-3.6894,-3.6164,-3.5291,-3.5094,-3.4963,-3.4947,-3.4899,-3.4851,-3.4723,-3.4512,-3.4448,-3.4284,-3.4169,-3.4169,-3.4087,-3.3971,-3.3662,-3.3322,-3.2805,-3.2257,-3.1758,-3.1182,-3.0414,-2.9954,-2.9704,-2.9626,-2.9643,-2.9722,-2.9801,-2.9863,-3.0031,-2.9617,-2.9005,-2.8529,-2.8156,-2.7931,-5.0897,-5.0863,-5.0812,-5.0201,-4.9277,-4.8802,-4.8071,-4.7224,-4.6759,-4.6199,-4.5359,-4.4597,-4.4255,-4.4255,-4.4195,-4.4135,-4.4042,-4.391,-4.3846,-4.38,-4.3753,-4.3753,-4.3753,-4.3719,-4.3738,-4.3686,-4.3584,-4.3463,-4.3305,-4.2994,-4.2804,-4.2706,-4.2548,-4.2387,-4.2292,-4.2019,-4.1907,-4.1889,-4.1581,-4.1665,-4.1493,-4.0654,-4.0866,-4.0801,-4.0206,-4.0023,-4.0405,-4.0387,-4.0232,-4.028,-4.0026,-3.9676,-3.9546,-3.9363,-3.9013,-3.8703,-3.8572,-3.8786,-3.8828,-3.8993,-3.8421,-3.8559,-3.944,-3.9538,-3.95,-3.9932,-4.0351,-3.9995,-3.9914,-3.9798,-3.9563,-3.8903,-3.8413,-3.8108,-3.8278,-3.801,-3.754,-3.7256,-3.6693,-3.6128,-3.5571,-3.5376,-3.4996,-3.4947,-3.4947,-3.4899,-3.4804,-3.4526,-3.4086,-3.4072,-3.4121,-3.4022,-3.3972,-3.3874,-3.3759,-3.3612,-3.3369,-3.2337,-3.1791,-3.1262,-3.067,-2.9888,-2.9398,-2.9372,-2.9279,-2.9107,-2.9186,-2.9344,-2.9422,-2.9451,-2.8993,-2.8455,-2.8278,-2.7966,-2.7836,-5.0863,-5.0793,-5.072,-5.0125,-4.9083,-4.8209,-4.7247,-4.6234,-4.5407,-4.4893,-4.4637,-4.4285,-4.4184,-4.4135,-4.4042,-4.3961,-4.3897,-4.3734,-4.3667,-4.3667,-4.3634,-4.3615,-4.3582,-4.36,-4.3584,-4.3532,-4.3444,-4.3322,-4.3178,-4.2956,-4.2786,-4.2519,-4.2284,-4.2109,-4.218,-4.1421,-4.1042,-4.0913,-4.0263,-4.0524,-4.0695,-3.9911,-4.0477,-4.0905,-4.0327,-4.0021,-4.0556,-4.0074,-3.9849,-3.9781,-3.9006,-3.8639,-3.8552,-3.8074,-3.7701,-3.7436,-3.7076,-3.7394,-3.8179,-3.9435,-3.9163,-3.8269,-3.8845,-3.9418,-3.8968,-3.9401,-4.0007,-3.9364,-3.92,-3.8766,-3.8328,-3.7922,-3.7567,-3.7398,-3.7584,-3.7334,-3.6801,-3.6585,-3.6058,-3.5635,-3.5869,-3.5887,-3.5309,-3.4899,-3.4899,-3.4851,-3.4756,-3.4429,-3.3907,-3.3892,-3.4039,-3.3972,-3.3939,-3.384,-3.3774,-3.3756,-3.3301,-3.2207,-3.1358,-3.0831,-3.0321,-2.9717,-2.9354,-2.9183,-2.9059,-2.9013,-2.8967,-2.8951,-2.8998,-2.8995,-2.8532,-2.8118,-2.7955,-2.784,-2.774,-5.0883,-5.0793,-5.0663,-4.9759,-4.8449,-4.7936,-4.6862,-4.5469,-4.4799,-4.4496,-4.4383,-4.4177,-4.4042,-4.3979,-4.3947,-4.3883,-4.3786,-4.3701,-4.36,-4.3582,-4.3548,-4.3497,-4.3463,-4.3463,-4.3411,-4.3322,-4.3268,-4.3268,-4.3178,-4.2884,-4.2747,-4.2516,-4.1693,-4.1398,-4.1167,-4.0664,-4.0263,-4.076,-4.0666,-4.0766,-4.1283,-4.0853,-4.0828,-4.1648,-4.0576,-4.0366,-4.0805,-3.9884,-3.9245,-3.9431,-3.8751,-3.8422,-3.8545,-3.8216,-3.8599,-3.8511,-3.8384,-3.8459,-3.8789,-3.912,-3.8408,-3.7887,-3.8048,-3.864,-3.7849,-3.8465,-3.8692,-3.8649,-3.8452,-3.8153,-3.8021,-3.7398,-3.7009,-3.6823,-3.6772,-3.6228,-3.5816,-3.582,-3.5592,-3.5288,-3.5293,-3.5376,-3.5063,-3.4899,-3.4899,-3.4769,-3.464,-3.4528,-3.4104,-3.4121,-3.4185,-3.4086,-3.402,-3.3855,-3.374,-3.3317,-3.2818,-3.179,-3.1007,-3.0463,-2.9924,-2.9529,-2.9354,-2.9167,-2.9059,-2.8967,-2.8873,-2.8795,-2.8653,-2.8493,-2.8201,-2.8054,-2.7955,-2.784,-2.774,-5.081,-5.0757,-5.0645,-4.9546,-4.802,-4.7735,-4.6601,-4.5029,-4.4524,-4.4373,-4.4314,-4.4085,-4.3961,-4.3897,-4.3832,-4.3786,-4.3719,-4.3618,-4.3532,-4.3532,-4.341,-4.3358,-4.3322,-4.334,-4.3269,-4.3196,-4.3178,-4.3178,-4.2995,-4.2553,-4.2178,-4.1649,-4.0907,-4.0737,-4.0506,-4.0217,-3.9999,-4.04,-4.0453,-4.044,-4.0873,-4.0936,-4.0963,-4.1113,-4.0683,-4.0217,-4.0087,-3.9421,-3.8386,-3.8905,-3.8751,-3.83,-3.8467,-3.8721,-3.8945,-3.8681,-3.8819,-3.8594,-3.8289,-3.8967,-3.8018,-3.6254,-3.7313,-3.7648,-3.7371,-3.7962,-3.795,-3.7887,-3.7721,-3.7407,-3.711,-3.6535,-3.6451,-3.6265,-3.6084,-3.5605,-3.5496,-3.5488,-3.5395,-3.5074,-3.4899,-3.4899,-3.4883,-3.4899,-3.4899,-3.4688,-3.4525,-3.4347,-3.4169,-3.4203,-3.4071,-3.3891,-3.3678,-3.3419,-3.3029,-3.2545,-3.1999,-3.1358,-3.0752,-3.021,-2.9925,-2.961,-2.9404,-2.9213,-2.9121,-2.8982,-2.8842,-2.87,-2.8525,-2.8332,-2.8201,-2.8054,-2.7955,-2.784,-2.774,-5.0775,-5.0702,-5.0643,-4.948,-4.7888,-4.7429,-4.6259,-4.4597,-4.4401,-4.4304,-4.4255,-4.3992,-4.3865,-4.3832,-4.3701,-4.36,-4.3566,-4.3446,-4.3411,-4.3376,-4.3286,-4.3251,-4.3196,-4.3178,-4.316,-4.3123,-4.3086,-4.2938,-4.2732,-4.1962,-4.1328,-4.0606,-3.9817,-3.9811,-3.9788,-3.9641,-3.9729,-4.0169,-4.0197,-4.0348,-4.0779,-4.028,-4.0587,-4.0648,-4.0316,-3.9668,-3.9283,-3.8625,-3.7831,-3.7545,-3.7056,-3.6917,-3.6974,-3.7222,-3.6955,-3.7034,-3.7695,-3.7602,-3.7377,-3.8306,-3.7729,-3.6141,-3.6961,-3.7296,-3.7245,-3.7228,-3.7194,-3.7012,-3.6814,-3.6327,-3.5893,-3.5842,-3.5808,-3.5757,-3.5695,-3.552,-3.5446,-3.5371,-3.5232,-3.5088,-3.4947,-3.4883,-3.4849,-3.4849,-3.4601,-3.4308,-3.403,-3.3559,-3.353,-3.3941,-3.3762,-3.3437,-3.3177,-3.2805,-3.2433,-3.2223,-3.155,-3.1039,-3.0656,-3.0149,-2.988,-2.9595,-2.9295,-2.9121,-2.9091,-2.8998,-2.8716,-2.8525,-2.8332,-2.8201,-2.8152,-2.8005,-2.7905,-2.779,-2.769,-5.0738,-5.0625,-5.0563,-4.9458,-4.7678,-4.6158,-4.5081,-4.4477,-4.4344,-4.4226,-4.4085,-4.3961,-4.3689,-4.3615,-4.3548,-4.3426,-4.3339,-4.3268,-4.3233,-4.316,-4.3051,-4.305,-4.2977,-4.283,-4.2939,-4.2846,-4.2772,-4.2549,-4.2358,-4.1493,-4.0095,-3.9111,-3.8825,-3.8796,-3.8754,-3.8537,-3.9385,-3.9989,-3.9921,-4.0228,-4.0622,-4.0482,-4.0533,-4.0201,-3.9957,-3.9407,-3.8926,-3.822,-3.7644,-3.7574,-3.7366,-3.7143,-3.6454,-3.6965,-3.718,-3.7072,-3.7495,-3.7648,-3.7072,-3.7225,-3.6971,-3.6039,-3.6316,-3.6203,-3.6169,-3.626,-3.639,-3.6305,-3.6175,-3.5842,-3.5723,-3.5673,-3.5639,-3.5622,-3.5594,-3.5475,-3.54,-3.5291,-3.5152,-3.5041,-3.4899,-3.4783,-3.475,-3.4402,-3.4137,-3.3829,-3.3439,-3.2968,-3.291,-3.3338,-3.3551,-3.3243,-3.3145,-3.2902,-3.2626,-3.2415,-3.1566,-3.08,-3.0339,-2.9896,-2.9595,-2.9264,-2.9107,-2.8982,-2.8936,-2.8779,-2.8556,-2.8396,-2.8284,-2.8186,-2.8088,-2.7955,-2.7855,-2.7755,-2.759,-5.0007,-4.9625,-4.9545,-4.8592,-4.6987,-4.5356,-4.4477,-4.4221,-4.3882,-4.3811,-4.3912,-4.3124,-4.3041,-4.3422,-4.3098,-4.2957,-4.3196,-4.316,-4.2978,-4.2505,-4.2559,-4.2159,-4.2048,-4.1957,-4.1756,-4.1827,-4.1807,-4.1515,-4.1357,-4.0513,-3.9151,-3.8339,-3.7965,-3.8216,-3.8419,-3.8639,-3.8936,-3.9503,-3.9835,-4.0088,-4.0289,-4.0436,-4.0008,-3.9668,-3.9425,-3.899,-3.8597,-3.7788,-3.7474,-3.7404,-3.7153,-3.6878,-3.6377,-3.6724,-3.7305,-3.7257,-3.733,-3.7259,-3.6903,-3.6927,-3.6457,-3.5966,-3.5817,-3.5851,-3.5841,-3.5898,-3.5881,-3.5813,-3.5735,-3.5639,-3.5639,-3.5639,-3.5639,-3.5639,-3.552,-3.5446,-3.5337,-3.5198,-3.5058,-3.4947,-3.4816,-3.4667,-3.4419,-3.4005,-3.3545,-3.3139,-3.2652,-3.2134,-3.2275,-3.2803,-3.3145,-3.3129,-3.321,-3.3177,-3.2836,-3.2206,-3.1214,-3.0339,-2.9816,-2.9437,-2.9153,-2.9121,-2.9029,-2.8936,-2.8795,-2.8636,-2.8508,-2.8396,-2.8332,-2.8155,-2.7978,-2.786,-2.7725,-2.7655,-2.7488,-4.8892,-4.8145,-4.7912,-4.7312,-4.6051,-4.502,-4.4362,-4.3999,-4.3304,-4.3274,-4.3521,-4.2147,-4.2298,-4.3098,-4.2629,-4.2631,-4.2832,-4.2905,-4.2394,-4.1687,-4.1559,-4.125,-4.0778,-4.0363,-4.0723,-4.0471,-4.0324,-4.048,-3.981,-3.9128,-3.8508,-3.777,-3.7666,-3.7847,-3.8188,-3.8173,-3.8277,-3.8407,-3.8633,-3.8764,-3.9068,-3.9068,-3.8868,-3.8642,-3.8252,-3.7815,-3.7589,-3.713,-3.6643,-3.6561,-3.6496,-3.6454,-3.637,-3.6319,-3.6874,-3.7047,-3.6927,-3.6746,-3.661,-3.6605,-3.6395,-3.6082,-3.5905,-3.5861,-3.5817,-3.5711,-3.5667,-3.5667,-3.5622,-3.5639,-3.5639,-3.5639,-3.5639,-3.5594,-3.552,-3.5429,-3.5291,-3.5152,-3.4994,-3.4899,-3.4818,-3.462,-3.4087,-3.3673,-3.3032,-3.2484,-3.1835,-3.1286,-3.1463,-3.2073,-3.2498,-3.287,-3.3307,-3.3225,-3.2465,-3.1774,-3.0625,-2.9863,-2.9422,-2.9139,-2.8998,-2.9029,-2.9029,-2.8858,-2.8716,-2.8636,-2.8541,-2.8429,-2.8255,-2.7941,-2.7811,-2.7735,-2.7615,-2.744,-2.7393,-4.8334,-4.7933,-4.7133,-4.6825,-4.6724,-4.5096,-4.4614,-4.4867,-4.3204,-4.2922,-4.3351,-4.2625,-4.2347,-4.2812,-4.2177,-4.2178,-4.2667,-4.2357,-4.1847,-4.1284,-4.0885,-4.0306,-4.0107,-3.9837,-3.9962,-4.0123,-3.9976,-3.9447,-3.877,-3.8254,-3.7755,-3.705,-3.6932,-3.7134,-3.7349,-3.724,-3.7197,-3.7351,-3.7351,-3.7836,-3.8504,-3.8555,-3.8476,-3.8,-3.7568,-3.7342,-3.7082,-3.671,-3.6579,-3.6602,-3.6395,-3.6208,-3.6062,-3.5975,-3.6059,-3.6225,-3.6203,-3.609,-3.6056,-3.6163,-3.601,-3.5953,-3.58,-3.5844,-3.58,-3.5711,-3.5667,-3.5667,-3.5622,-3.5622,-3.5639,-3.5639,-3.5639,-3.5594,-3.5566,-3.5429,-3.5291,-3.5135,-3.4947,-3.4849,-3.4754,-3.4308,-3.3743,-3.3164,-3.2557,-3.1852,-3.1127,-3.0662,-3.0751,-3.1189,-3.1767,-3.2239,-3.3338,-3.3239,-3.232,-3.1454,-3.0418,-2.9706,-2.9297,-2.9077,-2.8889,-2.8842,-2.8858,-2.8763,-2.8636,-2.8463,-2.8336,-2.835,-2.813,-2.7758,-2.7461,-2.7312,-2.707,-2.6847,-2.7015,-4.7317,-4.678,-4.6043,-4.5905,-4.587,-4.4768,-4.4274,-4.3968,-4.2885,-4.2356,-4.2304,-4.1599,-4.1426,-4.1923,-4.1379,-4.1596,-4.2082,-4.1771,-4.1207,-4.0699,-4.0016,-3.9294,-3.9113,-3.8986,-3.8734,-3.8785,-3.8691,-3.8196,-3.7747,-3.7527,-3.7085,-3.6554,-3.6318,-3.6318,-3.6419,-3.6208,-3.6165,-3.6327,-3.6276,-3.6853,-3.7741,-3.7577,-3.7439,-3.7025,-3.7129,-3.699,-3.6894,-3.6609,-3.6696,-3.6599,-3.6353,-3.6165,-3.6036,-3.5888,-3.5817,-3.5824,-3.5751,-3.5639,-3.5622,-3.5667,-3.5773,-3.5756,-3.58,-3.5817,-3.5817,-3.5711,-3.5667,-3.5684,-3.5622,-3.5639,-3.5639,-3.5639,-3.5639,-3.5594,-3.552,-3.5429,-3.5245,-3.5041,-3.4681,-3.427,-3.4057,-3.3611,-3.3061,-3.2403,-3.1797,-3.1242,-3.0458,-3.0307,-3.0332,-3.0396,-3.0956,-3.1463,-3.2402,-3.2498,-3.1518,-3.0911,-3.0291,-2.9722,-2.9171,-2.8998,-2.8811,-2.8732,-2.8684,-2.8543,-2.8355,-2.8119,-2.8071,-2.7915,-2.7714,-2.7265,-2.6985,-2.6766,-2.6546,-2.634,-2.6476,-4.6205,-4.5376,-4.5033,-4.484,-4.464,-4.4327,-4.3662,-4.2804,-4.2368,-4.1687,-4.0821,-3.9958,-3.9928,-4.0239,-4.0347,-4.0759,-4.1045,-4.1043,-4.0587,-3.9812,-3.8986,-3.8429,-3.7889,-3.7494,-3.7618,-3.7542,-3.739,-3.7216,-3.6888,-3.6771,-3.6648,-3.6268,-3.6165,-3.6191,-3.6062,-3.5975,-3.6019,-3.6122,-3.6122,-3.6182,-3.626,-3.6233,-3.6379,-3.6603,-3.6767,-3.6879,-3.6749,-3.6757,-3.6818,-3.6603,-3.6268,-3.6079,-3.5949,-3.58,-3.5756,-3.5711,-3.5667,-3.5622,-3.5622,-3.5728,-3.5773,-3.5773,-3.5773,-3.5773,-3.5773,-3.5728,-3.5684,-3.5684,-3.5639,-3.5594,-3.5594,-3.5594,-3.5594,-3.5549,-3.5475,-3.5383,-3.5182,-3.4977,-3.4515,-3.4005,-3.3644,-3.3168,-3.247,-3.1858,-3.1259,-3.0629,-3.0248,-3.0119,-3.0038,-3.0145,-3.04,-3.0645,-3.1067,-3.094,-3.0719,-3.0355,-2.999,-2.961,-2.9138,-2.8935,-2.8794,-2.8747,-2.8591,-2.8216,-2.8028,-2.7808,-2.7422,-2.7113,-2.6914,-2.6638,-2.6482,-2.6189,-2.5854,-2.5726,-2.5878,-4.5514,-4.5148,-4.4967,-4.484,-4.4659,-4.4269,-4.3583,-4.2717,-4.2161,-4.1192,-3.9926,-3.9498,-3.9644,-4.0456,-4.0274,-4.0342,-4.0285,-4.0336,-3.9759,-3.9006,-3.8193,-3.7618,-3.7312,-3.7182,-3.7182,-3.7066,-3.6891,-3.669,-3.6485,-3.6444,-3.6301,-3.6062,-3.5888,-3.5932,-3.5975,-3.5932,-3.5861,-3.5949,-3.6079,-3.6122,-3.6122,-3.6148,-3.6233,-3.6319,-3.6396,-3.6379,-3.6387,-3.6439,-3.6439,-3.6285,-3.6062,-3.5932,-3.58,-3.5711,-3.5667,-3.5667,-3.5622,-3.5622,-3.5639,-3.5728,-3.5773,-3.5728,-3.5728,-3.5773,-3.5728,-3.5684,-3.5639,-3.5639,-3.5594,-3.5577,-3.5594,-3.552,-3.552,-3.5429,-3.5337,-3.5245,-3.5088,-3.493,-3.4684,-3.4343,-3.4052,-3.3327,-3.2385,-3.1785,-3.1214,-3.0631,-3.0119,-2.9973,-2.9858,-2.9855,-2.9865,-2.9948,-3.0108,-3.056,-3.0879,-3.0084,-2.9656,-2.9308,-2.9073,-2.8872,-2.8779,-2.8794,-2.8591,-2.7998,-2.7733,-2.7529,-2.7083,-2.6365,-2.6031,-2.5803,-2.5815,-2.56,-2.5252,-2.507,-2.521]},{"header":{"parameterUnit":"m.s-1","parameterCategory":1,"la1":31.0,"la2":29.5877,"lo1":-88.7671,"lo2":-86.6584,"dy":0.0162,"dx":0.0185,"nx":115,"ny":88,"refTime":"2023-06-24T12:00:00:Z","depth":0,"parameterNumber":3,"parameterNumberName":"V-component_of_WINDS"},"data":[0.0,0.0,0.0,0.0,0.0,0.0,0.0,0.0,0.0,0.0,0.0,0.0,0.0,0.0,0.0,0.0,0.0,0.0,0.0,0.0,0.0,0.0,0.0,0.0,0.0,0.0,0.0,0.0,0.0,0.0,0.0,0.0,0.0,0.0,0.0,0.0,0.0,0.0,0.0,0.0,0.0,0.0,0.0,0.0,0.0,0.0,0.0,0.0,0.0,0.0,0.0,0.0,0.0,0.0,0.0,0.0,0.0,0.0,0.0,0.0,0.0,0.0,0.0,0.0,0.0,0.0,0.0,0.0,0.0,0.0,0.0,0.0,0.0,0.0,0.0,0.0,0.0,0.0,0.0,0.0,0.0,0.0,0.0,0.0,0.0,0.0,0.0,0.0,0.0,0.0,0.0,0.0,0.0,0.0,0.0,0.0,0.0,0.0,0.0,0.0,0.0,0.0,0.0,0.0,0.0,0.0,0.0,0.0,0.0,0.0,0.0,0.0,0.0,0.0,0.0,0.0,0.0,0.0,0.0,0.0,0.0,0.0,0.0,0.0,0.0,0.0,0.0,0.0,0.0,0.0,0.0,0.0,0.0,0.0,0.0,0.0,0.0,0.0,0.0,0.0,0.0,0.0,0.0,0.0,0.0,0.0,0.0,0.0,0.0,0.0,0.0,0.0,0.0,0.0,0.0,0.0,0.0,0.0,0.0,0.0,0.0,0.0,0.0,0.0,0.0,0.0,0.0,0.0,0.0,0.0,0.0,0.0,0.0,0.0,0.0,0.0,0.0,0.0,0.0,0.0,0.0,0.0,0.0,0.0,0.0,0.0,0.0,0.0,0.0,0.0,0.0,0.0,0.0,0.0,0.0,0.0,0.0,0.0,0.0,0.0,0.0,0.0,0.0,0.0,0.0,0.0,0.0,0.0,0.0,0.0,0.0,0.0,0.0,0.0,0.0,0.0,0.0,0.0,0.0,0.0,0.0,0.0,0.0,0.0,0.0,0.0,0.0,0.0,0.0,0.0,0.0,0.0,0.0,0.0,0.0,0.0,0.0,0.0,0.0,0.0,0.0,0.0,0.0,0.0,0.0,0.0,0.0,0.0,0.0,0.0,0.0,0.0,0.0,0.0,0.0,0.0,0.0,0.0,0.0,0.0,0.0,0.0,0.0,0.0,0.0,0.0,0.0,0.0,0.0,0.0,0.0,0.0,0.0,0.0,0.0,0.0,0.0,0.0,0.0,0.0,0.0,0.0,0.0,0.0,0.0,0.0,0.0,0.0,0.0,0.0,0.0,0.0,0.0,0.0,0.0,0.0,0.0,0.0,0.0,0.0,0.0,0.0,0.0,0.0,0.0,0.0,0.0,0.0,0.0,0.0,0.0,0.0,0.0,0.0,0.0,0.0,0.0,0.0,0.0,0.0,0.0,0.0,0.0,0.0,0.0,0.0,0.0,0.0,0.0,0.0,0.0,0.0,0.0,0.0,0.0,0.0,0.0,0.0,0.0,0.0,0.0,0.0,0.0,0.0,0.0,0.0,0.0,0.0,0.0,0.0,0.0,0.0,0.0,0.0,0.0,0.0,0.0,0.0,0.0,0.0,0.0,0.0,0.0,0.0,0.0,0.0,0.0,0.0,0.0,0.0,0.0,0.0,0.0,0.0,0.0,0.0,0.0,0.0,0.0,0.0,0.0,0.0,0.0,0.0,0.0,0.0,0.0,0.0,0.0,0.0,0.0,0.0,0.0,0.0,0.0,0.0,0.0,0.0,0.0,0.0,0.0,0.0,0.0,0.0,0.0,0.0,0.0,0.0,0.0,0.0,0.0,0.0,0.0,0.0,0.0,0.0,0.0,0.0,0.0,0.0,0.0,0.0,0.0,0.0,0.0,0.0,0.0,0.0,0.0,0.0,0.0,0.0,0.0,0.0,0.0,0.0,0.0,0.0,0.0,0.0,0.0,0.0,0.0,0.0,0.0,0.0,0.0,0.0,0.0,0.0,0.0,0.0,0.0,0.0,0.0,0.0,0.0,0.0,0.0,0.0,0.0,0.0,0.0,0.0,0.0,0.0,0.0,0.0,0.0,0.0,0.0,0.0,0.0,0.0,0.0,0.0,0.0,0.0,0.0,0.0,0.0,0.0,0.0,0.0,0.0,0.0,0.0,0.0,0.0,0.0,0.0,0.0,0.0,0.0,0.0,0.0,0.0,0.0,0.0,0.0,0.0,0.0,0.0,0.0,0.0,0.0,0.0,0.0,0.0,0.0,0.0,0.0,0.0,0.0,0.0,0.0,0.0,0.0,0.0,0.0,0.0,0.0,0.0,0.0,0.0,0.0,0.0,0.0,0.0,0.0,0.0,0.0,0.0,0.0,0.0,0.0,0.0,0.0,0.0,0.0,0.0,0.0,0.0,0.0,0.0,0.0,0.0,0.0,0.0,0.0,0.0,0.0,0.0,0.0,0.0,0.0,0.0,0.0,0.0,0.0,0.0,0.0,0.0,0.0,0.0,0.0,0.0,0.0,0.0,0.0,0.0,0.0,0.0,0.0,0.0,0.0,0.0,0.0,0.0,0.0,0.0,0.0,0.0,0.0,0.0,0.0,0.0,0.0,0.0,0.0,0.0,0.0,0.0,0.0,0.0,0.0,0.0,0.0,0.0,0.0,0.0,0.0,0.0,0.0,0.0,0.0,0.0,0.0,0.0,0.0,0.0,0.0,0.0,0.0,0.0,0.0,0.0,0.0,0.0,0.0,0.0,0.0,0.0,0.0,0.0,0.0,0.0,0.0,0.0,0.0,0.0,0.0,0.0,0.0,0.0,0.0,0.0,0.0,0.0,0.0,0.0,0.0,0.0,0.0,0.0,0.0,0.0,0.0,0.0,0.0,0.0,0.0,0.0,0.0,0.0,0.0,0.0,0.0,0.0,0.0,0.0,0.0,0.0,0.0,0.0,0.0,0.0,0.0,0.0,0.0,0.0,0.0,0.0,0.0,0.0,0.0,0.0,0.0,0.0,0.0,0.0,0.0,0.0,0.0,0.0,0.0,0.0,0.0,0.0,0.0,0.0,0.0,0.0,0.0,0.0,0.0,0.0,0.0,0.0,0.0,0.0,0.0,0.0,0.0,0.0,0.0,0.0,0.0,0.0,0.0,0.0,0.0,0.0,0.0,0.0,0.0,0.0,0.0,0.0,0.0,0.0,0.0,0.0,0.0,0.0,0.0,0.0,0.0,0.0,0.0,0.0,0.0,0.0,0.0,0.0,0.0,0.0,0.0,0.0,0.0,0.0,0.0,0.0,0.0,0.0,0.0,0.0,0.0,0.0,0.0,0.0,0.0,0.0,0.0,0.0,0.0,0.0,0.0,0.0,0.0,0.0,0.0,0.0,0.0,0.0,0.0,0.0,0.0,0.0,0.0,0.0,0.0,0.0,0.0,0.0,0.0,0.0,0.0,0.0,0.0,0.0,0.0,0.0,0.0,0.0,0.0,0.0,0.0,0.0,0.0,0.0,0.0,0.0,0.0,0.0,0.0,0.0,0.0,0.0,0.0,0.0,0.0,0.0,0.0,0.0,0.0,0.0,0.0,0.0,0.0,0.0,0.0,0.0,0.0,0.0,0.0,0.0,0.0,0.0,0.0,0.0,0.0,0.0,0.0,0.0,0.0,0.0,0.0,0.0,0.0,0.0,0.0,0.0,0.0,0.0,0.0,0.0,0.0,0.0,0.0,0.0,0.0,0.0,0.0,0.0,0.0,0.0,0.0,0.0,0.0,0.0,0.0,0.0,0.0,0.0,0.0,0.0,0.0,0.0,0.0,0.0,0.0,0.0,0.0,0.0,0.0,0.0,0.0,0.0,0.0,0.0,0.0,0.0,0.0,0.0,0.0,0.0,0.0,0.0,0.0,0.0,0.0,0.0,0.0,0.0,0.0,0.0,0.0,0.0,0.0,0.0,0.0,0.0,0.0,0.0,0.0,0.0,0.0,0.0,0.0,0.0,0.0,0.0,0.0,0.0,0.0,0.0,0.0,0.0,0.0,0.0,0.0,0.0,0.0,0.0,0.0,0.0,0.0,0.0,0.0,0.0,0.0,0.0,0.0,0.0,0.0,0.0,0.0,0.0,0.0,0.0,0.0,0.0,0.0,0.0,0.0,0.0,0.0,0.0,0.0,0.0,0.0,0.0,0.0,0.0,0.0,0.0,0.0,0.0,0.0,0.0,0.0,0.0,0.0,0.0,0.0,0.0,0.0,0.0,0.0,0.0,0.0,0.0,0.0,0.0,0.0,-1.5147,0.0,0.0,0.0,0.0,0.0,0.0,0.0,0.0,0.0,0.0,0.0,0.0,0.0,0.0,0.0,0.0,0.0,0.0,0.0,0.0,0.0,0.0,0.0,0.0,0.0,0.0,0.0,0.0,0.0,0.0,0.0,0.0,0.0,0.0,0.0,0.0,0.0,0.0,0.0,0.0,0.0,0.0,0.0,0.0,0.0,0.0,0.0,0.0,0.0,0.0,0.0,0.0,0.0,0.0,0.0,0.0,0.0,0.0,0.0,0.0,0.0,0.0,0.0,0.0,0.0,0.0,0.0,0.0,0.0,0.0,0.0,0.0,0.0,0.0,0.0,0.0,0.0,0.0,0.0,0.0,0.0,0.0,0.0,0.0,0.0,0.0,0.0,0.0,0.0,0.0,0.0,0.0,0.0,0.0,0.0,0.0,0.0,0.0,0.0,0.0,0.0,0.0,0.0,0.0,0.0,0.0,0.0,0.0,0.0,0.0,-1.3233,-1.2793,-1.3466,-1.4216,-1.5033,0.0,0.0,0.0,0.0,0.0,0.0,0.0,0.0,0.0,0.0,0.0,0.0,0.0,0.0,0.0,0.0,0.0,0.0,0.0,0.0,0.0,0.0,0.0,0.0,0.0,0.0,0.0,0.0,0.0,0.0,0.0,0.0,0.0,0.0,0.0,0.0,0.0,0.0,0.0,0.0,0.0,0.0,0.0,0.0,0.0,0.0,0.0,0.0,0.0,0.0,0.0,0.0,0.0,0.0,0.0,0.0,0.0,0.0,0.0,0.0,0.0,0.0,0.0,0.0,0.0,0.0,0.0,0.0,0.0,0.0,0.0,0.0,0.0,0.0,0.0,0.0,0.0,0.0,0.0,0.0,0.0,0.0,0.0,0.0,0.0,0.0,0.0,0.0,0.0,0.0,0.0,0.0,0.0,0.0,0.0,0.0,0.0,0.0,0.0,0.0,0.0,0.0,0.0,0.0,0.0,0.0,0.0,0.0,0.0,0.0,0.0,0.0,-1.3901,-1.4934,-1.5796,0.0,0.0,0.0,0.0,0.0,0.0,0.0,0.0,0.0,0.0,0.0,0.0,0.0,0.0,0.0,0.0,0.0,0.0,0.0,0.0,0.0,0.0,0.0,0.0,0.0,0.0,0.0,0.0,0.0,0.0,0.0,0.0,0.0,0.0,0.0,0.0,0.0,0.0,0.0,0.0,0.0,0.0,0.0,0.0,0.0,0.0,0.0,0.0,0.0,0.0,0.0,0.0,0.0,0.0,0.0,0.0,0.0,0.0,0.0,0.0,0.0,0.0,0.0,0.0,0.0,0.0,0.0,0.0,0.0,0.0,0.0,0.0,0.0,0.0,0.0,0.0,0.0,0.0,0.0,0.0,0.0,0.0,0.0,0.0,0.0,0.0,0.0,0.0,0.0,0.0,0.0,0.0,0.0,0.0,0.0,0.0,0.0,0.0,0.0,0.0,0.0,0.0,0.0,0.0,0.0,0.0,0.0,0.0,0.0,0.0,-1.243,-1.3199,-1.4789,0.0,-1.8143,0.0,0.0,0.0,0.0,0.0,0.0,0.0,0.0,0.0,0.0,0.0,0.0,0.0,0.0,0.0,0.0,0.0,0.0,0.0,0.0,0.0,0.0,0.0,0.0,0.0,0.0,0.0,0.0,0.0,0.0,0.0,0.0,0.0,0.0,0.0,0.0,0.0,0.0,0.0,0.0,0.0,0.0,0.0,0.0,0.0,0.0,0.0,0.0,0.0,0.0,0.0,0.0,0.0,0.0,0.0,0.0,0.0,0.0,0.0,0.0,0.0,0.0,0.0,0.0,0.0,0.0,0.0,0.0,0.0,0.0,0.0,0.0,0.0,0.0,0.0,0.0,0.0,0.0,0.0,0.0,0.0,0.0,0.0,0.0,0.0,0.0,0.0,0.0,0.0,0.0,0.0,0.0,0.0,0.0,0.0,0.0,0.0,0.0,0.0,0.0,0.0,0.0,0.0,0.0,0.0,0.0,0.0,0.0,0.0,0.0,-1.2427,-1.3167,-1.4905,-1.6479,0.0,0.0,0.0,0.0,0.0,0.0,0.0,0.0,0.0,0.0,0.0,0.0,0.0,0.0,0.0,0.0,0.0,0.0,0.0,0.0,0.0,0.0,0.0,0.0,0.0,0.0,0.0,0.0,0.0,0.0,0.0,0.0,0.0,0.0,0.0,0.0,0.0,0.0,0.0,0.0,0.0,0.0,0.0,0.0,0.0,0.0,0.0,0.0,0.0,0.0,0.0,0.0,0.0,0.0,0.0,0.0,0.0,0.0,0.0,0.0,0.0,0.0,0.0,0.0,0.0,0.0,0.0,0.0,0.0,0.0,0.0,0.0,0.0,0.0,0.0,0.0,0.0,0.0,0.0,0.0,0.0,0.0,0.0,0.0,0.0,0.0,0.0,0.0,0.0,0.0,0.0,0.0,0.0,0.0,0.0,0.0,0.0,0.0,0.0,0.0,0.0,0.0,0.0,0.0,0.0,0.0,0.0,0.0,0.0,0.0,-1.3362,-1.297,-1.4033,-1.5344,-1.6411,-1.7388,0.0,0.0,0.0,0.0,0.0,0.0,0.0,0.0,0.0,0.0,0.0,0.0,0.0,0.0,0.0,0.0,0.0,0.0,0.0,0.0,0.0,0.0,0.0,0.0,0.0,0.0,0.0,0.0,0.0,0.0,0.0,0.0,0.0,0.0,0.0,0.0,0.0,0.0,0.0,0.0,0.0,0.0,0.0,0.0,0.0,0.0,0.0,0.0,0.0,0.0,0.0,0.0,0.0,0.0,0.0,0.0,0.0,0.0,0.0,0.0,0.0,0.0,0.0,0.0,0.0,0.0,0.0,0.0,0.0,0.0,0.0,0.0,0.0,0.0,0.0,0.0,0.0,0.0,0.0,0.0,0.0,0.0,0.0,0.0,0.0,0.0,0.0,0.0,0.0,0.0,0.0,0.0,0.0,0.0,0.0,0.0,0.0,0.0,0.0,0.0,0.0,0.0,0.0,0.0,0.0,0.0,0.0,0.0,-1.6558,-1.4117,-1.3999,-1.6458,-1.6457,-1.699,0.0,0.0,0.0,0.0,0.0,0.0,0.0,0.0,0.0,0.0,0.0,0.0,0.0,0.0,0.0,0.0,0.0,0.0,0.0,0.0,0.0,0.0,0.0,0.0,0.0,0.0,0.0,0.0,0.0,0.0,0.0,0.0,0.0,0.0,0.0,0.0,0.0,0.0,0.0,0.0,0.0,0.0,0.0,0.0,0.0,0.0,0.0,0.0,0.0,0.0,0.0,0.0,0.0,0.0,0.0,0.0,0.0,0.0,0.0,0.0,0.0,0.0,0.0,0.0,0.0,0.0,0.0,0.0,0.0,0.0,0.0,0.0,0.0,0.0,0.0,0.0,0.0,0.0,0.0,0.0,0.0,0.0,0.0,0.0,0.0,0.0,0.0,0.0,0.0,0.0,0.0,0.0,0.0,0.0,0.0,0.0,0.0,0.0,0.0,0.0,0.0,0.0,0.0,0.0,0.0,0.0,0.0,0.0,0.0,-1.5328,-1.3819,-1.4472,-1.742,-1.6797,-1.7398,0.0,0.0,0.0,0.0,0.0,0.0,0.0,0.0,0.0,0.0,0.0,0.0,0.0,0.0,0.0,0.0,0.0,0.0,0.0,0.0,0.0,0.0,0.0,0.0,0.0,0.0,0.0,0.0,0.0,0.0,0.0,0.0,0.0,0.0,0.0,0.0,0.0,0.0,0.0,0.0,0.0,0.0,0.0,0.0,0.0,0.0,0.0,0.0,0.0,0.0,0.0,0.0,0.0,0.0,0.0,0.0,0.0,0.0,0.0,0.0,0.0,0.0,0.0,0.0,0.0,0.0,0.0,0.0,0.0,0.0,0.0,0.0,0.0,0.0,0.0,0.0,0.0,0.0,0.0,0.0,0.0,0.0,0.0,0.0,0.0,0.0,0.0,0.0,0.0,0.0,0.0,0.0,0.0,0.0,0.0,0.0,0.0,0.0,0.0,0.0,0.0,0.0,0.0,0.0,0.0,0.0,0.0,0.0,0.0,-1.4317,0.0,-1.473,-1.6599,-1.6582,-1.711,0.0,0.0,0.0,0.0,0.0,0.0,0.0,0.0,0.0,0.0,0.0,0.0,0.0,0.0,0.0,0.0,0.0,0.0,0.0,0.0,0.0,0.0,0.0,0.0,0.0,0.0,0.0,0.0,0.0,0.0,0.0,0.0,0.0,0.0,0.0,0.0,0.0,0.0,0.0,0.0,0.0,0.0,0.0,0.0,0.0,0.0,0.0,0.0,0.0,0.0,0.0,0.0,0.0,0.0,0.0,0.0,0.0,0.0,0.0,0.0,0.0,0.0,0.0,0.0,0.0,0.0,0.0,0.0,0.0,0.0,0.0,0.0,0.0,0.0,0.0,0.0,0.0,0.0,0.0,0.0,0.0,0.0,0.0,0.0,0.0,0.0,0.0,0.0,0.0,0.0,0.0,0.0,0.0,0.0,0.0,0.0,0.0,0.0,0.0,0.0,0.0,0.0,0.0,0.0,0.0,0.0,0.0,0.0,-1.4171,-1.3694,-1.4426,-1.4695,-1.4161,-1.5943,-1.6222,0.0,0.0,0.0,0.0,0.0,0.0,0.0,0.0,0.0,0.0,0.0,0.0,0.0,0.0,0.0,0.0,0.0,0.0,0.0,0.0,0.0,0.0,0.0,0.0,0.0,0.0,0.0,0.0,0.0,0.0,0.0,0.0,0.0,0.0,0.0,0.0,0.0,0.0,0.0,0.0,0.0,0.0,0.0,0.0,0.0,0.0,0.0,0.0,0.0,0.0,0.0,0.0,0.0,0.0,0.0,0.0,0.0,0.0,0.0,0.0,0.0,0.0,0.0,0.0,0.0,0.0,0.0,0.0,0.0,0.0,0.0,0.0,0.0,0.0,0.0,0.0,0.0,0.0,0.0,0.0,0.0,0.0,0.0,0.0,0.0,0.0,0.0,0.0,0.0,0.0,0.0,0.0,0.0,0.0,0.0,0.0,0.0,0.0,0.0,0.0,0.0,0.0,0.0,0.0,0.0,0.0,0.0,0.0,0.0,-1.2745,-1.3717,-1.5403,-1.7605,-1.6856,-1.7378,0.0,0.0,0.0,0.0,0.0,0.0,0.0,0.0,0.0,0.0,0.0,0.0,0.0,0.0,0.0,0.0,0.0,0.0,0.0,0.0,0.0,0.0,0.0,0.0,0.0,0.0,0.0,0.0,0.0,0.0,0.0,0.0,0.0,0.0,0.0,0.0,0.0,0.0,0.0,0.0,0.0,0.0,0.0,0.0,0.0,0.0,0.0,0.0,0.0,0.0,0.0,0.0,0.0,0.0,0.0,0.0,0.0,0.0,0.0,0.0,0.0,0.0,0.0,0.0,0.0,0.0,0.0,0.0,0.0,0.0,0.0,0.0,0.0,0.0,0.0,0.0,0.0,0.0,0.0,0.0,0.0,0.0,0.0,0.0,0.0,0.0,0.0,0.0,0.0,0.0,0.0,0.0,0.0,0.0,0.0,0.0,0.0,0.0,0.0,0.0,0.0,0.0,0.0,0.0,0.0,0.0,0.0,0.0,0.0,-1.2209,-1.3232,-1.5157,-1.7671,-1.6565,-1.7241,-2.004,0.0,0.0,0.0,0.0,0.0,0.0,0.0,0.0,0.0,0.0,0.0,0.0,0.0,0.0,0.0,0.0,0.0,0.0,0.0,0.0,0.0,0.0,0.0,0.0,0.0,0.0,0.0,0.0,0.0,0.0,0.0,0.0,0.0,0.0,0.0,0.0,0.0,0.0,0.0,0.0,0.0,0.0,0.0,0.0,0.0,0.0,0.0,0.0,0.0,0.0,0.0,0.0,0.0,0.0,0.0,0.0,0.0,0.0,0.0,0.0,0.0,0.0,0.0,0.0,0.0,0.0,0.0,0.0,0.0,0.0,0.0,0.0,0.0,0.0,0.0,0.0,0.0,0.0,0.0,0.0,0.0,0.0,0.0,0.0,0.0,0.0,0.0,0.0,0.0,0.0,0.0,0.0,0.0,0.0,0.0,0.0,0.0,0.0,0.0,0.0,0.0,0.0,0.0,0.0,0.0,0.0,0.0,0.0,-1.1863,-1.2935,-1.3987,-1.5012,-1.532,-1.6172,0.0,0.0,0.0,0.0,0.0,0.0,0.0,0.0,0.0,0.0,0.0,0.0,0.0,0.0,0.0,0.0,0.0,0.0,0.0,0.0,0.0,0.0,0.0,0.0,0.0,0.0,0.0,0.0,0.0,0.0,0.0,0.0,0.0,0.0,0.0,0.0,0.0,0.0,0.0,0.0,0.0,0.0,0.0,0.0,0.0,0.0,0.0,0.0,0.0,0.0,0.0,0.0,0.0,0.0,0.0,0.0,0.0,0.0,0.0,0.0,0.0,0.0,0.0,0.0,0.0,0.0,0.0,0.0,0.0,0.0,0.0,0.0,0.0,0.0,0.0,0.0,0.0,0.0,0.0,0.0,0.0,0.0,0.0,0.0,0.0,0.0,0.0,0.0,0.0,0.0,0.0,0.0,0.0,0.0,0.0,0.0,0.0,0.0,0.0,0.0,0.0,0.0,0.0,0.0,0.0,0.0,0.0,0.0,0.0,-1.1647,-1.1603,-1.2879,-1.5544,-1.5517,-1.6444,0.0,0.0,0.0,0.0,0.0,0.0,0.0,0.0,0.0,0.0,0.0,0.0,0.0,0.0,0.0,0.0,0.0,0.0,0.0,0.0,0.0,0.0,0.0,0.0,0.0,0.0,0.0,0.0,0.0,0.0,0.0,0.0,0.0,0.0,0.0,0.0,0.0,0.0,0.0,0.0,0.0,0.0,0.0,0.0,0.0,0.0,0.0,0.0,0.0,0.0,0.0,0.0,0.0,0.0,0.0,0.0,0.0,0.0,0.0,0.0,0.0,0.0,0.0,0.0,0.0,0.0,0.0,0.0,0.0,0.0,0.0,0.0,0.0,0.0,0.0,0.0,0.0,0.0,0.0,0.0,0.0,0.0,0.0,0.0,0.0,0.0,0.0,0.0,0.0,0.0,0.0,0.0,0.0,0.0,0.0,0.0,0.0,0.0,0.0,0.0,0.0,0.0,0.0,0.0,0.0,0.0,0.0,0.0,-1.3342,-1.1633,-1.1102,-1.2025,-1.4245,-1.5357,-1.7071,0.0,0.0,0.0,0.0,0.0,0.0,0.0,0.0,0.0,0.0,0.0,0.0,0.0,0.0,0.0,0.0,0.0,0.0,0.0,0.0,0.0,0.0,0.0,0.0,0.0,0.0,0.0,0.0,0.0,0.0,0.0,0.0,0.0,0.0,0.0,0.0,0.0,0.0,0.0,0.0,0.0,0.0,0.0,0.0,0.0,0.0,0.0,0.0,0.0,0.0,0.0,0.0,0.0,0.0,0.0,0.0,0.0,0.0,0.0,0.0,0.0,0.0,0.0,0.0,0.0,0.0,0.0,0.0,0.0,0.0,0.0,0.0,0.0,0.0,0.0,0.0,0.0,0.0,0.0,0.0,0.0,0.0,0.0,0.0,0.0,0.0,0.0,0.0,0.0,0.0,0.0,0.0,0.0,0.0,0.0,0.0,0.0,0.0,0.0,0.0,0.0,0.0,0.0,0.0,0.0,0.0,0.0,0.0,-1.3007,-1.1722,-1.1235,-1.1415,-1.2179,-1.5273,-1.7709,0.0,0.0,0.0,0.0,0.0,0.0,0.0,0.0,0.0,0.0,0.0,0.0,0.0,0.0,0.0,0.0,0.0,0.0,0.0,0.0,0.0,0.0,0.0,0.0,0.0,0.0,0.0,0.0,0.0,0.0,0.0,0.0,0.0,0.0,0.0,0.0,0.0,0.0,0.0,0.0,0.0,0.0,0.0,0.0,0.0,0.0,0.0,0.0,0.0,0.0,0.0,0.0,0.0,0.0,0.0,0.0,0.0,0.0,0.0,0.0,0.0,0.0,0.0,0.0,0.0,0.0,0.0,0.0,0.0,0.0,0.0,0.0,0.0,0.0,0.0,0.0,0.0,0.0,0.0,0.0,0.0,0.0,0.0,0.0,0.0,0.0,0.0,0.0,0.0,0.0,0.0,0.0,0.0,0.0,0.0,0.0,0.0,0.0,0.0,0.0,0.0,0.0,0.0,0.0,0.0,0.0,0.0,0.0,-1.286,-1.1343,-1.1096,-1.1678,-1.2788,-1.566,-1.7434,0.0,0.0,0.0,0.0,0.0,0.0,0.0,0.0,0.0,0.0,0.0,0.0,0.0,0.0,0.0,0.0,0.0,0.0,0.0,0.0,0.0,0.0,0.0,0.0,0.0,0.0,0.0,0.0,0.0,0.0,0.0,0.0,0.0,0.0,0.0,0.0,0.0,0.0,0.0,0.0,0.0,0.0,0.0,0.0,0.0,0.0,0.0,0.0,-2.1796,0.0,0.0,0.0,0.0,0.0,0.0,0.0,0.0,0.0,0.0,0.0,0.0,0.0,0.0,0.0,0.0,0.0,0.0,0.0,0.0,0.0,0.0,0.0,0.0,0.0,0.0,0.0,0.0,0.0,0.0,0.0,0.0,0.0,0.0,0.0,0.0,0.0,0.0,0.0,0.0,0.0,0.0,0.0,0.0,0.0,0.0,0.0,0.0,0.0,0.0,0.0,0.0,0.0,0.0,0.0,0.0,0.0,0.0,0.0,-1.3242,-1.1982,-1.1787,-1.227,-1.3377,-1.5938,-1.7674,0.0,0.0,0.0,0.0,0.0,0.0,0.0,0.0,0.0,0.0,0.0,0.0,0.0,0.0,0.0,0.0,0.0,0.0,0.0,0.0,0.0,0.0,0.0,0.0,0.0,0.0,0.0,0.0,0.0,0.0,0.0,0.0,0.0,0.0,0.0,0.0,0.0,0.0,0.0,0.0,0.0,0.0,0.0,0.0,0.0,0.0,0.0,0.0,0.0,0.0,0.0,0.0,0.0,0.0,0.0,0.0,0.0,0.0,0.0,0.0,0.0,0.0,0.0,0.0,0.0,0.0,0.0,0.0,0.0,0.0,0.0,0.0,0.0,0.0,0.0,0.0,0.0,0.0,0.0,0.0,0.0,0.0,0.0,0.0,0.0,0.0,0.0,0.0,0.0,0.0,0.0,0.0,0.0,0.0,0.0,0.0,0.0,0.0,0.0,0.0,0.0,0.0,0.0,0.0,0.0,0.0,0.0,-1.5658,-1.3767,-1.2651,-1.262,-1.298,-1.3846,-1.6269,-1.8386,-1.983,0.0,0.0,0.0,0.0,0.0,0.0,0.0,0.0,0.0,0.0,0.0,0.0,0.0,0.0,0.0,0.0,0.0,0.0,0.0,0.0,0.0,0.0,0.0,0.0,0.0,0.0,0.0,0.0,0.0,0.0,0.0,0.0,0.0,0.0,0.0,0.0,0.0,0.0,-2.07,-1.8406,0.0,0.0,0.0,0.0,0.0,0.0,0.0,0.0,-2.4297,0.0,0.0,0.0,0.0,0.0,0.0,0.0,0.0,0.0,0.0,0.0,0.0,0.0,0.0,0.0,0.0,0.0,0.0,0.0,0.0,0.0,0.0,0.0,0.0,0.0,0.0,0.0,0.0,0.0,0.0,0.0,0.0,0.0,0.0,0.0,0.0,0.0,0.0,0.0,0.0,0.0,0.0,0.0,0.0,0.0,0.0,0.0,0.0,0.0,0.0,0.0,0.0,0.0,0.0,0.0,0.0,-1.8416,-1.6354,-1.4199,-1.203,-1.3001,-1.3732,-1.4175,-1.738,-1.975,-2.0867,0.0,0.0,0.0,0.0,0.0,0.0,0.0,0.0,0.0,0.0,0.0,0.0,0.0,0.0,0.0,0.0,0.0,0.0,0.0,0.0,0.0,0.0,0.0,0.0,0.0,0.0,0.0,0.0,0.0,0.0,0.0,0.0,0.0,0.0,0.0,0.0,0.0,0.0,0.0,-1.9625,-1.9932,0.0,0.0,0.0,0.0,0.0,0.0,0.0,0.0,-2.5274,0.0,0.0,0.0,0.0,0.0,0.0,0.0,0.0,0.0,0.0,0.0,0.0,0.0,0.0,0.0,0.0,0.0,0.0,0.0,0.0,0.0,0.0,0.0,0.0,0.0,0.0,0.0,0.0,0.0,0.0,0.0,0.0,0.0,0.0,0.0,0.0,0.0,0.0,0.0,0.0,0.0,0.0,0.0,0.0,0.0,0.0,0.0,0.0,0.0,0.0,0.0,0.0,0.0,0.0,0.0,-1.7789,-1.5493,-1.3749,-1.2756,-1.3277,-1.388,-1.4423,-1.7041,-1.9074,0.0,0.0,0.0,0.0,0.0,0.0,0.0,0.0,0.0,0.0,0.0,0.0,0.0,0.0,0.0,0.0,0.0,0.0,0.0,0.0,0.0,0.0,0.0,0.0,0.0,0.0,0.0,0.0,0.0,0.0,0.0,0.0,0.0,0.0,0.0,0.0,0.0,0.0,0.0,0.0,-1.9663,-1.9854,-1.9332,0.0,0.0,0.0,0.0,0.0,0.0,-2.4426,-2.5293,0.0,0.0,0.0,0.0,0.0,0.0,0.0,0.0,0.0,0.0,0.0,0.0,0.0,0.0,0.0,0.0,0.0,0.0,0.0,0.0,0.0,0.0,0.0,0.0,0.0,0.0,0.0,0.0,0.0,0.0,0.0,0.0,0.0,0.0,0.0,0.0,0.0,0.0,0.0,0.0,0.0,0.0,0.0,0.0,0.0,0.0,0.0,0.0,0.0,0.0,0.0,0.0,0.0,0.0,0.0,-1.7394,-1.483,-1.354,-1.341,-1.3723,-1.4084,-1.4775,-1.7361,-1.9063,0.0,0.0,0.0,0.0,0.0,0.0,0.0,0.0,0.0,0.0,0.0,0.0,0.0,0.0,0.0,0.0,0.0,0.0,0.0,0.0,0.0,0.0,0.0,0.0,0.0,0.0,0.0,0.0,0.0,0.0,0.0,0.0,0.0,0.0,0.0,0.0,0.0,0.0,0.0,0.0,0.0,-2.006,-2.0384,-2.105,0.0,0.0,0.0,0.0,-2.4931,-2.5207,0.0,0.0,0.0,0.0,0.0,0.0,0.0,0.0,0.0,0.0,0.0,0.0,0.0,0.0,0.0,0.0,0.0,0.0,0.0,0.0,0.0,0.0,0.0,0.0,0.0,0.0,0.0,0.0,0.0,0.0,0.0,0.0,0.0,0.0,0.0,0.0,0.0,0.0,0.0,0.0,0.0,0.0,0.0,0.0,0.0,0.0,0.0,0.0,0.0,0.0,0.0,0.0,0.0,0.0,0.0,0.0,-1.7811,-1.5503,-1.3926,-1.3184,-1.4217,-1.4987,-1.5493,-2.017,-2.2364,0.0,0.0,0.0,0.0,0.0,0.0,0.0,0.0,0.0,0.0,0.0,0.0,0.0,0.0,0.0,0.0,0.0,0.0,0.0,0.0,0.0,0.0,0.0,0.0,0.0,0.0,0.0,0.0,0.0,0.0,0.0,0.0,0.0,0.0,0.0,0.0,0.0,0.0,0.0,0.0,0.0,-2.2697,-2.0732,-2.2926,-2.4796,0.0,0.0,-2.4801,-2.6235,-2.6042,0.0,0.0,0.0,0.0,0.0,0.0,0.0,0.0,0.0,0.0,0.0,0.0,0.0,0.0,0.0,0.0,0.0,0.0,0.0,0.0,0.0,0.0,0.0,0.0,0.0,0.0,0.0,0.0,0.0,0.0,0.0,0.0,0.0,0.0,0.0,0.0,0.0,0.0,0.0,0.0,0.0,0.0,0.0,0.0,0.0,0.0,0.0,0.0,0.0,0.0,0.0,0.0,0.0,0.0,0.0,-1.6635,-1.7116,-1.4361,-1.3139,-1.3513,-1.4362,-1.5003,-1.5444,-1.9701,-2.1601,0.0,0.0,0.0,0.0,0.0,0.0,0.0,0.0,0.0,0.0,0.0,0.0,0.0,0.0,0.0,0.0,0.0,0.0,0.0,0.0,0.0,0.0,0.0,0.0,0.0,0.0,0.0,0.0,0.0,0.0,0.0,0.0,0.0,0.0,0.0,0.0,0.0,0.0,0.0,0.0,0.0,0.0,-2.2253,-2.3763,0.0,0.0,0.0,-2.6451,-2.8024,0.0,0.0,0.0,0.0,0.0,0.0,0.0,0.0,0.0,0.0,0.0,0.0,0.0,0.0,0.0,0.0,0.0,0.0,0.0,0.0,0.0,0.0,0.0,0.0,0.0,0.0,0.0,0.0,0.0,0.0,0.0,0.0,0.0,0.0,0.0,0.0,0.0,0.0,0.0,0.0,0.0,0.0,0.0,0.0,0.0,0.0,0.0,0.0,0.0,0.0,0.0,0.0,0.0,0.0,0.0,0.0,0.0,-1.6815,-1.3728,-1.2576,-1.3709,-1.4418,-1.5068,-1.5496,-1.8676,0.0,0.0,0.0,0.0,0.0,0.0,0.0,0.0,0.0,0.0,0.0,0.0,0.0,0.0,0.0,0.0,0.0,0.0,0.0,0.0,0.0,0.0,0.0,0.0,0.0,0.0,0.0,-2.3056,0.0,0.0,0.0,0.0,0.0,0.0,0.0,0.0,0.0,0.0,0.0,0.0,0.0,0.0,-2.1877,-2.3699,-2.4758,-2.5395,0.0,0.0,-2.7888,-2.8672,-2.7713,-2.693,0.0,0.0,0.0,0.0,0.0,0.0,0.0,0.0,0.0,0.0,0.0,0.0,0.0,0.0,0.0,0.0,0.0,0.0,0.0,0.0,0.0,0.0,0.0,0.0,0.0,0.0,0.0,0.0,0.0,0.0,0.0,0.0,0.0,0.0,0.0,0.0,0.0,0.0,0.0,0.0,0.0,0.0,0.0,0.0,0.0,0.0,0.0,0.0,0.0,0.0,0.0,0.0,0.0,0.0,0.0,-1.7139,-1.4471,-1.3141,-1.3186,-1.4618,-1.5351,-1.5484,-1.7981,-1.9858,0.0,0.0,0.0,0.0,0.0,0.0,0.0,0.0,0.0,0.0,0.0,0.0,0.0,0.0,0.0,0.0,0.0,0.0,0.0,0.0,0.0,0.0,0.0,0.0,0.0,0.0,0.0,0.0,0.0,0.0,0.0,0.0,0.0,0.0,0.0,0.0,0.0,0.0,0.0,0.0,0.0,-2.2487,-2.4539,-2.6515,-2.7187,0.0,0.0,-2.8974,-2.7469,-2.6854,-2.6219,-2.5809,0.0,0.0,0.0,0.0,0.0,0.0,0.0,0.0,0.0,0.0,0.0,0.0,0.0,0.0,0.0,0.0,0.0,0.0,0.0,0.0,0.0,0.0,0.0,0.0,0.0,0.0,0.0,0.0,0.0,0.0,0.0,0.0,0.0,0.0,0.0,0.0,0.0,0.0,0.0,0.0,0.0,0.0,0.0,0.0,0.0,0.0,0.0,0.0,0.0,0.0,0.0,0.0,0.0,-1.6518,-1.7171,-1.4532,-1.3469,-1.4106,-1.4795,-1.5434,-1.5909,-1.7724,-1.9264,0.0,0.0,0.0,0.0,0.0,0.0,0.0,0.0,0.0,0.0,0.0,0.0,0.0,0.0,0.0,0.0,0.0,0.0,0.0,0.0,0.0,0.0,0.0,0.0,0.0,0.0,0.0,0.0,-2.1024,-2.1306,-2.2412,0.0,0.0,0.0,0.0,0.0,0.0,0.0,0.0,0.0,0.0,-2.3586,-2.4361,-2.5576,0.0,0.0,-2.7502,-2.8182,-2.8603,-2.7736,-2.6958,-2.7122,-2.6891,0.0,0.0,0.0,0.0,0.0,0.0,0.0,0.0,0.0,0.0,0.0,0.0,0.0,0.0,0.0,0.0,0.0,0.0,0.0,0.0,0.0,0.0,0.0,0.0,0.0,0.0,0.0,0.0,0.0,0.0,0.0,0.0,0.0,0.0,0.0,0.0,0.0,0.0,0.0,0.0,0.0,0.0,0.0,0.0,0.0,0.0,0.0,0.0,0.0,0.0,0.0,0.0,-1.6875,-1.7228,-1.4864,-1.3921,-1.4586,-1.507,-1.556,-1.6028,-1.7165,-1.8325,0.0,0.0,0.0,0.0,0.0,0.0,0.0,0.0,0.0,0.0,0.0,0.0,0.0,0.0,0.0,0.0,0.0,0.0,0.0,0.0,0.0,0.0,0.0,0.0,0.0,0.0,0.0,0.0,-2.1522,-2.1787,-2.2703,0.0,0.0,0.0,0.0,0.0,0.0,0.0,0.0,0.0,0.0,-2.3999,-2.5273,-2.5838,-2.6481,-2.7438,-2.7886,-2.8295,-2.8836,-2.7999,-2.7393,-2.7522,0.0,0.0,0.0,0.0,0.0,0.0,0.0,0.0,0.0,0.0,0.0,0.0,0.0,0.0,0.0,0.0,0.0,0.0,0.0,0.0,0.0,0.0,0.0,0.0,0.0,0.0,0.0,0.0,0.0,0.0,-2.3057,0.0,0.0,0.0,0.0,0.0,0.0,0.0,0.0,0.0,0.0,0.0,0.0,0.0,0.0,0.0,0.0,0.0,0.0,0.0,0.0,0.0,0.0,-1.7316,-1.7655,-1.5712,-1.458,-1.4394,-1.5255,-1.5635,-1.554,-1.6218,-1.7086,-1.7995,0.0,0.0,0.0,0.0,0.0,0.0,0.0,0.0,0.0,0.0,0.0,0.0,0.0,0.0,0.0,0.0,0.0,0.0,0.0,0.0,0.0,0.0,0.0,0.0,0.0,0.0,-2.369,-2.3348,-2.3047,0.0,0.0,0.0,0.0,0.0,0.0,0.0,0.0,0.0,0.0,-2.3586,-2.3661,-2.7488,-2.8119,-2.7962,-2.7981,-2.9329,-2.964,-2.7574,-2.7542,-2.729,0.0,0.0,0.0,0.0,0.0,0.0,0.0,0.0,0.0,0.0,0.0,0.0,0.0,0.0,0.0,0.0,0.0,0.0,0.0,0.0,0.0,0.0,0.0,0.0,0.0,0.0,0.0,-1.9303,-2.0058,0.0,0.0,0.0,0.0,0.0,0.0,0.0,0.0,0.0,0.0,0.0,-1.6139,-1.8109,0.0,0.0,0.0,0.0,0.0,0.0,0.0,0.0,0.0,0.0,0.0,0.0,-1.7508,-1.7858,-1.5832,-1.4783,-1.4885,-1.5356,-1.5635,-1.573,-1.6123,-1.6893,-1.8174,0.0,0.0,0.0,0.0,0.0,0.0,0.0,0.0,0.0,0.0,0.0,0.0,0.0,0.0,0.0,0.0,0.0,0.0,0.0,0.0,0.0,0.0,0.0,0.0,0.0,-2.3371,0.0,0.0,0.0,0.0,0.0,0.0,0.0,0.0,0.0,0.0,0.0,-2.5201,-2.521,-2.6182,-2.7024,-2.7292,-2.7311,-2.711,0.0,0.0,0.0,0.0,0.0,0.0,0.0,0.0,0.0,0.0,0.0,0.0,0.0,0.0,-3.3362,-3.1908,-3.1415,-3.1447,-3.2196,0.0,0.0,0.0,0.0,0.0,0.0,0.0,0.0,0.0,0.0,0.0,0.0,0.0,0.0,-1.8243,0.0,-2.0377,0.0,0.0,0.0,0.0,0.0,0.0,0.0,0.0,-1.7059,-1.6591,-1.5785,-1.7377,-1.7923,0.0,-1.8934,-1.9996,0.0,0.0,0.0,0.0,0.0,0.0,0.0,0.0,-1.7864,-1.8308,-1.6074,-1.4981,-1.5267,-1.5452,-1.5642,-1.5825,-1.5927,-1.6551,-1.7571,-1.841,-1.916,0.0,0.0,0.0,0.0,0.0,0.0,0.0,0.0,0.0,0.0,0.0,0.0,0.0,0.0,0.0,0.0,0.0,0.0,0.0,0.0,0.0,0.0,0.0,-2.3897,0.0,0.0,0.0,0.0,0.0,0.0,0.0,0.0,0.0,-2.4516,-2.5479,-2.5977,-2.5277,-2.6721,-2.7708,-2.7554,0.0,0.0,0.0,0.0,0.0,0.0,0.0,-2.887,-3.0057,-2.9126,-2.8646,-2.9737,-3.118,-3.2062,-3.1437,0.0,0.0,-3.2872,-3.2531,-3.2657,-3.3411,-3.3294,-3.3225,-3.362,-3.318,-3.2688,0.0,0.0,0.0,0.0,0.0,0.0,0.0,0.0,-1.4941,-1.5351,0.0,-1.764,0.0,0.0,0.0,0.0,0.0,-1.8784,0.0,0.0,-1.4076,-1.3431,-1.431,-1.5673,-1.6224,-1.6224,-1.9353,-2.0085,-1.8525,-1.7945,0.0,0.0,0.0,0.0,0.0,0.0,-1.839,-1.8891,-1.6358,-1.5172,-1.5445,-1.5737,-1.5825,-1.5818,-1.5744,-1.591,-1.6404,-1.7303,-1.7584,-1.7425,-1.9998,0.0,0.0,0.0,0.0,0.0,0.0,0.0,0.0,0.0,0.0,0.0,0.0,0.0,0.0,0.0,0.0,0.0,0.0,0.0,0.0,-2.4307,0.0,0.0,0.0,0.0,0.0,0.0,0.0,0.0,0.0,0.0,-2.5509,-2.523,-2.5099,-2.5694,0.0,0.0,0.0,0.0,-2.7484,-3.0632,-3.0905,-3.0498,-3.0446,-2.9864,-2.9103,-2.8117,0.0,0.0,-2.9265,-3.1713,-3.3302,-3.2804,-3.2987,-3.3452,-3.3454,-3.3794,-3.4221,-3.4456,-3.436,-3.4327,-3.423,-3.4284,-3.4373,-1.6049,0.0,0.0,0.0,0.0,-1.6068,-1.5987,-1.6336,-1.5743,-1.5658,-1.6014,-1.6708,0.0,0.0,0.0,0.0,0.0,0.0,-1.6642,-1.5745,-1.5,-1.4262,-1.3437,-1.4274,-1.4551,-1.4592,-1.5745,-1.5903,-1.5113,-1.5035,-1.6786,-2.0324,0.0,0.0,0.0,0.0,-1.7947,-1.7431,-1.571,-1.507,-1.5547,-1.554,-1.5737,-1.6123,-1.5831,-1.5915,-1.6447,-1.6455,-1.6986,-1.811,-1.8568,0.0,0.0,0.0,0.0,0.0,0.0,0.0,0.0,0.0,0.0,0.0,0.0,0.0,0.0,0.0,0.0,0.0,0.0,0.0,-2.4532,-2.4447,-2.4988,0.0,0.0,0.0,0.0,0.0,0.0,0.0,0.0,0.0,-2.5524,-2.6607,-2.7408,0.0,0.0,-2.9096,-2.9574,-2.8431,-2.7727,-2.8237,-2.8311,0.0,-2.7187,-2.7657,-2.8226,-2.8594,-2.8921,-2.9322,-2.9587,-3.0294,-3.087,-3.1376,-3.161,-3.1949,-3.2604,-3.3246,-3.3652,-3.3956,-3.4095,-3.4327,-3.4716,-3.419,-3.3542,-1.5465,-1.5726,-1.5993,-1.6302,-1.6417,-1.5779,-1.536,-1.5372,-1.4791,-1.4471,-1.4567,-1.5334,-1.5439,-1.5126,-1.5963,0.0,0.0,0.0,-1.5429,-1.4351,-1.4351,-1.3986,-1.3443,-1.3738,-1.3931,-1.4016,-1.4202,-1.4118,-1.3868,-1.4603,-1.633,-1.9066,0.0,0.0,-2.0,-1.8443,-1.7445,-1.6994,-1.5717,-1.5255,-1.5635,-1.5635,-1.5838,-1.6224,-1.6047,-1.6075,-1.6507,-1.6109,-1.6466,-1.772,-1.7953,-1.8547,0.0,0.0,0.0,0.0,0.0,0.0,0.0,0.0,0.0,0.0,0.0,-2.6611,-2.5667,0.0,0.0,0.0,-2.3328,-2.4008,-2.5083,-2.5497,0.0,0.0,0.0,0.0,0.0,0.0,0.0,-2.6177,-2.5879,-2.5654,-2.5712,-2.6863,-2.7601,-2.7169,-2.8077,-2.8737,-2.869,0.0,-2.684,-2.7133,-2.7367,-2.7357,-2.6545,-2.6943,-2.75,-2.7904,-2.8463,-2.886,-2.9037,-2.9107,-2.9497,-3.0239,-3.0612,-3.105,-3.1685,-3.2463,-3.3154,-3.3386,-3.3546,-3.3822,-3.4235,-3.3661,-3.3091,-1.4822,-1.4883,-1.5795,-1.6062,-1.6028,-1.5654,-1.4598,-1.3204,-1.2664,-1.2465,-1.2569,-1.3604,-1.3891,-1.3545,-1.5289,0.0,-1.4642,-1.4684,-1.4033,-1.2818,-1.2802,-1.318,-1.3864,-1.3937,-1.4016,-1.4298,-1.4298,-1.4298,-1.4388,-1.5677,-1.6425,-1.6532,-1.6359,-1.7095,-1.858,-1.7669,-1.7217,-1.7333,-1.6218,-1.575,-1.5825,-1.5825,-1.5927,-1.613,-1.6218,-1.6275,-1.6451,-1.6213,-1.6162,-1.6667,-1.783,-1.8404,-1.8462,0.0,0.0,0.0,0.0,0.0,0.0,0.0,0.0,0.0,0.0,0.0,0.0,0.0,0.0,0.0,-2.3699,0.0,-2.5359,-2.692,0.0,0.0,0.0,-2.7382,-2.5986,-2.568,-2.545,-2.4941,0.0,0.0,-2.5683,-2.6296,-2.6463,-2.5626,-2.564,-2.6037,-2.6778,-2.5788,-2.5424,-2.6939,-2.7376,-2.7471,-2.7172,-2.7031,-2.6902,-2.6748,-2.6976,-2.7578,-2.803,-2.8571,-2.9024,-2.9577,-3.0114,-3.0758,-3.0984,-3.1825,-3.2513,-3.2895,-3.298,-3.2982,-3.3351,-3.3221,-3.304,-1.5841,-1.5152,-1.5561,-1.5461,-1.5109,-1.4354,-1.3764,-1.3429,-1.2888,-1.2687,-1.2668,-1.2454,-1.2087,-1.1675,-1.2279,-1.2537,-1.2537,-1.2384,-1.2466,-1.2983,-1.3009,-1.3325,-1.3912,-1.4104,-1.4202,-1.4298,-1.4298,-1.4298,-1.4298,-1.4669,-1.5619,-1.6957,-1.7003,-1.7654,-1.9129,-1.895,-1.8486,-1.7743,-1.7464,-1.6791,-1.5832,-1.5825,-1.5832,-1.5927,-1.6123,-1.6278,-1.657,-1.6223,-1.6168,-1.6615,-1.6891,-1.7299,-1.7736,-1.9972,0.0,0.0,0.0,0.0,0.0,0.0,0.0,0.0,0.0,-2.7269,-2.5765,0.0,-2.5768,0.0,-2.4271,-2.4571,-2.5252,-2.5554,0.0,0.0,-2.7654,-2.7782,-2.7704,-2.6835,-2.631,-2.6517,-2.6101,-2.554,-2.5136,-2.5554,-2.5532,-2.4685,-2.5675,-2.6673,-2.697,-2.5769,-2.5108,-2.5793,-2.5412,-2.4876,-2.5305,-2.5689,-2.6163,-2.644,-2.7061,-2.7736,-2.8196,-2.8839,-2.9485,-2.9954,-3.051,-3.1062,-3.1383,-3.1697,-3.1786,-3.2127,-3.2654,-3.3293,-3.3952,-3.3718,-3.3396,-1.5438,-1.5046,-1.5097,-1.5528,-1.5828,-1.4452,-1.3587,-1.3288,-1.306,-1.2795,-1.2606,-1.2158,-1.1884,-1.1663,-1.1791,-1.1854,-1.1954,-1.1761,-1.223,-1.3151,-1.3121,-1.3507,-1.4301,-1.4231,-1.4298,-1.4298,-1.4298,-1.4298,-1.4298,-1.4298,-1.4936,-1.6039,-1.6046,-1.6957,-1.8696,-1.9415,-1.959,-1.9024,-1.8414,-1.7442,-1.6035,-1.5933,-1.6204,-1.6749,-1.7037,-1.7505,-1.8056,-1.7823,-1.7897,-1.8161,-1.8167,-1.8385,-1.8918,-2.0337,-2.1289,0.0,0.0,0.0,0.0,0.0,0.0,0.0,0.0,0.0,0.0,0.0,-2.6206,-2.6177,-2.5312,-2.5155,-2.6109,-2.6229,-2.6449,-2.6781,-2.7076,-2.7043,-2.6657,-2.6164,-2.5769,-2.5581,-2.5127,-2.4624,-2.4,-2.4272,-2.4401,-2.4188,-2.5031,-2.5665,-2.5697,-2.4875,-2.4281,-2.4674,-2.4299,-2.4152,-2.4637,-2.5128,-2.5644,-2.6149,-2.6668,-2.7087,-2.7537,-2.8011,-2.8543,-2.9105,-2.9834,-3.036,-3.0664,-3.1026,-3.1235,-3.1294,-3.1851,-3.2453,-3.2976,-3.2758,-3.2528,-1.4766,-1.4596,-1.4775,-1.5653,-1.6746,-1.4902,-1.4001,-1.3833,-1.3779,-1.338,-1.2731,-1.2465,-1.2436,-1.2432,-1.2471,-1.2389,-1.2162,-1.2192,-1.263,-1.3344,-1.318,-1.3657,-1.4558,-1.4346,-1.4298,-1.4298,-1.4298,-1.4298,-1.4298,-1.4298,-1.4508,-1.5013,-1.5115,-1.6115,-1.826,-1.9806,-2.0523,-2.0473,-1.8993,-1.7633,-1.6414,-1.6501,-1.7131,-1.8126,-1.8419,-1.898,-1.9877,-1.98,-1.9868,-2.0053,-2.0044,-2.0228,-2.0551,-2.1081,-2.1558,0.0,-2.2209,0.0,0.0,0.0,0.0,0.0,0.0,0.0,0.0,-2.5913,-2.6701,-2.7491,-2.6246,-2.5896,-2.6915,-2.7291,-2.6825,-2.564,-2.5908,-2.5719,-2.4597,-2.4809,-2.4666,-2.3802,-2.3999,-2.3781,-2.2942,-2.2989,-2.3402,-2.3982,-2.4053,-2.4254,-2.4237,-2.3923,-2.3772,-2.3872,-2.4053,-2.435,-2.4833,-2.5137,-2.5412,-2.5834,-2.6172,-2.6445,-2.6865,-2.713,-2.7423,-2.812,-2.8987,-2.9508,-2.9406,-3.0081,-3.0567,-3.0384,-3.082,-3.1385,-3.1731,-3.1798,-3.159,-1.5292,-1.4615,-1.478,-1.4739,-1.4588,-1.4053,-1.5377,-1.7749,-1.732,-1.6153,-1.4473,-1.3018,-1.2436,-1.2436,-1.2398,-1.238,-1.238,-1.2342,-1.2651,-1.2964,-1.3288,-1.3603,-1.3993,-1.4234,-1.4298,-1.4298,-1.4298,-1.4298,-1.4298,-1.4298,-1.5249,-1.6985,-1.6985,-1.8134,-2.0475,0.0,0.0,0.0,-1.9,-1.7926,-1.7527,-1.8403,-1.8948,-1.9222,-1.9521,0.0,-1.9877,-1.98,-1.9763,-1.9868,-2.0044,0.0,0.0,0.0,0.0,0.0,0.0,0.0,0.0,0.0,0.0,0.0,-2.5815,-2.6091,-2.5414,-2.624,-2.6845,-2.6897,-2.6453,-2.5959,-2.5698,-2.5305,-2.5011,-2.4874,-2.4739,-2.4781,-2.4898,-2.4808,-2.4637,-2.4477,-2.4144,-2.3605,-2.309,-2.3082,-2.334,-2.4001,-2.3826,-2.3982,-2.4673,-2.4401,-2.4226,-2.4135,-2.4251,-2.4538,-2.4843,-2.5137,-2.5499,-2.6184,-2.6547,-2.695,-2.745,-2.8006,-2.8357,-2.8545,-2.9058,-2.9397,-2.916,-2.9415,-2.9699,-2.9776,-3.0158,-3.0846,-3.1976,-3.2424,-3.2749,-1.5072,0.0,-1.4642,-1.4905,0.0,-1.5171,-1.6557,-1.8708,-1.6584,-1.4943,-1.3724,-1.2855,-1.2436,-1.2446,-1.3197,-1.3467,-1.3472,-1.4229,-1.4548,-1.4429,-1.4294,-1.4173,-1.4154,-1.4277,-1.4231,-1.4308,-1.4406,-1.4503,-1.4497,-1.4364,-1.5164,-1.6735,-1.6599,-1.733,-1.8972,-1.9152,-1.9445,-1.9968,-1.8949,-1.806,-1.7377,-1.7852,-1.8411,-1.9139,-1.9239,0.0,0.0,0.0,0.0,0.0,0.0,0.0,0.0,0.0,0.0,-2.0943,-2.1547,-2.2055,-2.2351,-2.3041,-2.3634,-2.3953,-2.4794,-2.5462,-2.5648,-2.6062,-2.6259,-2.6168,-2.5924,-2.5641,-2.5304,-2.4932,-2.4712,-2.4637,-2.4599,-2.4706,-2.4757,-2.4558,-2.4369,-2.417,-2.3737,-2.3254,-2.3091,-2.2928,-2.3305,-2.4059,-2.398,-2.4012,-2.4678,-2.4416,-2.4072,-2.4189,-2.4251,-2.444,-2.4637,-2.4941,-2.5237,-2.5853,-2.6164,-2.6526,-2.6848,-2.7237,-2.7534,-2.7631,-2.8121,-2.8563,-2.8559,-2.8704,-2.8974,-2.9129,-2.9603,-3.0218,-3.1123,-3.1953,-3.2568,-1.4424,-1.4116,-1.4335,-1.5174,-1.6233,-1.6,-1.6579,-1.7731,0.0,0.0,0.0,-1.2578,-1.2436,-1.245,-1.3711,-1.4235,-1.4251,-1.5532,-1.5853,-1.5315,-1.4962,-1.4741,-1.4548,-1.435,-1.4329,-1.4483,-1.464,-1.4739,-1.4868,-1.4601,-1.4979,-1.577,-1.5697,-1.5952,-1.678,-1.7183,-1.7935,-1.892,-1.8751,-1.8199,-1.7327,-1.7203,-1.7785,-1.9063,-1.9063,-1.9422,-2.0141,-2.0232,-2.0339,-2.0546,-2.0637,-2.0718,-2.106,-2.1338,-2.1507,-2.1606,-2.1952,-2.2176,-2.2358,-2.2634,-2.2888,-2.321,-2.404,-2.4891,-2.5696,-2.5729,-2.5732,-2.5732,-2.5538,-2.5333,-2.5333,-2.503,-2.4862,-2.4631,-2.4738,-2.4733,-2.4517,-2.4358,-2.4081,-2.3719,-2.341,-2.3177,-2.3024,-2.2863,-2.3195,-2.4047,-2.4092,-2.4158,-2.4528,-2.429,-2.399,-2.4251,-2.4341,-2.4341,-2.4637,-2.4833,-2.5072,-2.5589,-2.5724,-2.5828,-2.6025,-2.6181,-2.6368,-2.6763,-2.7116,-2.7569,-2.7801,-2.814,-2.841,-2.8423,-2.9028,-2.9716,-3.0126,-3.1084,-3.1993,-1.403,-1.4102,-1.3667,-1.3872,-1.4322,-1.3859,-1.3699,-1.3983,-1.4688,-1.489,-1.4612,-1.3028,-1.2436,-1.2441,-1.291,-1.292,-1.2702,-1.3168,-1.3386,-1.3345,-1.3438,-1.3846,-1.4217,-1.4286,-1.456,-1.4921,-1.4829,-1.4929,-1.5288,-1.506,-1.5268,-1.5829,-1.5888,-1.6242,-1.7068,-1.7596,-1.7948,-1.8144,-1.8376,-1.8499,-1.8258,-1.9063,-1.9613,-1.9968,-1.996,-2.0051,-2.0232,-2.0141,-2.0331,-2.0546,-2.0637,-2.0447,-2.0158,-2.0538,-2.0546,-2.0027,-2.0564,-2.1247,-2.2035,-2.2427,-2.3284,-2.4623,-2.4912,-2.5065,-2.5179,-2.5535,-2.5732,-2.5732,-2.5645,-2.5645,-2.5635,-2.5235,-2.4966,-2.4976,-2.4646,-2.4454,-2.4437,-2.4228,-2.393,-2.3583,-2.3462,-2.3271,-2.3125,-2.3147,-2.3489,-2.4104,-2.4088,-2.3963,-2.4172,-2.4198,-2.426,-2.444,-2.444,-2.4637,-2.503,-2.5235,-2.5353,-2.5925,-2.5844,-2.5888,-2.6287,-2.6425,-2.6507,-2.6797,-2.7093,-2.7307,-2.7334,-2.7673,-2.8056,-2.8191,-2.8816,-2.9431,-3.0062,-3.0971,-3.1667,-1.3712,-1.3449,-1.3339,-1.3252,-1.3332,-1.3131,-1.3114,-1.3184,-1.3828,-1.4025,-1.3588,-1.2736,-1.2436,-1.2559,-1.353,-1.4025,-1.3915,-1.5037,-1.5136,-1.4565,-1.4564,-1.4443,-1.4428,-1.4421,-1.4717,-1.5106,-1.5095,-1.5305,-1.5679,-1.5295,-1.5537,-1.6319,-1.6539,-1.6786,-1.725,-1.7769,-1.8016,-1.8003,-1.8009,-1.8014,-1.8162,-1.8244,-1.8434,-1.8603,-1.8596,-1.8596,-1.8603,-1.8796,-1.898,-1.9271,-1.9371,-1.9371,-1.9363,-1.9828,-1.9945,-1.9679,-2.0127,-2.0823,-2.1653,-2.2572,-2.3597,-2.4658,-2.4847,-2.5005,-2.542,-2.5625,-2.5645,-2.5538,-2.5635,-2.5732,-2.5732,-2.5333,-2.5115,-2.4989,-2.4711,-2.4524,-2.4369,-2.3991,-2.3704,-2.3539,-2.3329,-2.3248,-2.3173,-2.3347,-2.36,-2.4199,-2.4144,-2.4053,-2.4152,-2.4161,-2.4251,-2.443,-2.4529,-2.4637,-2.502,-2.5034,-2.5112,-2.5457,-2.5491,-2.5584,-2.5815,-2.5973,-2.6237,-2.6332,-2.6561,-2.6808,-2.7056,-2.736,-2.7684,-2.8179,-2.8657,-2.9287,-2.9869,-3.0586,-3.1517,-1.3143,-1.2813,-1.3056,-1.2952,-1.2706,-1.2876,-1.3031,-1.3055,-1.3072,-1.2851,-1.2564,-1.255,-1.255,-1.2673,-1.4025,-1.4647,-1.4894,-1.6178,-1.6374,-1.5539,-1.5304,-1.5104,-1.4826,-1.4663,-1.4769,-1.5269,-1.5419,-1.5738,-1.605,-1.5714,-1.5852,-1.6606,-1.6886,-1.6987,-1.7061,-1.7592,-1.7818,-1.7881,-1.7587,-1.764,-1.7903,-1.7301,-1.7066,-1.7239,-1.7333,-1.7333,-1.7333,-1.7535,-1.7815,-1.8087,-1.8381,-1.8574,-1.8827,-1.9304,-1.9587,-1.9679,-2.0027,-2.0698,-2.1545,-2.2702,-2.376,-2.4438,-2.4697,-2.5093,-2.5489,-2.5645,-2.5635,-2.544,-2.5538,-2.5732,-2.5635,-2.544,-2.5235,-2.4951,-2.4718,-2.4592,-2.4316,-2.391,-2.3595,-2.356,-2.3331,-2.3264,-2.3447,-2.3546,-2.3764,-2.4071,-2.4161,-2.4161,-2.4161,-2.4161,-2.4233,-2.4436,-2.4464,-2.4669,-2.4818,-2.4852,-2.4898,-2.5055,-2.5043,-2.5128,-2.5238,-2.5522,-2.5819,-2.592,-2.6096,-2.6501,-2.6962,-2.7185,-2.7441,-2.8018,-2.8578,-2.9069,-2.9374,-3.0138,-3.1048,-1.2366,-1.2712,-1.2552,-1.2465,-1.2715,-1.2876,-1.2915,-1.3055,-1.2964,-1.2865,-1.2782,-1.2881,-1.2881,-1.2886,-1.334,-1.3568,-1.3568,-1.4229,-1.4553,-1.4429,-1.431,-1.473,-1.5244,-1.4607,-1.4913,-1.6007,-1.5725,-1.6051,-1.6976,-1.6691,-1.6547,-1.664,-1.6486,-1.6506,-1.6727,-1.7095,-1.7317,-1.7582,-1.7464,-1.7533,-1.7867,-1.7309,-1.7059,-1.7333,-1.7333,-1.7333,-1.7355,-1.7535,-1.7815,-1.8087,-1.8388,-1.8566,-1.8827,-1.9304,-1.9587,-1.9587,-2.0027,-2.0802,-2.1823,-2.2911,-2.3869,-2.4545,-2.4977,-2.5256,-2.5323,-2.5538,-2.5732,-2.5635,-2.5645,-2.5635,-2.5635,-2.543,-2.5137,-2.4932,-2.4693,-2.4396,-2.4235,-2.3909,-2.38,-2.3809,-2.3691,-2.3746,-2.3746,-2.3954,-2.4053,-2.4161,-2.4161,-2.4251,-2.4251,-2.4251,-2.4211,-2.4378,-2.4579,-2.4723,-2.4766,-2.4937,-2.4844,-2.4799,-2.4676,-2.4743,-2.4923,-2.5196,-2.5327,-2.5698,-2.6063,-2.6313,-2.6727,-2.7126,-2.736,-2.7765,-2.8359,-2.8856,-2.9227,-2.9699,-3.0464,-1.2274,-1.2174,-1.2186,-1.2242,-1.247,-1.2522,-1.2682,-1.2822,-1.2955,-1.2861,-1.2673,-1.2989,-1.3103,-1.3098,-1.3207,-1.3423,-1.3532,-1.397,-1.4283,-1.4385,-1.4385,-1.4826,-1.5363,-1.537,-1.5583,-1.6311,-1.6194,-1.6523,-1.7101,-1.7087,-1.6819,-1.6513,-1.6486,-1.6612,-1.6776,-1.7124,-1.7505,-1.7704,-1.7692,-1.7696,-1.7753,-1.7384,-1.7239,-1.7347,-1.7508,-1.7618,-1.7618,-1.8006,-1.829,-1.8369,-1.8575,-1.8751,-1.8827,-1.9304,-1.9587,-1.9671,-2.0292,-2.0987,-2.1635,-2.2714,-2.3588,-2.4285,-2.4526,-2.4967,-2.5411,-2.5235,-2.5137,-2.5635,-2.5538,-2.544,-2.544,-2.5039,-2.4735,-2.4627,-2.444,-2.4242,-2.4251,-2.3945,-2.3845,-2.3845,-2.3845,-2.3854,-2.3845,-2.4053,-2.4152,-2.4161,-2.4161,-2.4251,-2.4332,-2.4341,-2.4361,-2.4449,-2.467,-2.467,-2.4598,-2.4361,-2.4359,-2.4234,-2.4148,-2.422,-2.4441,-2.4953,-2.5295,-2.5464,-2.5812,-2.6146,-2.6407,-2.6727,-2.6962,-2.7452,-2.7889,-2.839,-2.8549,-2.9132,-2.9661,-1.1919,-1.1717,-1.1913,-1.2004,-1.2225,-1.2403,-1.2445,-1.2593,-1.2955,-1.2856,-1.2559,-1.2876,-1.3207,-1.3423,-1.3423,-1.3532,-1.3867,-1.4186,-1.4396,-1.46,-1.4713,-1.5047,-1.5476,-1.5678,-1.5998,-1.6424,-1.6624,-1.6942,-1.7239,-1.7191,-1.6927,-1.658,-1.6567,-1.6585,-1.671,-1.7023,-1.726,-1.7638,-1.7616,-1.7588,-1.7662,-1.7538,-1.7465,-1.7486,-1.7779,-1.7905,-1.7816,-1.8399,-1.8647,-1.8453,-1.8769,-1.892,-1.892,-1.9396,-1.9762,-1.9945,-2.0564,-2.1105,-2.1401,-2.2298,-2.3155,-2.3756,-2.4079,-2.4602,-2.5237,-2.5039,-2.5039,-2.543,-2.544,-2.5333,-2.5235,-2.4833,-2.4627,-2.4529,-2.4341,-2.4242,-2.4143,-2.4053,-2.3954,-2.3954,-2.3954,-2.3954,-2.3945,-2.4053,-2.4161,-2.4161,-2.4152,-2.4177,-2.43,-2.4333,-2.4369,-2.4354,-2.4342,-2.432,-2.4185,-2.4062,-2.3789,-2.3841,-2.3857,-2.3891,-2.4003,-2.4775,-2.52,-2.5464,-2.5633,-2.5874,-2.6185,-2.6434,-2.6422,-2.6794,-2.7179,-2.7527,-2.7667,-2.8235,-2.8594,-1.0834,-1.1174,-1.1618,-1.2022,-1.2221,-1.2294,-1.2445,-1.2589,-1.2744,-1.287,-1.2787,-1.2555,-1.2876,-1.3645,-1.364,-1.3862,-1.4191,-1.4396,-1.4606,-1.46,-1.4821,-1.5148,-1.5482,-1.5571,-1.5986,-1.6636,-1.673,-1.7054,-1.7562,-1.7308,-1.7141,-1.7177,-1.6713,-1.6522,-1.6669,-1.6567,-1.6571,-1.7108,-1.716,-1.7196,-1.7305,-1.7633,-1.775,-1.7772,-1.8001,-1.8023,-1.7912,-1.8575,-1.8737,-1.8125,-1.8843,-1.9188,-1.9188,-1.9654,-2.011,-2.0564,-2.0654,-2.0934,-2.1347,-2.1853,-2.2502,-2.328,-2.3785,-2.4206,-2.4982,-2.503,-2.5137,-2.5333,-2.5235,-2.5235,-2.5235,-2.4932,-2.4735,-2.4538,-2.443,-2.4341,-2.4251,-2.4152,-2.4161,-2.4152,-2.4152,-2.4161,-2.4152,-2.4152,-2.4106,-2.4106,-2.4125,-2.4076,-2.3938,-2.4047,-2.4004,-2.3731,-2.3745,-2.3748,-2.3709,-2.3721,-2.3732,-2.3741,-2.3854,-2.4013,-2.4519,-2.4946,-2.5211,-2.538,-2.5475,-2.5695,-2.5975,-2.6039,-2.5926,-2.606,-2.6259,-2.6442,-2.6904,-2.713,-2.7519,-1.1058,-1.1244,-1.1675,-1.1897,-1.2001,-1.217,-1.2321,-1.2259,-1.2534,-1.2651,-1.2588,-1.2659,-1.2989,-1.3423,-1.364,-1.3862,-1.4196,-1.4299,-1.4396,-1.4606,-1.4928,-1.525,-1.5791,-1.6099,-1.653,-1.6955,-1.7166,-1.7371,-1.7575,-1.7468,-1.7439,-1.7469,-1.7265,-1.7255,-1.7337,-1.714,-1.7177,-1.7435,-1.7269,-1.7239,-1.7239,-1.7443,-1.7596,-1.7816,-1.811,-1.8222,-1.803,-1.8495,-1.8719,-1.8588,-1.9031,-1.918,-1.9279,-1.9654,-2.011,-2.0654,-2.0654,-2.0925,-2.1338,-2.1926,-2.2585,-2.3458,-2.389,-2.439,-2.4944,-2.4932,-2.4833,-2.4932,-2.4754,-2.4646,-2.4735,-2.4735,-2.4538,-2.4341,-2.435,-2.4242,-2.4251,-2.4161,-2.4161,-2.4161,-2.4161,-2.4161,-2.4106,-2.3932,-2.3776,-2.3739,-2.3556,-2.3441,-2.3588,-2.3711,-2.3868,-2.3874,-2.3859,-2.394,-2.3721,-2.3457,-2.3399,-2.3583,-2.3754,-2.3937,-2.4358,-2.4775,-2.5031,-2.5115,-2.5295,-2.5421,-2.5692,-2.5931,-2.579,-2.5627,-2.5722,-2.5888,-2.634,-2.6652,-2.7014,-1.1001,-1.1171,-1.1647,-1.1897,-1.2001,-1.2175,-1.2207,-1.2263,-1.2539,-1.2543,-1.2479,-1.2659,-1.2989,-1.3315,-1.3537,-1.3862,-1.4196,-1.4196,-1.4299,-1.4606,-1.4821,-1.525,-1.5891,-1.6311,-1.6743,-1.7173,-1.7477,-1.7589,-1.7589,-1.7589,-1.7593,-1.7626,-1.7627,-1.7687,-1.7732,-1.7561,-1.7541,-1.758,-1.7501,-1.745,-1.7369,-1.7545,-1.7625,-1.7802,-1.8074,-1.8252,-1.823,-1.8598,-1.8814,-1.8785,-1.914,-1.9379,-1.9554,-1.9837,-2.0261,-2.0811,-2.0928,-2.1181,-2.1688,-2.2208,-2.2889,-2.3655,-2.3955,-2.44,-2.4973,-2.4833,-2.4735,-2.4735,-2.4646,-2.444,-2.444,-2.4529,-2.444,-2.4251,-2.4161,-2.4161,-2.4161,-2.4161,-2.4161,-2.4134,-2.4015,-2.4015,-2.4079,-2.3776,-2.3602,-2.3547,-2.3208,-2.3121,-2.3326,-2.3648,-2.3789,-2.386,-2.391,-2.3781,-2.3612,-2.3408,-2.332,-2.3513,-2.3754,-2.3937,-2.4196,-2.4519,-2.4775,-2.4861,-2.4999,-2.521,-2.5438,-2.5711,-2.5678,-2.5402,-2.5315,-2.5419,-2.5887,-2.6288,-2.6611,-1.0558,-1.0914,-1.1526,-1.1877,-1.2196,-1.2294,-1.2454,-1.2461,-1.2636,-1.2552,-1.2346,-1.2441,-1.2767,-1.3207,-1.332,-1.3645,-1.4088,-1.4196,-1.4293,-1.4606,-1.4708,-1.5143,-1.5891,-1.6324,-1.6743,-1.7279,-1.7483,-1.7589,-1.7589,-1.7687,-1.7674,-1.7627,-1.7729,-1.7818,-1.7565,-1.7619,-1.748,-1.7584,-1.7712,-1.7625,-1.745,-1.7904,-1.8037,-1.7829,-1.811,-1.8245,-1.8222,-1.8869,-1.8997,-1.8737,-1.9236,-1.9762,-2.011,-2.0201,-2.0537,-2.1072,-2.1371,-2.1862,-2.2344,-2.2708,-2.3211,-2.3802,-2.3942,-2.4156,-2.4553,-2.4735,-2.4726,-2.4538,-2.4637,-2.4726,-2.4492,-2.4375,-2.4276,-2.4242,-2.4079,-2.4079,-2.406,-2.4125,-2.4143,-2.407,-2.3859,-2.3767,-2.3932,-2.373,-2.3455,-2.3422,-2.3231,-2.3241,-2.3295,-2.3689,-2.3861,-2.3672,-2.3777,-2.3854,-2.3533,-2.3319,-2.3396,-2.3474,-2.3754,-2.3937,-2.4196,-2.4529,-2.47,-2.4786,-2.4861,-2.5041,-2.4902,-2.5205,-2.5127,-2.4963,-2.4974,-2.5109,-2.5528,-2.5975,-2.6161,-1.0547,-1.0789,-1.1277,-1.1687,-1.1933,-1.1875,-1.1915,-1.2072,-1.2109,-1.2086,-1.2137,-1.2332,-1.2767,-1.3207,-1.3315,-1.3645,-1.4191,-1.4196,-1.4304,-1.4401,-1.4928,-1.5458,-1.5891,-1.6643,-1.706,-1.7378,-1.7582,-1.7589,-1.7694,-1.7799,-1.7911,-1.8192,-1.8345,-1.8615,-1.8661,-1.8303,-1.8149,-1.8294,-1.7712,-1.7625,-1.7925,-1.7969,-1.7969,-1.8103,-1.8386,-1.8502,-1.8495,-1.8667,-1.8776,-1.8658,-1.9112,-1.9563,-1.9928,-2.0201,-2.0534,-2.101,-2.1458,-2.1904,-2.2371,-2.2957,-2.3487,-2.3855,-2.4165,-2.438,-2.451,-2.451,-2.4501,-2.4322,-2.4341,-2.4258,-2.3892,-2.3828,-2.3818,-2.373,-2.373,-2.3629,-2.3501,-2.3593,-2.3712,-2.3758,-2.3859,-2.3904,-2.3703,-2.3487,-2.3241,-2.3057,-2.2978,-2.299,-2.3053,-2.3448,-2.3769,-2.3687,-2.3841,-2.373,-2.3381,-2.3226,-2.3302,-2.3477,-2.374,-2.3912,-2.419,-2.4454,-2.454,-2.4711,-2.4775,-2.4861,-2.4719,-2.4686,-2.4803,-2.4876,-2.4966,-2.523,-2.5455,-2.5676,-2.591,-1.0547,-1.0781,-1.1086,-1.1483,-1.1833,-1.172,-1.1752,-1.1979,-1.189,-1.2013,-1.2128,-1.2223,-1.255,-1.3098,-1.3207,-1.3537,-1.3975,-1.4083,-1.4196,-1.4304,-1.4724,-1.5357,-1.5891,-1.6749,-1.7384,-1.7589,-1.7589,-1.7589,-1.7589,-1.7799,-1.801,-1.822,-1.8541,-1.8743,-1.8916,-1.8673,-1.8599,-1.8571,-1.8105,-1.7955,-1.8094,-1.816,-1.816,-1.8326,-1.8633,-1.872,-1.8693,-1.8769,-1.8784,-1.8859,-1.9112,-1.9563,-2.0019,-2.0201,-2.0525,-2.0981,-2.1357,-2.1838,-2.2297,-2.2939,-2.3515,-2.3836,-2.4026,-2.4147,-2.4221,-2.4203,-2.3985,-2.38,-2.3684,-2.3602,-2.3478,-2.3327,-2.3272,-2.3192,-2.3244,-2.3263,-2.3085,-2.3158,-2.3501,-2.3666,-2.3739,-2.3657,-2.3597,-2.3213,-2.3038,-2.2784,-2.2706,-2.2794,-2.2843,-2.3095,-2.3305,-2.3443,-2.3338,-2.3193,-2.3063,-2.3128,-2.3277,-2.3513,-2.377,-2.3835,-2.3995,-2.4372,-2.454,-2.4625,-2.47,-2.4882,-2.4876,-2.4894,-2.4937,-2.5036,-2.502,-2.5098,-2.5253,-2.5535,-2.5758,-1.0418,-1.0755,-1.0975,-1.1366,-1.1879,-1.1806,-1.1876,-1.2149,-1.2101,-1.2128,-1.2219,-1.2219,-1.2422,-1.2856,-1.3151,-1.3465,-1.3706,-1.403,-1.4137,-1.4256,-1.4385,-1.4934,-1.5992,-1.6749,-1.7272,-1.7589,-1.7589,-1.7582,-1.7694,-1.7793,-1.7799,-1.8122,-1.8436,-1.8534,-1.8679,-1.8738,-1.8687,-1.8644,-1.8629,-1.8379,-1.8013,-1.8438,-1.8618,-1.8402,-1.8889,-1.9092,-1.9062,-1.9201,-1.9169,-1.8976,-1.9304,-1.9779,-2.0144,-2.0309,-2.0454,-2.0873,-2.1415,-2.1768,-2.2223,-2.2744,-2.3229,-2.3678,-2.3502,-2.3448,-2.3706,-2.3548,-2.3381,-2.3098,-2.3079,-2.31,-2.3139,-2.3082,-2.2907,-2.2769,-2.2815,-2.3006,-2.3258,-2.3039,-2.3281,-2.3772,-2.3446,-2.3155,-2.3623,-2.3214,-2.2978,-2.2905,-2.2701,-2.2824,-2.3037,-2.312,-2.2909,-2.2928,-2.3016,-2.2812,-2.2778,-2.2945,-2.3018,-2.341,-2.375,-2.3988,-2.4041,-2.4312,-2.447,-2.4575,-2.4566,-2.4775,-2.4854,-2.4719,-2.477,-2.4814,-2.4842,-2.492,-2.5123,-2.5407,-2.5688,-1.024,-1.0614,-1.0573,-1.1,-1.146,-1.156,-1.1668,-1.1762,-1.1923,-1.2005,-1.2114,-1.2219,-1.2464,-1.2971,-1.3077,-1.3298,-1.3561,-1.3757,-1.4028,-1.4272,-1.4432,-1.5238,-1.6305,-1.6736,-1.716,-1.7582,-1.7589,-1.7694,-1.7911,-1.8108,-1.8325,-1.866,-1.8855,-1.9063,-1.9117,-1.8855,-1.8935,-1.8935,-1.8542,-1.8503,-1.8533,-1.8836,-1.9011,-1.8985,-1.9399,-1.969,-1.9657,-1.9534,-1.9295,-1.9144,-1.9387,-1.9895,-2.0323,-2.0337,-2.0546,-2.1032,-2.1499,-2.1904,-2.214,-2.274,-2.3148,-2.3174,-2.3054,-2.3082,-2.3183,-2.3204,-2.3139,-2.3054,-2.3045,-2.2991,-2.2714,-2.2749,-2.2694,-2.2428,-2.2447,-2.2575,-2.2694,-2.285,-2.3061,-2.3389,-2.3268,-2.328,-2.3241,-2.3218,-2.3085,-2.3055,-2.3027,-2.3021,-2.3127,-2.3042,-2.2806,-2.2945,-2.2998,-2.2694,-2.2573,-2.2655,-2.2951,-2.3299,-2.3763,-2.4263,-2.4252,-2.4409,-2.4441,-2.4451,-2.4302,-2.4416,-2.4284,-2.4117,-2.4273,-2.4602,-2.4676,-2.4778,-2.5052,-2.5407,-2.5618,-0.9737,-1.031,-1.0358,-1.0647,-1.1081,-1.1329,-1.1563,-1.1691,-1.1896,-1.2114,-1.211,-1.2223,-1.237,-1.269,-1.3011,-1.3203,-1.3346,-1.365,-1.387,-1.3926,-1.4334,-1.5234,-1.6274,-1.6624,-1.7054,-1.7694,-1.7799,-1.7905,-1.8115,-1.8318,-1.8534,-1.8869,-1.9071,-1.9175,-1.9264,-1.9111,-1.8994,-1.9001,-1.8672,-1.8511,-1.8394,-1.8825,-1.8873,-1.8949,-1.9384,-1.9735,-1.972,-1.9328,-1.922,-1.9336,-1.9496,-1.9862,-2.0281,-2.0329,-2.0494,-2.0801,-2.126,-2.1617,-2.1661,-2.2217,-2.2594,-2.2602,-2.2575,-2.2557,-2.2695,-2.2843,-2.2722,-2.2685,-2.2814,-2.2592,-2.2453,-2.2574,-2.2492,-2.2135,-2.2318,-2.241,-2.2318,-2.2538,-2.2758,-2.3037,-2.3075,-2.3083,-2.2966,-2.3095,-2.3055,-2.2978,-2.2886,-2.2909,-2.3062,-2.288,-2.2645,-2.2686,-2.2585,-2.224,-2.2029,-2.2119,-2.2662,-2.3036,-2.3671,-2.4299,-2.4333,-2.4344,-2.4196,-2.4179,-2.4036,-2.3928,-2.3841,-2.3841,-2.4183,-2.4448,-2.4533,-2.4718,-2.4921,-2.5253,-2.5465,-0.9336,-1.0137,-1.0226,-1.0414,-1.0695,-1.1317,-1.1581,-1.1678,-1.1891,-1.2223,-1.2332,-1.2114,-1.229,-1.2516,-1.2974,-1.3128,-1.3126,-1.3577,-1.3706,-1.3871,-1.4255,-1.5025,-1.6033,-1.6486,-1.7047,-1.7701,-1.7911,-1.8073,-1.8262,-1.8373,-1.861,-1.8805,-1.8923,-1.9078,-1.925,-1.9206,-1.9052,-1.8855,-1.8708,-1.8379,-1.8191,-1.8491,-1.8724,-1.861,-1.9213,-1.9555,-1.9375,-1.9207,-1.9176,-1.9496,-1.9579,-1.9929,-2.0312,-2.0429,-2.0429,-2.0572,-2.0963,-2.1238,-2.1122,-2.1653,-2.1924,-2.2162,-2.1961,-2.1968,-2.2416,-2.2395,-2.2326,-2.2424,-2.2293,-2.2396,-2.2471,-2.2405,-2.2283,-2.2069,-2.2362,-2.2473,-2.2373,-2.23,-2.2474,-2.2879,-2.2787,-2.2856,-2.2896,-2.2936,-2.2824,-2.3001,-2.2904,-2.2788,-2.2684,-2.2442,-2.2239,-2.203,-2.1847,-2.1568,-2.145,-2.146,-2.2164,-2.2835,-2.3556,-2.4078,-2.4068,-2.4068,-2.3908,-2.3726,-2.3649,-2.3621,-2.3646,-2.3827,-2.4037,-2.4221,-2.4307,-2.4418,-2.4634,-2.4981,-2.5324,-0.962,-1.0052,-1.0019,-1.0246,-1.0757,-1.1367,-1.1568,-1.1678,-1.211,-1.2332,-1.2332,-1.2332,-1.2567,-1.2849,-1.3077,-1.3136,-1.3418,-1.3613,-1.3887,-1.4173,-1.4407,-1.4806,-1.5482,-1.6076,-1.6717,-1.7345,-1.7793,-1.7991,-1.8163,-1.8558,-1.883,-1.884,-1.8993,-1.9264,-1.9213,-1.8979,-1.8869,-1.8745,-1.854,-1.8309,-1.8245,-1.8559,-1.8888,-1.8812,-1.9445,-1.9557,-1.9431,-1.9477,-1.9479,-1.9369,-1.9504,-2.0054,-2.0763,-2.0814,-2.0788,-2.1069,-2.1252,-2.1407,-2.1365,-2.1562,-2.1857,-2.2039,-2.1922,-2.1857,-2.219,-2.2349,-2.2353,-2.2441,-2.2539,-2.2574,-2.2513,-2.2435,-2.2388,-2.2398,-2.2372,-2.2435,-2.2438,-2.2488,-2.2702,-2.2975,-2.2948,-2.285,-2.3017,-2.3047,-2.2987,-2.3068,-2.2842,-2.2654,-2.2392,-2.2084,-2.1944,-2.1767,-2.1741,-2.1665,-2.1655,-2.1665,-2.2224,-2.2741,-2.3315,-2.3731,-2.3738,-2.377,-2.3541,-2.3414,-2.333,-2.3426,-2.3555,-2.3616,-2.3812,-2.3943,-2.4116,-2.4418,-2.4634,-2.4909,-2.5182,-0.9063,-0.9387,-0.984,-1.0081,-1.0378,-1.1021,-1.1459,-1.1678,-1.2005,-1.2332,-1.2327,-1.2436,-1.2586,-1.2924,-1.3123,-1.3234,-1.3429,-1.3502,-1.3685,-1.4061,-1.4268,-1.4684,-1.5322,-1.5856,-1.6458,-1.6975,-1.7483,-1.7789,-1.8051,-1.8325,-1.8607,-1.8584,-1.876,-1.8767,-1.8818,-1.8642,-1.8474,-1.8313,-1.8174,-1.8022,-1.808,-1.8419,-1.8766,-1.8871,-1.9178,-1.9272,-1.9121,-1.9191,-1.9188,-1.9244,-1.9496,-2.0004,-2.0678,-2.0812,-2.0922,-2.1067,-2.1384,-2.1354,-2.1329,-2.1642,-2.1928,-2.2097,-2.1919,-2.2097,-2.2274,-2.2441,-2.253,-2.2706,-2.2725,-2.2732,-2.2475,-2.2584,-2.2593,-2.2413,-2.2503,-2.2504,-2.2337,-2.2349,-2.2503,-2.2824,-2.2859,-2.2851,-2.296,-2.2949,-2.2883,-2.2782,-2.2534,-2.2332,-2.2135,-2.1891,-2.1881,-2.1773,-2.1845,-2.1894,-2.1959,-2.2132,-2.2401,-2.2746,-2.3069,-2.3308,-2.3373,-2.3286,-2.3232,-2.3199,-2.3209,-2.3293,-2.3397,-2.353,-2.3751,-2.397,-2.4261,-2.449,-2.4706,-2.4909,-2.5194,-0.845,-0.8894,-0.9574,-0.9831,-1.0048,-1.0802,-1.135,-1.1568,-1.1891,-1.2219,-1.2332,-1.2441,-1.2758,-1.297,-1.3239,-1.3336,-1.3378,-1.325,-1.339,-1.3679,-1.38,-1.4342,-1.4989,-1.5601,-1.604,-1.6613,-1.7223,-1.7638,-1.7967,-1.8238,-1.8527,-1.8445,-1.8408,-1.8533,-1.8438,-1.824,-1.813,-1.794,-1.7905,-1.7853,-1.7811,-1.8062,-1.8435,-1.8798,-1.8899,-1.8923,-1.8891,-1.906,-1.9112,-1.9279,-1.9571,-2.0027,-2.0309,-2.0642,-2.0841,-2.0876,-2.1309,-2.1428,-2.141,-2.1731,-2.2008,-2.2185,-2.2185,-2.2353,-2.2618,-2.2618,-2.2706,-2.2794,-2.2882,-2.2637,-2.2274,-2.241,-2.2489,-2.2391,-2.2549,-2.2514,-2.2361,-2.2157,-2.2299,-2.237,-2.2524,-2.2629,-2.2676,-2.2719,-2.2615,-2.2503,-2.225,-2.2033,-2.185,-2.1818,-2.1783,-2.1793,-2.1828,-2.1959,-2.2101,-2.2402,-2.2682,-2.2778,-2.3003,-2.3003,-2.3078,-2.3121,-2.309,-2.3099,-2.3108,-2.3235,-2.3446,-2.3593,-2.3813,-2.4116,-2.4334,-2.4418,-2.4634,-2.4849,-2.5194,-0.8423,-0.9303,-0.9186,-0.9607,-1.0472,-1.0907,-1.124,-1.1678,-1.2114,-1.2327,-1.2441,-1.2659,-1.2881,-1.3166,-1.3316,-1.3435,-1.3404,-1.3227,-1.3192,-1.3353,-1.3543,-1.401,-1.4521,-1.5325,-1.5673,-1.6058,-1.6885,-1.7562,-1.795,-1.8554,-1.8549,-1.8664,-1.8599,-1.8584,-1.8394,-1.8211,-1.7874,-1.7838,-1.7771,-1.771,-1.7845,-1.8195,-1.8566,-1.8735,-1.8827,-1.8827,-1.9012,-1.9379,-1.9646,-1.9646,-2.0365,-2.0727,-2.087,-2.0998,-2.1121,-2.1313,-2.1479,-2.1626,-2.1786,-2.183,-2.2185,-2.2441,-2.2441,-2.2441,-2.2706,-2.2794,-2.2794,-2.2882,-2.2784,-2.253,-2.2627,-2.2539,-2.2451,-2.2539,-2.2589,-2.2543,-2.2399,-2.2331,-2.2159,-2.2152,-2.2252,-2.2355,-2.2468,-2.2482,-2.2329,-2.2281,-2.2127,-2.1968,-2.1845,-2.1807,-2.1828,-2.1818,-2.1807,-2.2025,-2.2252,-2.2628,-2.2948,-2.2948,-2.3034,-2.3034,-2.3023,-2.3012,-2.3001,-2.3075,-2.315,-2.3298,-2.3446,-2.3666,-2.3886,-2.4116,-2.4273,-2.4418,-2.4706,-2.4992,-2.5194,-0.8103,-0.8494,-0.893,-0.9482,-1.0143,-1.0798,-1.124,-1.1568,-1.2001,-1.2332,-1.255,-1.2659,-1.2989,-1.3362,-1.3285,-1.332,-1.3415,-1.3385,-1.3342,-1.3532,-1.3814,-1.4225,-1.4533,-1.5259,-1.5778,-1.6296,-1.6908,-1.7237,-1.7274,-1.7745,-1.8171,-1.8177,-1.814,-1.8035,-1.8088,-1.7721,-1.7684,-1.772,-1.7717,-1.7822,-1.8102,-1.8473,-1.8651,-1.8735,-1.8827,-1.8819,-1.9096,-1.9288,-1.9646,-1.9828,-2.0275,-2.0727,-2.0969,-2.1165,-2.1407,-2.1508,-2.159,-2.1699,-2.1956,-2.1919,-2.2362,-2.2715,-2.2706,-2.2706,-2.2882,-2.2882,-2.2882,-2.2969,-2.296,-2.2696,-2.2618,-2.2618,-2.2618,-2.2627,-2.2706,-2.2679,-2.2475,-2.2368,-2.2158,-2.1974,-2.1981,-2.206,-2.2152,-2.2086,-2.204,-2.2028,-2.1961,-2.1902,-2.1828,-2.1807,-2.1883,-2.1959,-2.2025,-2.2252,-2.2478,-2.2767,-2.3001,-2.3001,-2.3001,-2.3001,-2.3001,-2.3075,-2.3075,-2.315,-2.3298,-2.3294,-2.3604,-2.3824,-2.397,-2.4189,-2.4383,-2.4587,-2.4826,-2.5135,-2.5216,-0.7739,-0.7829,-0.8712,-0.9379,-0.982,-1.0582,-1.124,-1.1678,-1.211,-1.2441,-1.2876,-1.2762,-1.3063,-1.3388,-1.3351,-1.3227,-1.3452,-1.343,-1.3618,-1.3734,-1.4004,-1.457,-1.5005,-1.5506,-1.583,-1.6388,-1.6863,-1.6767,-1.7105,-1.7484,-1.7618,-1.789,-1.7662,-1.7529,-1.7792,-1.7668,-1.7557,-1.7714,-1.7815,-1.8009,-1.8473,-1.8651,-1.8735,-1.8827,-1.8827,-1.892,-1.9188,-1.9371,-1.9654,-2.0019,-2.0382,-2.0736,-2.1105,-2.1383,-2.1482,-2.1482,-2.1571,-2.1651,-2.1909,-2.2087,-2.2451,-2.2794,-2.2882,-2.2969,-2.2969,-2.2969,-2.2979,-2.3057,-2.3057,-2.2882,-2.2706,-2.2794,-2.2794,-2.2794,-2.2853,-2.2901,-2.2627,-2.2334,-2.1963,-2.1781,-2.1732,-2.1686,-2.1839,-2.197,-2.1913,-2.1941,-2.1881,-2.185,-2.1807,-2.1883,-2.1959,-2.2111,-2.2252,-2.2553,-2.2703,-2.2841,-2.3001,-2.3001,-2.3001,-2.3001,-2.3075,-2.3075,-2.3158,-2.3183,-2.3201,-2.3301,-2.3593,-2.3959,-2.4127,-2.4322,-2.4492,-2.4601,-2.4696,-2.4634,-2.4662,-0.7249,-0.8374,-0.8266,-0.904,-1.0363,-1.0692,-1.1236,-1.2005,-1.2441,-1.2772,-1.2965,-1.329,-1.3403,-1.3372,-1.3405,-1.3275,-1.3274,-1.3419,-1.3596,-1.3756,-1.3916,-1.431,-1.4539,-1.5162,-1.5622,-1.6108,-1.6622,-1.7288,-1.7357,-1.7602,-1.7891,-1.8103,-1.8044,-1.8125,-1.8093,-1.7811,-1.7815,-1.7994,-1.8087,-1.8272,-1.8643,-1.8635,-1.8619,-1.8711,-1.8788,-1.8864,-1.9131,-1.9422,-1.9837,-2.0292,-2.0843,-2.1212,-2.1392,-2.1741,-2.183,-2.1741,-2.1562,-2.1651,-2.2167,-2.2264,-2.2441,-2.2882,-2.2969,-2.3047,-2.3047,-2.3057,-2.3057,-2.3057,-2.2969,-2.2891,-2.2882,-2.2882,-2.2882,-2.2969,-2.296,-2.292,-2.2607,-2.2457,-2.2046,-2.1617,-2.1499,-2.151,-2.1534,-2.1665,-2.1803,-2.1783,-2.1772,-2.1818,-2.1883,-2.2035,-2.2187,-2.2327,-2.2478,-2.2703,-2.2852,-2.2927,-2.299,-2.299,-2.2903,-2.2966,-2.2963,-2.2948,-2.3045,-2.3077,-2.3093,-2.3176,-2.3444,-2.3746,-2.4181,-2.4244,-2.4213,-2.426,-2.435,-2.4261,-2.4169,-0.7091,-0.782,-0.8152,-0.8927,-1.0025,-1.0688,-1.135,-1.2005,-1.2436,-1.2695,-1.2924,-1.3021,-1.3046,-1.3033,-1.3173,-1.3281,-1.3288,-1.3443,-1.3732,-1.3972,-1.4231,-1.4443,-1.4781,-1.513,-1.5434,-1.583,-1.632,-1.6682,-1.7166,-1.7491,-1.7757,-1.814,-1.8028,-1.8097,-1.8259,-1.8085,-1.8109,-1.828,-1.8465,-1.8558,-1.8688,-1.8561,-1.8451,-1.8533,-1.8541,-1.8723,-1.9052,-1.9289,-1.9903,-2.0464,-2.0826,-2.0899,-2.1024,-2.111,-2.1056,-2.0889,-2.1107,-2.166,-2.2217,-2.2432,-2.2618,-2.2794,-2.2979,-2.2882,-2.2969,-2.3057,-2.3057,-2.3144,-2.3047,-2.2969,-2.2969,-2.2969,-2.2969,-2.296,-2.3028,-2.2794,-2.2627,-2.2601,-2.235,-2.1787,-2.1362,-2.1457,-2.142,-2.1446,-2.1609,-2.1675,-2.1752,-2.1894,-2.2035,-2.2338,-2.2488,-2.2703,-2.2777,-2.2841,-2.2927,-2.3001,-2.2968,-2.2914,-2.2608,-2.2648,-2.2694,-2.2739,-2.2786,-2.2759,-2.2693,-2.2865,-2.3222,-2.3408,-2.3583,-2.3758,-2.3839,-2.3857,-2.3895,-2.397,-2.399,-0.7043,-0.7379,-0.8045,-0.8816,-0.9688,-1.053,-1.1381,-1.2031,-1.229,-1.2617,-1.2805,-1.283,-1.2823,-1.2968,-1.3248,-1.3498,-1.3642,-1.3738,-1.4022,-1.4383,-1.4564,-1.4758,-1.4889,-1.508,-1.5358,-1.573,-1.6137,-1.6455,-1.6812,-1.7088,-1.7586,-1.7994,-1.8077,-1.8132,-1.8303,-1.8295,-1.8288,-1.8481,-1.8643,-1.8735,-1.8772,-1.8576,-1.843,-1.8489,-1.8546,-1.8702,-1.9109,-1.9298,-1.9994,-2.0546,-2.0596,-2.0518,-2.0694,-2.0716,-2.0562,-2.0476,-2.0784,-2.1491,-2.2061,-2.2328,-2.2677,-2.2706,-2.2687,-2.2658,-2.2533,-2.2775,-2.3057,-2.2969,-2.3057,-2.2969,-2.2969,-2.3057,-2.296,-2.2863,-2.296,-2.2736,-2.2598,-2.2467,-2.2399,-2.1984,-2.167,-2.1547,-2.1531,-2.1399,-2.1436,-2.1589,-2.1731,-2.1883,-2.2101,-2.2413,-2.2628,-2.2777,-2.2777,-2.2841,-2.2927,-2.299,-2.2968,-2.2772,-2.2466,-2.2358,-2.238,-2.2332,-2.234,-2.232,-2.223,-2.24,-2.2605,-2.2776,-2.3014,-2.3267,-2.3438,-2.3447,-2.349,-2.3586,-2.3595,-0.7379,-0.7607,-0.7934,-0.8813,-1.012,-1.0393,-1.1087,-1.2032,-1.2173,-1.2403,-1.2746,-1.3175,-1.3363,-1.3457,-1.3601,-1.3785,-1.3829,-1.4406,-1.4496,-1.4598,-1.4712,-1.4737,-1.491,-1.5019,-1.5223,-1.5452,-1.592,-1.64,-1.6878,-1.7153,-1.7434,-1.7729,-1.8102,-1.8388,-1.8481,-1.8473,-1.8473,-1.8566,-1.8743,-1.8819,-1.8824,-1.8731,-1.8627,-1.8779,-1.8856,-1.9175,-1.9505,-1.9555,-1.9977,-2.0683,-2.0366,-2.0386,-2.0421,-2.0399,-2.0211,-2.018,-2.0752,-2.1371,-2.1738,-2.2129,-2.2435,-2.2589,-2.2551,-2.2233,-2.2025,-2.2543,-2.2755,-2.2882,-2.2969,-2.3057,-2.3057,-2.3105,-2.2814,-2.2716,-2.2648,-2.2539,-2.2363,-2.2379,-2.2227,-2.2063,-2.191,-2.1734,-2.1696,-2.1543,-2.1512,-2.1655,-2.1807,-2.1949,-2.2176,-2.2402,-2.2553,-2.2703,-2.2703,-2.2852,-2.3001,-2.2936,-2.2834,-2.255,-2.2221,-2.2088,-2.2065,-2.207,-2.1823,-2.1856,-2.1841,-2.1907,-2.2007,-2.2189,-2.2472,-2.2846,-2.3011,-2.2965,-2.3007,-2.3177,-2.3131,-0.7379,-0.7607,-0.7937,-0.8546,-0.9548,-1.0126,-1.078,-1.1417,-1.1855,-1.225,-1.2723,-1.3204,-1.3481,-1.3556,-1.3619,-1.3738,-1.3931,-1.4304,-1.4592,-1.4694,-1.479,-1.4885,-1.4981,-1.5077,-1.5185,-1.5356,-1.5737,-1.6021,-1.6211,-1.7059,-1.7535,-1.7822,-1.8288,-1.8566,-1.8658,-1.8635,-1.8635,-1.8635,-1.8719,-1.8812,-1.8932,-1.8781,-1.8742,-1.8905,-1.8692,-1.8982,-1.9296,-1.9146,-1.9711,-2.0223,-2.0041,-2.0079,-2.0166,-2.0086,-1.9986,-1.9929,-2.0613,-2.1193,-2.1598,-2.1855,-2.2015,-2.1826,-2.1864,-2.191,-2.1654,-2.2195,-2.258,-2.2803,-2.2862,-2.2911,-2.3018,-2.29,-2.2656,-2.2529,-2.2383,-2.2301,-2.2154,-2.2158,-2.2116,-2.195,-2.1837,-2.1732,-2.1717,-2.1741,-2.1731,-2.1807,-2.1883,-2.2014,-2.2199,-2.2371,-2.2585,-2.2723,-2.2723,-2.2776,-2.2914,-2.2812,-2.2688,-2.2336,-2.2066,-2.1929,-2.1834,-2.1296,-2.1169,-2.1285,-2.1426,-2.1537,-2.1594,-2.1652,-2.1997,-2.2425,-2.2521,-2.2357,-2.249,-2.2801,-2.2922,-0.7493,-0.7715,-0.8048,-0.8513,-0.9244,-1.004,-1.0657,-1.112,-1.155,-1.2163,-1.2793,-1.3316,-1.3636,-1.3636,-1.3829,-1.4022,-1.431,-1.4586,-1.4777,-1.4975,-1.5172,-1.5172,-1.5172,-1.5267,-1.5274,-1.5363,-1.5648,-1.5927,-1.6407,-1.7153,-1.7621,-1.7908,-1.828,-1.8651,-1.8719,-1.8708,-1.8768,-1.876,-1.8731,-1.8878,-1.9019,-1.8742,-1.884,-1.9026,-1.8962,-1.8983,-1.9272,-1.9264,-1.9406,-1.9755,-1.9739,-1.9566,-1.9609,-1.9626,-1.9451,-1.972,-2.0186,-2.095,-2.1523,-2.1949,-2.1849,-2.1484,-2.1749,-2.1691,-2.1558,-2.1907,-2.2482,-2.2398,-2.2582,-2.2746,-2.2842,-2.2461,-2.2178,-2.2002,-2.21,-2.2056,-2.1892,-2.1836,-2.183,-2.1708,-2.1798,-2.1891,-2.1762,-2.1731,-2.1731,-2.1807,-2.1959,-2.1996,-2.203,-2.2232,-2.2584,-2.2733,-2.2807,-2.2848,-2.2878,-2.2886,-2.2827,-2.2329,-2.2054,-2.1788,-2.1475,-2.1025,-2.0873,-2.1145,-2.1273,-2.1244,-2.1302,-2.1516,-2.1771,-2.2092,-2.2147,-2.2332,-2.2493,-2.2849,-2.2946,-0.7715,-0.8045,-0.8374,-0.8838,-0.943,-0.9918,-1.0583,-1.1313,-1.1637,-1.2134,-1.2905,-1.3539,-1.3931,-1.4022,-1.431,-1.4496,-1.4688,-1.5166,-1.5356,-1.5356,-1.5452,-1.5445,-1.554,-1.5547,-1.5648,-1.5737,-1.592,-1.6305,-1.6791,-1.7246,-1.7613,-1.8048,-1.8495,-1.8748,-1.878,-1.8659,-1.8596,-1.8645,-1.8562,-1.8789,-1.8977,-1.8717,-1.8982,-1.9401,-1.9343,-1.9304,-1.9453,-1.9329,-1.9436,-1.9618,-1.9554,-1.937,-1.9326,-1.9191,-1.9106,-1.9281,-1.9507,-2.0198,-2.1163,-2.2198,-2.2045,-2.1322,-2.1532,-2.1626,-2.1268,-2.1616,-2.2176,-2.2045,-2.2178,-2.2269,-2.2129,-2.1894,-2.1689,-2.1592,-2.1699,-2.1663,-2.1569,-2.1551,-2.1559,-2.173,-2.1873,-2.1992,-2.185,-2.1807,-2.1807,-2.1883,-2.2035,-2.2039,-2.202,-2.2221,-2.2637,-2.2807,-2.2892,-2.2933,-2.2996,-2.3091,-2.2994,-2.2447,-2.1957,-2.1688,-2.1429,-2.1099,-2.1035,-2.1106,-2.121,-2.1273,-2.1336,-2.1423,-2.1753,-2.2048,-2.2392,-2.2567,-2.2739,-2.2848,-2.2969,-0.7718,-0.8045,-0.8592,-0.8998,-0.9417,-1.008,-1.0604,-1.1231,-1.2109,-1.2759,-1.3147,-1.3823,-1.431,-1.4502,-1.4598,-1.479,-1.5077,-1.5261,-1.5547,-1.554,-1.5635,-1.5832,-1.5927,-1.5927,-1.6123,-1.6305,-1.6393,-1.6393,-1.6683,-1.7217,-1.7707,-1.8156,-1.8672,-1.8757,-1.8652,-1.8532,-1.8562,-1.8791,-1.8855,-1.901,-1.947,-1.9376,-1.9474,-1.9977,-1.9681,-1.9579,-1.9792,-1.9453,-1.9247,-1.9445,-1.9321,-1.9366,-1.9428,-1.9472,-1.988,-2.0261,-2.0624,-2.11,-2.1834,-2.2359,-2.1952,-2.1326,-2.1199,-2.1419,-2.0872,-2.1212,-2.1447,-2.1644,-2.1755,-2.1806,-2.1841,-2.1592,-2.1367,-2.126,-2.123,-2.1234,-2.1202,-2.131,-2.1386,-2.1624,-2.184,-2.1891,-2.1803,-2.1807,-2.1807,-2.1832,-2.1962,-2.2103,-2.2147,-2.2371,-2.2734,-2.2883,-2.2947,-2.3051,-2.308,-2.3006,-2.2766,-2.226,-2.1812,-2.143,-2.1246,-2.116,-2.1035,-2.1094,-2.121,-2.1336,-2.1463,-2.16,-2.1788,-2.2061,-2.2432,-2.2616,-2.2739,-2.2848,-2.2969,-0.7934,-0.8266,-0.8816,-0.9295,-0.977,-1.0364,-1.0866,-1.1541,-1.2662,-1.3249,-1.3443,-1.4112,-1.4496,-1.4688,-1.4879,-1.5077,-1.5267,-1.5553,-1.5737,-1.5737,-1.6015,-1.6211,-1.6305,-1.6312,-1.6501,-1.669,-1.6683,-1.6683,-1.7044,-1.7409,-1.7903,-1.8435,-1.875,-1.8888,-1.8781,-1.8754,-1.8758,-1.9054,-1.9079,-1.9289,-1.9605,-1.9745,-1.9869,-2.0052,-1.9952,-1.9615,-1.966,-1.9333,-1.8826,-1.9186,-1.9321,-1.9305,-1.9494,-1.9943,-2.0274,-2.0567,-2.1297,-2.1503,-2.1884,-2.2272,-2.1729,-2.0721,-2.1111,-2.1192,-2.0929,-2.1151,-2.1253,-2.1326,-2.1342,-2.138,-2.1426,-2.1094,-2.1045,-2.0937,-2.0938,-2.0868,-2.1013,-2.1218,-2.1373,-2.1599,-2.1807,-2.1807,-2.1797,-2.1807,-2.1807,-2.1886,-2.1889,-2.1987,-2.219,-2.2424,-2.2658,-2.2752,-2.2823,-2.2754,-2.27,-2.2577,-2.2302,-2.1957,-2.1733,-2.145,-2.1345,-2.1316,-2.1168,-2.1031,-2.1158,-2.1348,-2.1537,-2.1726,-2.1987,-2.2235,-2.2432,-2.2616,-2.2739,-2.2848,-2.2969,-0.8156,-0.8598,-0.9158,-0.9842,-1.0398,-1.0841,-1.1534,-1.2473,-1.3152,-1.3545,-1.3636,-1.44,-1.4783,-1.4879,-1.5261,-1.5547,-1.5642,-1.6028,-1.6123,-1.6218,-1.64,-1.6494,-1.6581,-1.6683,-1.6784,-1.6878,-1.6972,-1.7239,-1.7591,-1.7812,-1.8292,-1.8612,-1.8779,-1.8883,-1.8978,-1.9014,-1.9056,-1.9267,-1.9389,-1.957,-1.9889,-1.9755,-2.0015,-2.0156,-1.9991,-1.967,-1.9479,-1.9048,-1.8759,-1.8719,-1.8779,-1.8709,-1.8941,-1.948,-1.9443,-1.9795,-2.0787,-2.1274,-2.1471,-2.1894,-2.1564,-2.0761,-2.1018,-2.1101,-2.1072,-2.1063,-2.1043,-2.1047,-2.1041,-2.0868,-2.0723,-2.0693,-2.0674,-2.0644,-2.0713,-2.0819,-2.0984,-2.1148,-2.1379,-2.1502,-2.1731,-2.1797,-2.1776,-2.1776,-2.1621,-2.1647,-2.1575,-2.1586,-2.1775,-2.2253,-2.2453,-2.2448,-2.2484,-2.2441,-2.2395,-2.2458,-2.2194,-2.1936,-2.1867,-2.1704,-2.1609,-2.1403,-2.1284,-2.1158,-2.1233,-2.136,-2.1737,-2.1987,-2.2235,-2.2432,-2.2494,-2.2678,-2.28,-2.2909,-2.303,-0.8263,-0.8813,-0.9485,-0.995,-1.0352,-1.1295,-1.2185,-1.2964,-1.3346,-1.3732,-1.4112,-1.4496,-1.4937,-1.5445,-1.5635,-1.5913,-1.6204,-1.6393,-1.6595,-1.6676,-1.6633,-1.685,-1.6929,-1.7088,-1.7131,-1.7311,-1.739,-1.7624,-1.798,-1.8257,-1.8272,-1.8446,-1.8727,-1.8922,-1.9006,-1.9005,-1.9316,-1.9504,-1.9687,-1.9948,-2.0253,-2.0183,-2.043,-2.0263,-2.014,-1.9755,-1.9408,-1.916,-1.8871,-1.8836,-1.9245,-1.9336,-1.9179,-1.9758,-1.9977,-2.0339,-2.1106,-2.1627,-2.1296,-2.1384,-2.1238,-2.0703,-2.0651,-2.0692,-2.0672,-2.0829,-2.0798,-2.075,-2.078,-2.0693,-2.0625,-2.0596,-2.0576,-2.0566,-2.0654,-2.0896,-2.1061,-2.1205,-2.1436,-2.1578,-2.1807,-2.1735,-2.1714,-2.1497,-2.1331,-2.1345,-2.1303,-2.1206,-2.1474,-2.1962,-2.2312,-2.2317,-2.2357,-2.2402,-2.2528,-2.2592,-2.2205,-2.1969,-2.1841,-2.172,-2.1403,-2.1261,-2.1244,-2.1348,-2.1411,-2.1686,-2.2011,-2.2185,-2.2297,-2.242,-2.2543,-2.2739,-2.286,-2.2982,-2.315,-0.8256,-0.8974,-0.9406,-0.9997,-1.0848,-1.1836,-1.2754,-1.3414,-1.3521,-1.3814,-1.4268,-1.4534,-1.5136,-1.5697,-1.59,-1.6168,-1.6581,-1.6676,-1.6821,-1.6743,-1.6872,-1.6926,-1.7095,-1.7165,-1.7189,-1.7325,-1.7424,-1.7515,-1.7983,-1.825,-1.836,-1.8699,-1.8929,-1.895,-1.9155,-1.937,-1.9519,-1.9695,-1.9861,-2.0097,-2.0307,-2.0492,-2.0385,-2.0321,-2.0196,-1.9759,-1.9454,-1.915,-1.8991,-1.8956,-1.9444,-1.9505,-1.924,-1.9629,-2.0361,-2.0652,-2.112,-2.1403,-2.1199,-2.0999,-2.0837,-2.0556,-2.0264,-2.0284,-2.0381,-2.0517,-2.0508,-2.0469,-2.0528,-2.0576,-2.0576,-2.0576,-2.0576,-2.0576,-2.0819,-2.0984,-2.1128,-2.1359,-2.1589,-2.1731,-2.1756,-2.1662,-2.1507,-2.1248,-2.1063,-2.101,-2.0902,-2.0769,-2.1161,-2.1815,-2.2147,-2.2346,-2.24,-2.2484,-2.2568,-2.2551,-2.206,-2.174,-2.1564,-2.1388,-2.1181,-2.1158,-2.1285,-2.1411,-2.16,-2.1874,-2.2073,-2.2185,-2.2235,-2.2396,-2.2555,-2.2763,-2.2957,-2.3103,-2.3271,-0.8291,-0.8923,-0.9313,-1.0381,-1.1802,-1.2485,-1.3352,-1.419,-1.3862,-1.3956,-1.4456,-1.4615,-1.5186,-1.59,-1.6151,-1.6364,-1.6657,-1.6901,-1.7021,-1.6843,-1.7002,-1.7086,-1.71,-1.7029,-1.7181,-1.7075,-1.7221,-1.7601,-1.762,-1.8038,-1.8574,-1.9141,-1.9088,-1.9076,-1.9353,-1.9555,-1.9609,-1.9569,-1.9685,-1.9858,-1.9906,-1.9906,-1.9911,-2.0009,-1.9701,-1.9268,-1.9153,-1.9021,-1.8772,-1.8931,-1.91,-1.9179,-1.9338,-1.9515,-2.0335,-2.0747,-2.0999,-2.1002,-2.0924,-2.0816,-2.0591,-2.0311,-2.0108,-2.0186,-2.0264,-2.0411,-2.0489,-2.0489,-2.0566,-2.0576,-2.0576,-2.0576,-2.0576,-2.0654,-2.0819,-2.0974,-2.1205,-2.1436,-2.1655,-2.1807,-2.1863,-2.1738,-2.13,-2.1041,-2.0741,-2.0694,-2.0477,-2.0318,-2.0726,-2.1431,-2.192,-2.2171,-2.2571,-2.2622,-2.2417,-2.2248,-2.1844,-2.1499,-2.1376,-2.1366,-2.136,-2.1285,-2.1285,-2.1549,-2.1737,-2.1874,-2.1999,-2.2111,-2.2175,-2.2226,-2.242,-2.2761,-2.2967,-2.3025,-2.3292,-0.8305,-0.8992,-0.9911,-1.1026,-1.2084,-1.2718,-1.3533,-1.4362,-1.4666,-1.4884,-1.5139,-1.5199,-1.5623,-1.622,-1.6402,-1.6614,-1.7022,-1.7113,-1.7227,-1.7206,-1.7249,-1.7213,-1.7231,-1.7218,-1.7272,-1.7342,-1.7486,-1.7666,-1.7976,-1.8246,-1.8516,-1.8878,-1.9021,-1.9228,-1.9236,-1.9489,-1.957,-1.9444,-1.9444,-1.9696,-1.9937,-2.0177,-2.0243,-2.0099,-1.9661,-1.9335,-1.9201,-1.911,-1.894,-1.8851,-1.925,-1.9557,-1.9784,-1.9942,-2.0194,-2.0495,-2.0692,-2.0732,-2.0712,-2.0564,-2.0478,-2.0341,-2.0255,-2.0177,-2.0255,-2.0411,-2.0489,-2.0489,-2.0566,-2.0566,-2.0576,-2.0576,-2.0576,-2.0654,-2.0741,-2.0974,-2.1205,-2.1425,-2.1731,-2.1776,-2.1928,-2.1647,-2.1188,-2.0824,-2.0542,-2.0195,-1.9735,-1.9628,-2.0066,-2.0644,-2.1326,-2.1848,-2.2699,-2.2844,-2.2421,-2.2127,-2.1797,-2.1682,-2.158,-2.1516,-2.1474,-2.1537,-2.1549,-2.1675,-2.1874,-2.1939,-2.2039,-2.2149,-2.2176,-2.208,-2.2138,-2.2414,-2.2614,-2.2728,-2.3073,-0.8343,-0.9199,-1.0418,-1.1339,-1.2184,-1.2943,-1.3642,-1.4286,-1.4871,-1.5312,-1.5398,-1.545,-1.5798,-1.6514,-1.6613,-1.6911,-1.7323,-1.7409,-1.7491,-1.7486,-1.7296,-1.729,-1.7312,-1.7358,-1.7347,-1.7472,-1.7633,-1.7913,-1.8309,-1.8404,-1.8591,-1.9029,-1.9311,-1.9311,-1.9161,-1.9557,-1.9636,-1.9417,-1.939,-1.9595,-1.9962,-1.998,-1.9907,-1.9687,-1.9742,-1.9461,-1.9308,-1.9261,-1.9307,-1.9154,-1.9329,-1.9636,-1.9872,-2.0098,-2.0264,-2.0371,-2.0537,-2.0576,-2.0566,-2.0489,-2.0342,-2.0333,-2.0255,-2.0264,-2.0264,-2.0411,-2.0489,-2.0498,-2.0566,-2.0576,-2.0576,-2.0576,-2.0576,-2.0654,-2.0819,-2.0974,-2.1282,-2.1578,-2.1566,-2.1414,-2.1385,-2.1104,-2.0659,-2.0346,-2.0063,-1.9808,-1.9404,-1.9494,-1.9886,-2.0214,-2.0782,-2.1322,-2.2165,-2.244,-2.1967,-2.1846,-2.1907,-2.1793,-2.1783,-2.1654,-2.1612,-2.1749,-2.1812,-2.1803,-2.1856,-2.1969,-2.203,-2.2007,-2.1946,-2.1883,-2.195,-2.2064,-2.2176,-2.2299,-2.2712,-0.8459,-0.9438,-1.0708,-1.1492,-1.217,-1.313,-1.3767,-1.4322,-1.5107,-1.5379,-1.5466,-1.5639,-1.593,-1.636,-1.6815,-1.7196,-1.7423,-1.7527,-1.7648,-1.7518,-1.7358,-1.7311,-1.7367,-1.7384,-1.7442,-1.7606,-1.7834,-1.8151,-1.8593,-1.8736,-1.8976,-1.9487,-1.9636,-1.9548,-1.9784,-1.9942,-1.9863,-1.9715,-1.9715,-1.9645,-1.9585,-1.9469,-1.9445,-1.9565,-1.9756,-1.9712,-1.954,-1.9441,-1.9577,-1.9565,-1.9487,-1.9794,-2.0029,-2.0255,-2.0333,-2.0411,-2.0489,-2.0566,-2.0566,-2.042,-2.0342,-2.0342,-2.0342,-2.0342,-2.0342,-2.042,-2.0498,-2.0498,-2.0576,-2.0654,-2.0654,-2.0654,-2.0654,-2.0731,-2.0896,-2.1051,-2.1349,-2.1645,-2.1463,-2.1248,-2.1125,-2.0928,-2.0388,-2.0004,-1.9818,-1.9607,-1.955,-1.9747,-1.9976,-2.0238,-2.0698,-2.0963,-2.1452,-2.1464,-2.161,-2.1752,-2.1989,-2.201,-2.1957,-2.1804,-2.1698,-2.1761,-2.1741,-2.1749,-2.18,-2.1922,-2.1812,-2.1761,-2.1697,-2.1571,-2.1733,-2.1781,-2.1694,-2.1875,-2.2298,-0.9053,-1.0216,-1.09,-1.1492,-1.2175,-1.3323,-1.3951,-1.4397,-1.5449,-1.5915,-1.5828,-1.6159,-1.6421,-1.6345,-1.6888,-1.7228,-1.7412,-1.7539,-1.7494,-1.7265,-1.7406,-1.7442,-1.7498,-1.7635,-1.7635,-1.7878,-1.8193,-1.8594,-1.8993,-1.9073,-1.9301,-1.9784,-2.0098,-2.002,-1.9942,-2.002,-2.0186,-2.0029,-1.9794,-1.9715,-1.9715,-1.9627,-1.9469,-1.9515,-1.9454,-1.9445,-1.9347,-1.9375,-1.9375,-1.9497,-1.9784,-2.002,-2.0255,-2.0411,-2.0489,-2.0489,-2.0566,-2.0566,-2.0576,-2.042,-2.0342,-2.042,-2.042,-2.0342,-2.042,-2.0498,-2.0576,-2.0576,-2.0654,-2.0644,-2.0654,-2.0819,-2.0819,-2.0974,-2.1128,-2.1282,-2.1502,-2.1721,-2.1673,-2.1774,-2.1903,-2.1334,-2.0631,-2.0445,-2.0465,-2.0178,-1.9747,-1.9933,-2.014,-2.0423,-2.0718,-2.0872,-2.0984,-2.1598,-2.2127,-2.2059,-2.2145,-2.2185,-2.2107,-2.1855,-2.1686,-2.1698,-2.1643,-2.1679,-2.1765,-2.1897,-2.1736,-2.135,-2.1173,-2.1082,-2.1375,-2.1481,-2.1378,-2.1411,-2.1818]}]]